[[{"header":{"parameterUnit":"m.s-1","parameterCategory":1,"la1":31.0,"la2":29.5877,"lo1":-88.7671,"lo2":-86.6584,"dx":0.0162,"dy":0.0185,"nx":115,"ny":88,"refTime":"2022-12-07T06:00:00:Z","depth":0,"parameterNumber":2,"parameterNumberName":"U-component_of_WINDS"},"data":[0.0,0.0,0.0,0.0,0.0,0.0,0.0,0.0,0.0,0.0,0.0,0.0,0.0,0.0,0.0,0.0,0.0,0.0,0.0,0.0,0.0,0.0,0.0,0.0,0.0,0.0,0.0,0.0,0.0,0.0,0.0,0.0,0.0,0.0,0.0,0.0,0.0,0.0,0.0,0.0,0.0,0.0,0.0,0.0,0.0,0.0,0.0,0.0,0.0,0.0,0.0,0.0,0.0,0.0,0.0,0.0,0.0,0.0,0.0,0.0,0.0,0.0,0.0,0.0,0.0,0.0,0.0,0.0,0.0,0.0,0.0,0.0,0.0,0.0,0.0,0.0,0.0,0.0,0.0,0.0,0.0,0.0,0.0,0.0,0.0,0.0,0.0,0.0,0.0,0.0,0.0,0.0,0.0,0.0,0.0,0.0,0.0,0.0,0.0,0.0,0.0,0.0,0.0,0.0,0.0,0.0,0.0,0.0,0.0,0.0,0.0,0.0,0.0,0.0,0.0,0.0,0.0,0.0,0.0,0.0,0.0,0.0,0.0,0.0,0.0,0.0,0.0,0.0,0.0,0.0,0.0,0.0,0.0,0.0,0.0,0.0,0.0,0.0,0.0,0.0,0.0,0.0,0.0,0.0,0.0,0.0,0.0,0.0,0.0,0.0,0.0,0.0,0.0,0.0,0.0,0.0,0.0,0.0,0.0,0.0,0.0,0.0,0.0,0.0,0.0,0.0,0.0,0.0,0.0,0.0,0.0,0.0,0.0,0.0,0.0,0.0,0.0,0.0,0.0,0.0,0.0,0.0,0.0,0.0,0.0,0.0,0.0,0.0,0.0,0.0,0.0,0.0,0.0,0.0,0.0,0.0,0.0,0.0,0.0,0.0,0.0,0.0,0.0,0.0,0.0,0.0,0.0,0.0,0.0,0.0,0.0,0.0,0.0,0.0,0.0,0.0,0.0,0.0,0.0,0.0,0.0,0.0,0.0,0.0,0.0,0.0,0.0,0.0,0.0,0.0,0.0,0.0,0.0,0.0,0.0,0.0,0.0,0.0,0.0,0.0,0.0,0.0,0.0,0.0,0.0,0.0,0.0,0.0,0.0,0.0,0.0,0.0,0.0,0.0,0.0,0.0,0.0,0.0,0.0,0.0,0.0,0.0,0.0,0.0,0.0,0.0,0.0,0.0,0.0,0.0,0.0,0.0,0.0,0.0,0.0,0.0,0.0,0.0,0.0,0.0,0.0,0.0,0.0,0.0,0.0,0.0,0.0,0.0,0.0,0.0,0.0,0.0,0.0,0.0,0.0,0.0,0.0,0.0,0.0,0.0,0.0,0.0,0.0,0.0,0.0,0.0,0.0,0.0,0.0,0.0,0.0,0.0,0.0,0.0,0.0,0.0,0.0,0.0,0.0,0.0,0.0,0.0,0.0,0.0,0.0,0.0,0.0,0.0,0.0,0.0,0.0,0.0,0.0,0.0,0.0,0.0,0.0,0.0,0.0,0.0,0.0,0.0,0.0,0.0,0.0,0.0,0.0,0.0,0.0,0.0,0.0,0.0,0.0,0.0,0.0,0.0,0.0,0.0,0.0,0.0,0.0,0.0,0.0,0.0,0.0,0.0,0.0,0.0,0.0,0.0,0.0,0.0,0.0,0.0,0.0,0.0,0.0,0.0,0.0,0.0,0.0,0.0,0.0,0.0,0.0,0.0,0.0,0.0,0.0,0.0,0.0,0.0,0.0,0.0,0.0,0.0,0.0,0.0,0.0,0.0,0.0,0.0,0.0,0.0,0.0,0.0,0.0,0.0,0.0,0.0,0.0,0.0,0.0,0.0,0.0,0.0,0.0,0.0,0.0,0.0,0.0,0.0,0.0,0.0,0.0,0.0,0.0,0.0,0.0,0.0,0.0,0.0,0.0,0.0,0.0,0.0,0.0,0.0,0.0,0.0,0.0,0.0,0.0,0.0,0.0,0.0,0.0,0.0,0.0,0.0,0.0,0.0,0.0,0.0,0.0,0.0,0.0,0.0,0.0,0.0,0.0,0.0,0.0,0.0,0.0,0.0,0.0,0.0,0.0,0.0,0.0,0.0,0.0,0.0,0.0,0.0,0.0,0.0,0.0,0.0,0.0,0.0,0.0,0.0,0.0,0.0,0.0,0.0,0.0,0.0,0.0,0.0,0.0,0.0,0.0,0.0,0.0,0.0,0.0,0.0,0.0,0.0,0.0,0.0,0.0,0.0,0.0,0.0,0.0,0.0,0.0,0.0,0.0,0.0,0.0,0.0,0.0,0.0,0.0,0.0,0.0,0.0,0.0,0.0,0.0,0.0,0.0,0.0,0.0,0.0,0.0,0.0,0.0,0.0,0.0,0.0,0.0,0.0,0.0,0.0,0.0,0.0,0.0,0.0,0.0,0.0,0.0,0.0,0.0,0.0,0.0,0.0,0.0,0.0,0.0,0.0,0.0,0.0,0.0,0.0,0.0,0.0,0.0,0.0,0.0,0.0,0.0,0.0,0.0,0.0,0.0,0.0,0.0,0.0,0.0,0.0,0.0,0.0,0.0,0.0,0.0,0.0,0.0,0.0,0.0,0.0,0.0,0.0,0.0,0.0,0.0,0.0,0.0,0.0,0.0,0.0,0.0,0.0,0.0,0.0,0.0,0.0,0.0,0.0,0.0,0.0,0.0,0.0,0.0,0.0,0.0,0.0,0.0,0.0,0.0,0.0,0.0,0.0,0.0,0.0,0.0,0.0,0.0,0.0,0.0,0.0,0.0,0.0,0.0,0.0,0.0,0.0,0.0,0.0,0.0,0.0,0.0,0.0,0.0,0.0,0.0,0.0,0.0,0.0,0.0,0.0,0.0,0.0,0.0,0.0,0.0,0.0,0.0,0.0,0.0,0.0,0.0,0.0,0.0,0.0,0.0,0.0,0.0,0.0,0.0,0.0,0.0,0.0,0.0,0.0,0.0,0.0,0.0,0.0,0.0,0.0,0.0,0.0,0.0,0.0,0.0,0.0,0.0,0.0,0.0,0.0,0.0,0.0,0.0,0.0,0.0,0.0,0.0,0.0,0.0,0.0,0.0,0.0,0.0,0.0,0.0,0.0,0.0,0.0,0.0,0.0,0.0,0.0,0.0,0.0,0.0,0.0,0.0,0.0,0.0,0.0,0.0,0.0,0.0,0.0,0.0,0.0,0.0,0.0,0.0,0.0,0.0,0.0,0.0,0.0,0.0,0.0,0.0,0.0,0.0,0.0,0.0,0.0,0.0,0.0,0.0,0.0,0.0,0.0,0.0,0.0,0.0,0.0,0.0,0.0,0.0,0.0,0.0,0.0,0.0,0.0,0.0,0.0,0.0,0.0,0.0,0.0,0.0,0.0,0.0,0.0,0.0,0.0,0.0,0.0,0.0,0.0,0.0,0.0,0.0,0.0,0.0,0.0,0.0,0.0,0.0,0.0,0.0,0.0,0.0,0.0,0.0,0.0,0.0,0.0,0.0,0.0,0.0,0.0,0.0,0.0,0.0,0.0,0.0,0.0,0.0,0.0,0.0,0.0,0.0,0.0,0.0,0.0,0.0,0.0,0.0,0.0,0.0,0.0,0.0,0.0,0.0,0.0,0.0,0.0,0.0,0.0,0.0,0.0,0.0,0.0,0.0,0.0,0.0,0.0,0.0,0.0,0.0,0.0,0.0,0.0,0.0,0.0,0.0,0.0,0.0,0.0,0.0,0.0,0.0,0.0,0.0,0.0,0.0,0.0,0.0,0.0,0.0,0.0,0.0,0.0,0.0,0.0,0.0,0.0,0.0,0.0,0.0,0.0,0.0,0.0,0.0,0.0,0.0,0.0,0.0,0.0,0.0,0.0,0.0,0.0,0.0,0.0,0.0,0.0,0.0,0.0,0.0,0.0,0.0,0.0,0.0,0.0,0.0,0.0,0.0,0.0,0.0,0.0,0.0,0.0,0.0,0.0,0.0,0.0,0.0,0.0,0.0,0.0,0.0,0.0,0.0,0.0,0.0,0.0,0.0,0.0,0.0,0.0,0.0,0.0,0.0,0.0,0.0,0.0,0.0,0.0,0.0,0.0,0.0,0.0,0.0,0.0,0.0,0.0,0.0,0.0,0.0,0.0,0.0,0.0,0.0,0.0,0.0,0.0,0.0,0.0,0.0,0.0,0.0,0.0,0.0,0.0,0.0,0.0,0.0,0.0,0.0,0.0,0.0,0.0,0.0,0.0,0.0,0.0,0.0,0.0,-0.4637,0.0,0.0,0.0,-0.3716,0.0,0.0,0.0,0.0,0.0,0.0,0.0,0.0,0.0,0.0,0.0,0.0,0.0,0.0,0.0,0.0,0.0,0.0,0.0,0.0,0.0,0.0,0.0,0.0,0.0,0.0,0.0,0.0,0.0,0.0,0.0,0.0,0.0,0.0,0.0,0.0,0.0,0.0,0.0,0.0,0.0,0.0,0.0,0.0,0.0,0.0,0.0,0.0,0.0,0.0,0.0,0.0,0.0,0.0,0.0,0.0,0.0,0.0,0.0,0.0,0.0,0.0,0.0,0.0,0.0,0.0,0.0,0.0,0.0,0.0,0.0,0.0,0.0,0.0,0.0,0.0,0.0,0.0,0.0,0.0,0.0,0.0,0.0,0.0,0.0,0.0,0.0,0.0,0.0,0.0,0.0,0.0,0.0,0.0,0.0,0.0,0.0,0.0,0.0,0.0,0.0,0.0,0.0,0.0,0.0,0.0,0.0,0.0,0.0,0.0,-0.4147,-0.3869,-0.3771,-0.3709,-0.3638,0.0,0.0,0.0,0.0,0.0,0.0,0.0,0.0,0.0,0.0,0.0,0.0,0.0,0.0,0.0,0.0,0.0,0.0,0.0,0.0,0.0,0.0,0.0,0.0,0.0,0.0,0.0,0.0,0.0,0.0,0.0,0.0,0.0,0.0,0.0,0.0,0.0,0.0,0.0,0.0,0.0,0.0,0.0,0.0,0.0,0.0,0.0,0.0,0.0,0.0,0.0,0.0,0.0,0.0,0.0,0.0,0.0,0.0,0.0,0.0,0.0,0.0,0.0,0.0,0.0,0.0,0.0,0.0,0.0,0.0,0.0,0.0,0.0,0.0,0.0,0.0,0.0,0.0,0.0,0.0,0.0,0.0,0.0,0.0,0.0,0.0,0.0,0.0,0.0,0.0,0.0,0.0,0.0,0.0,0.0,0.0,0.0,0.0,0.0,0.0,0.0,0.0,0.0,0.0,0.0,0.0,0.0,0.0,0.0,0.0,0.0,0.0,-0.3709,-0.363,-0.3528,0.0,0.0,0.0,0.0,0.0,0.0,0.0,0.0,0.0,0.0,0.0,0.0,0.0,0.0,0.0,0.0,0.0,0.0,0.0,0.0,0.0,0.0,0.0,0.0,0.0,0.0,0.0,0.0,0.0,0.0,0.0,0.0,0.0,0.0,0.0,0.0,0.0,0.0,0.0,0.0,0.0,0.0,0.0,0.0,0.0,0.0,0.0,0.0,0.0,0.0,0.0,0.0,0.0,0.0,0.0,0.0,0.0,0.0,0.0,0.0,0.0,0.0,0.0,0.0,0.0,0.0,0.0,0.0,0.0,0.0,0.0,0.0,0.0,0.0,0.0,0.0,0.0,0.0,0.0,0.0,0.0,0.0,0.0,0.0,0.0,0.0,0.0,0.0,0.0,0.0,0.0,0.0,0.0,0.0,0.0,0.0,0.0,0.0,0.0,0.0,0.0,0.0,0.0,0.0,0.0,0.0,0.0,0.0,0.0,0.0,-0.3679,-0.3612,-0.3616,0.0,-0.3325,0.0,0.0,0.0,0.0,0.0,0.0,0.0,0.0,0.0,0.0,0.0,0.0,0.0,0.0,0.0,0.0,0.0,0.0,0.0,0.0,0.0,0.0,0.0,0.0,0.0,0.0,0.0,0.0,0.0,0.0,0.0,0.0,0.0,0.0,0.0,0.0,0.0,0.0,0.0,0.0,0.0,0.0,0.0,0.0,0.0,0.0,0.0,0.0,0.0,0.0,0.0,0.0,0.0,0.0,0.0,0.0,0.0,0.0,0.0,0.0,0.0,0.0,0.0,0.0,0.0,0.0,0.0,0.0,0.0,0.0,0.0,0.0,0.0,0.0,0.0,0.0,0.0,0.0,0.0,0.0,0.0,0.0,0.0,0.0,0.0,0.0,0.0,0.0,0.0,0.0,0.0,0.0,0.0,0.0,0.0,0.0,0.0,0.0,0.0,0.0,0.0,0.0,0.0,0.0,0.0,0.0,0.0,0.0,0.0,0.0,-0.3614,-0.3537,-0.3464,-0.3364,0.0,0.0,0.0,0.0,0.0,0.0,0.0,0.0,0.0,0.0,0.0,0.0,0.0,0.0,0.0,0.0,0.0,0.0,0.0,0.0,0.0,0.0,0.0,0.0,0.0,0.0,0.0,0.0,0.0,0.0,0.0,0.0,0.0,0.0,0.0,0.0,0.0,0.0,0.0,0.0,0.0,0.0,0.0,0.0,0.0,0.0,0.0,0.0,0.0,0.0,0.0,0.0,0.0,0.0,0.0,0.0,0.0,0.0,0.0,0.0,0.0,0.0,0.0,0.0,0.0,0.0,0.0,0.0,0.0,0.0,0.0,0.0,0.0,0.0,0.0,0.0,0.0,0.0,0.0,0.0,0.0,0.0,0.0,0.0,0.0,0.0,0.0,0.0,0.0,0.0,0.0,0.0,0.0,0.0,0.0,0.0,0.0,0.0,0.0,0.0,0.0,0.0,0.0,0.0,0.0,0.0,0.0,0.0,0.0,0.0,-0.3566,-0.3518,-0.3444,-0.3338,-0.3238,-0.3174,0.0,0.0,0.0,0.0,0.0,0.0,0.0,0.0,0.0,0.0,0.0,0.0,0.0,0.0,0.0,0.0,0.0,0.0,0.0,0.0,0.0,0.0,0.0,0.0,0.0,0.0,0.0,0.0,0.0,0.0,0.0,0.0,0.0,0.0,0.0,0.0,0.0,0.0,0.0,0.0,0.0,0.0,0.0,0.0,0.0,0.0,0.0,0.0,0.0,0.0,0.0,0.0,0.0,0.0,0.0,0.0,0.0,0.0,0.0,0.0,0.0,0.0,0.0,0.0,0.0,0.0,0.0,0.0,0.0,0.0,0.0,0.0,0.0,0.0,0.0,0.0,0.0,0.0,0.0,0.0,0.0,0.0,0.0,0.0,0.0,0.0,0.0,0.0,0.0,0.0,0.0,0.0,0.0,0.0,0.0,0.0,0.0,0.0,0.0,0.0,0.0,0.0,0.0,0.0,0.0,0.0,0.0,0.0,-0.3498,-0.3447,-0.3368,-0.3321,-0.3238,-0.3174,0.0,0.0,0.0,0.0,0.0,0.0,0.0,0.0,0.0,0.0,0.0,0.0,0.0,0.0,0.0,0.0,0.0,0.0,0.0,0.0,0.0,0.0,0.0,0.0,0.0,0.0,0.0,0.0,0.0,0.0,0.0,0.0,0.0,0.0,0.0,0.0,0.0,0.0,0.0,0.0,0.0,0.0,0.0,0.0,0.0,0.0,0.0,0.0,0.0,0.0,0.0,0.0,0.0,0.0,0.0,0.0,0.0,0.0,0.0,0.0,0.0,0.0,0.0,0.0,0.0,0.0,0.0,0.0,0.0,0.0,0.0,0.0,0.0,0.0,0.0,0.0,0.0,0.0,0.0,0.0,0.0,0.0,0.0,0.0,0.0,0.0,0.0,0.0,0.0,0.0,0.0,0.0,0.0,0.0,0.0,0.0,0.0,0.0,0.0,0.0,0.0,0.0,0.0,0.0,0.0,0.0,0.0,0.0,0.0,-0.3378,-0.3351,-0.3308,-0.3238,-0.3174,-0.3085,0.0,0.0,0.0,0.0,0.0,0.0,0.0,0.0,0.0,0.0,0.0,0.0,0.0,0.0,0.0,0.0,0.0,0.0,0.0,0.0,0.0,0.0,0.0,0.0,0.0,0.0,0.0,0.0,0.0,0.0,0.0,0.0,0.0,0.0,0.0,0.0,0.0,0.0,0.0,0.0,0.0,0.0,0.0,0.0,0.0,0.0,0.0,0.0,0.0,0.0,0.0,0.0,0.0,0.0,0.0,0.0,0.0,0.0,0.0,0.0,0.0,0.0,0.0,0.0,0.0,0.0,0.0,0.0,0.0,0.0,0.0,0.0,0.0,0.0,0.0,0.0,0.0,0.0,0.0,0.0,0.0,0.0,0.0,0.0,0.0,0.0,0.0,0.0,0.0,0.0,0.0,0.0,0.0,0.0,0.0,0.0,0.0,0.0,0.0,0.0,0.0,0.0,0.0,0.0,0.0,0.0,0.0,0.0,0.0,-0.3267,-0.3251,-0.321,-0.315,-0.3097,-0.2981,0.0,0.0,0.0,0.0,0.0,0.0,0.0,0.0,0.0,0.0,0.0,0.0,0.0,0.0,0.0,0.0,0.0,0.0,0.0,0.0,0.0,0.0,0.0,0.0,0.0,0.0,0.0,0.0,0.0,0.0,0.0,0.0,0.0,0.0,0.0,0.0,0.0,0.0,0.0,0.0,0.0,0.0,0.0,0.0,0.0,0.0,0.0,0.0,0.0,0.0,0.0,0.0,0.0,0.0,0.0,0.0,0.0,0.0,0.0,0.0,0.0,0.0,0.0,0.0,0.0,0.0,0.0,0.0,0.0,0.0,0.0,0.0,0.0,0.0,0.0,0.0,0.0,0.0,0.0,0.0,0.0,0.0,0.0,0.0,0.0,0.0,0.0,0.0,0.0,0.0,0.0,0.0,0.0,0.0,0.0,0.0,0.0,0.0,0.0,0.0,0.0,0.0,0.0,0.0,0.0,0.0,0.0,0.0,-0.3208,-0.3202,-0.3162,-0.3165,-0.3097,-0.3,-0.2891,0.0,0.0,0.0,0.0,0.0,0.0,0.0,0.0,0.0,0.0,0.0,0.0,0.0,0.0,0.0,0.0,0.0,0.0,0.0,0.0,0.0,0.0,0.0,0.0,0.0,0.0,0.0,0.0,0.0,0.0,0.0,0.0,0.0,0.0,0.0,0.0,0.0,0.0,0.0,0.0,0.0,0.0,0.0,0.0,0.0,0.0,0.0,0.0,0.0,0.0,0.0,0.0,0.0,0.0,0.0,0.0,0.0,0.0,0.0,0.0,0.0,0.0,0.0,0.0,0.0,0.0,0.0,0.0,0.0,0.0,0.0,0.0,0.0,0.0,0.0,0.0,0.0,0.0,0.0,0.0,0.0,0.0,0.0,0.0,0.0,0.0,0.0,0.0,0.0,0.0,0.0,0.0,0.0,0.0,0.0,0.0,0.0,0.0,0.0,0.0,0.0,0.0,0.0,0.0,0.0,0.0,0.0,0.0,0.0,-0.3686,-0.3944,-0.3892,-0.3525,-0.3424,-0.317,0.0,0.0,0.0,0.0,0.0,0.0,0.0,0.0,0.0,0.0,0.0,0.0,0.0,0.0,0.0,0.0,0.0,0.0,0.0,0.0,0.0,0.0,0.0,0.0,0.0,0.0,0.0,0.0,0.0,0.0,0.0,0.0,0.0,0.0,0.0,0.0,0.0,0.0,0.0,0.0,0.0,0.0,0.0,0.0,0.0,0.0,0.0,0.0,0.0,0.0,0.0,0.0,0.0,0.0,0.0,0.0,0.0,0.0,0.0,0.0,0.0,0.0,0.0,0.0,0.0,0.0,0.0,0.0,0.0,0.0,0.0,0.0,0.0,0.0,0.0,0.0,0.0,0.0,0.0,0.0,0.0,0.0,0.0,0.0,0.0,0.0,0.0,0.0,0.0,0.0,0.0,0.0,0.0,0.0,0.0,0.0,0.0,0.0,0.0,0.0,0.0,0.0,0.0,0.0,0.0,0.0,0.0,0.0,0.0,-0.4328,-0.4435,-0.4316,-0.3942,-0.3668,-0.331,-0.2839,0.0,0.0,0.0,0.0,0.0,0.0,0.0,0.0,0.0,0.0,0.0,0.0,0.0,0.0,0.0,0.0,0.0,0.0,0.0,0.0,0.0,0.0,0.0,0.0,0.0,0.0,0.0,0.0,0.0,0.0,0.0,0.0,0.0,0.0,0.0,0.0,0.0,0.0,0.0,0.0,0.0,0.0,0.0,0.0,0.0,0.0,0.0,0.0,0.0,0.0,0.0,0.0,0.0,0.0,0.0,0.0,0.0,0.0,0.0,0.0,0.0,0.0,0.0,0.0,0.0,0.0,0.0,0.0,0.0,0.0,0.0,0.0,0.0,0.0,0.0,0.0,0.0,0.0,0.0,0.0,0.0,0.0,0.0,0.0,0.0,0.0,0.0,0.0,0.0,0.0,0.0,0.0,0.0,0.0,0.0,0.0,0.0,0.0,0.0,0.0,0.0,0.0,0.0,0.0,0.0,0.0,0.0,0.0,-0.5138,-0.477,-0.4495,-0.4327,-0.3783,-0.3376,0.0,0.0,0.0,0.0,0.0,0.0,0.0,0.0,0.0,0.0,0.0,0.0,0.0,0.0,0.0,0.0,0.0,0.0,0.0,0.0,0.0,0.0,0.0,0.0,0.0,0.0,0.0,0.0,0.0,0.0,0.0,0.0,0.0,0.0,0.0,0.0,0.0,0.0,0.0,0.0,0.0,0.0,0.0,0.0,0.0,0.0,0.0,0.0,0.0,0.0,0.0,0.0,0.0,0.0,0.0,0.0,0.0,0.0,0.0,0.0,0.0,0.0,0.0,0.0,0.0,0.0,0.0,0.0,0.0,0.0,0.0,0.0,0.0,0.0,0.0,0.0,0.0,0.0,0.0,0.0,0.0,0.0,0.0,0.0,0.0,0.0,0.0,0.0,0.0,0.0,0.0,0.0,0.0,0.0,0.0,0.0,0.0,0.0,0.0,0.0,0.0,0.0,0.0,0.0,0.0,0.0,0.0,0.0,0.0,-0.5591,-0.5515,-0.5243,-0.4749,-0.444,-0.3901,0.0,0.0,0.0,0.0,0.0,0.0,0.0,0.0,0.0,0.0,0.0,0.0,0.0,0.0,0.0,0.0,0.0,0.0,0.0,0.0,0.0,0.0,0.0,0.0,0.0,0.0,0.0,0.0,0.0,0.0,0.0,0.0,0.0,0.0,0.0,0.0,0.0,0.0,0.0,0.0,0.0,0.0,0.0,0.0,0.0,0.0,0.0,0.0,0.0,0.0,0.0,0.0,0.0,0.0,0.0,0.0,0.0,0.0,0.0,0.0,0.0,0.0,0.0,0.0,0.0,0.0,0.0,0.0,0.0,0.0,0.0,0.0,0.0,0.0,0.0,0.0,0.0,0.0,0.0,0.0,0.0,0.0,0.0,0.0,0.0,0.0,0.0,0.0,0.0,0.0,0.0,0.0,0.0,0.0,0.0,0.0,0.0,0.0,0.0,0.0,0.0,0.0,0.0,0.0,0.0,0.0,0.0,0.0,-0.5179,-0.5702,-0.57,-0.5486,-0.5081,-0.4735,-0.4143,0.0,0.0,0.0,0.0,0.0,0.0,0.0,0.0,0.0,0.0,0.0,0.0,0.0,0.0,0.0,0.0,0.0,0.0,0.0,0.0,0.0,0.0,0.0,0.0,0.0,0.0,0.0,0.0,0.0,0.0,0.0,0.0,0.0,0.0,0.0,0.0,0.0,0.0,0.0,0.0,0.0,0.0,0.0,0.0,0.0,0.0,0.0,0.0,0.0,0.0,0.0,0.0,0.0,0.0,0.0,0.0,0.0,0.0,0.0,0.0,0.0,0.0,0.0,0.0,0.0,0.0,0.0,0.0,0.0,0.0,0.0,0.0,0.0,0.0,0.0,0.0,0.0,0.0,0.0,0.0,0.0,0.0,0.0,0.0,0.0,0.0,0.0,0.0,0.0,0.0,0.0,0.0,0.0,0.0,0.0,0.0,0.0,0.0,0.0,0.0,0.0,0.0,0.0,0.0,0.0,0.0,0.0,0.0,-0.5077,-0.5561,-0.5525,-0.5416,-0.5271,-0.4802,-0.4254,0.0,0.0,0.0,0.0,0.0,0.0,0.0,0.0,0.0,0.0,0.0,0.0,0.0,0.0,0.0,0.0,0.0,0.0,0.0,0.0,0.0,0.0,0.0,0.0,0.0,0.0,0.0,0.0,0.0,0.0,0.0,0.0,0.0,0.0,0.0,0.0,0.0,0.0,0.0,0.0,0.0,0.0,0.0,0.0,0.0,0.0,0.0,0.0,0.0,0.0,0.0,0.0,0.0,0.0,0.0,0.0,0.0,0.0,0.0,0.0,0.0,0.0,0.0,0.0,0.0,0.0,0.0,0.0,0.0,0.0,0.0,0.0,0.0,0.0,0.0,0.0,0.0,0.0,0.0,0.0,0.0,0.0,0.0,0.0,0.0,0.0,0.0,0.0,0.0,0.0,0.0,0.0,0.0,0.0,0.0,0.0,0.0,0.0,0.0,0.0,0.0,0.0,0.0,0.0,0.0,0.0,0.0,0.0,-0.5276,-0.5441,-0.5427,-0.5326,-0.5146,-0.4924,-0.4382,0.0,0.0,0.0,0.0,0.0,0.0,0.0,0.0,0.0,0.0,0.0,0.0,0.0,0.0,0.0,0.0,0.0,0.0,0.0,0.0,0.0,0.0,0.0,0.0,0.0,0.0,0.0,0.0,0.0,0.0,0.0,0.0,0.0,0.0,0.0,0.0,0.0,0.0,0.0,0.0,0.0,0.0,0.0,0.0,0.0,0.0,0.0,0.0,0.2798,0.0,0.0,0.0,0.0,0.0,0.0,0.0,0.0,0.0,0.0,0.0,0.0,0.0,0.0,0.0,0.0,0.0,0.0,0.0,0.0,0.0,0.0,0.0,0.0,0.0,0.0,0.0,0.0,0.0,0.0,0.0,0.0,0.0,0.0,0.0,0.0,0.0,0.0,0.0,0.0,0.0,0.0,0.0,0.0,0.0,0.0,0.0,0.0,0.0,0.0,0.0,0.0,0.0,0.0,0.0,0.0,0.0,0.0,0.0,-0.52,-0.5243,-0.5253,-0.5161,-0.4966,-0.4764,-0.4236,0.0,0.0,0.0,0.0,0.0,0.0,0.0,0.0,0.0,0.0,0.0,0.0,0.0,0.0,0.0,0.0,0.0,0.0,0.0,0.0,0.0,0.0,0.0,0.0,0.0,0.0,0.0,0.0,0.0,0.0,0.0,0.0,0.0,0.0,0.0,0.0,0.0,0.0,0.0,0.0,0.0,0.0,0.0,0.0,0.0,0.0,0.0,0.0,0.0,0.0,0.0,0.0,0.0,0.0,0.0,0.0,0.0,0.0,0.0,0.0,0.0,0.0,0.0,0.0,0.0,0.0,0.0,0.0,0.0,0.0,0.0,0.0,0.0,0.0,0.0,0.0,0.0,0.0,0.0,0.0,0.0,0.0,0.0,0.0,0.0,0.0,0.0,0.0,0.0,0.0,0.0,0.0,0.0,0.0,0.0,0.0,0.0,0.0,0.0,0.0,0.0,0.0,0.0,0.0,0.0,0.0,0.0,-0.4636,-0.4985,-0.5064,-0.5073,-0.498,-0.4768,-0.4508,-0.398,-0.3162,0.0,0.0,0.0,0.0,0.0,0.0,0.0,0.0,0.0,0.0,0.0,0.0,0.0,0.0,0.0,0.0,0.0,0.0,0.0,0.0,0.0,0.0,0.0,0.0,0.0,0.0,0.0,0.0,0.0,0.0,0.0,0.0,0.0,0.0,0.0,0.0,0.0,0.0,0.1768,0.2179,0.0,0.0,0.0,0.0,0.0,0.0,0.0,0.0,0.345,0.0,0.0,0.0,0.0,0.0,0.0,0.0,0.0,0.0,0.0,0.0,0.0,0.0,0.0,0.0,0.0,0.0,0.0,0.0,0.0,0.0,0.0,0.0,0.0,0.0,0.0,0.0,0.0,0.0,0.0,0.0,0.0,0.0,0.0,0.0,0.0,0.0,0.0,0.0,0.0,0.0,0.0,0.0,0.0,0.0,0.0,0.0,0.0,0.0,0.0,0.0,0.0,0.0,0.0,0.0,0.0,-0.3833,-0.4447,-0.4809,-0.4932,-0.4937,-0.4843,-0.4633,-0.437,-0.3777,-0.2844,0.0,0.0,0.0,0.0,0.0,0.0,0.0,0.0,0.0,0.0,0.0,0.0,0.0,0.0,0.0,0.0,0.0,0.0,0.0,0.0,0.0,0.0,0.0,0.0,0.0,0.0,0.0,0.0,0.0,0.0,0.0,0.0,0.0,0.0,0.0,0.0,0.0,0.0,0.0,0.2713,0.2846,0.0,0.0,0.0,0.0,0.0,0.0,0.0,0.0,0.3813,0.0,0.0,0.0,0.0,0.0,0.0,0.0,0.0,0.0,0.0,0.0,0.0,0.0,0.0,0.0,0.0,0.0,0.0,0.0,0.0,0.0,0.0,0.0,0.0,0.0,0.0,0.0,0.0,0.0,0.0,0.0,0.0,0.0,0.0,0.0,0.0,0.0,0.0,0.0,0.0,0.0,0.0,0.0,0.0,0.0,0.0,0.0,0.0,0.0,0.0,0.0,0.0,0.0,0.0,0.0,-0.395,-0.435,-0.46,-0.4744,-0.4759,-0.4655,-0.4439,-0.415,-0.3591,0.0,0.0,0.0,0.0,0.0,0.0,0.0,0.0,0.0,0.0,0.0,0.0,0.0,0.0,0.0,0.0,0.0,0.0,0.0,0.0,0.0,0.0,0.0,0.0,0.0,0.0,0.0,0.0,0.0,0.0,0.0,0.0,0.0,0.0,0.0,0.0,0.0,0.0,0.0,0.0,0.3184,0.3333,0.3539,0.0,0.0,0.0,0.0,0.0,0.0,0.4042,0.4129,0.0,0.0,0.0,0.0,0.0,0.0,0.0,0.0,0.0,0.0,0.0,0.0,0.0,0.0,0.0,0.0,0.0,0.0,0.0,0.0,0.0,0.0,0.0,0.0,0.0,0.0,0.0,0.0,0.0,0.0,0.0,0.0,0.0,0.0,0.0,0.0,0.0,0.0,0.0,0.0,0.0,0.0,0.0,0.0,0.0,0.0,0.0,0.0,0.0,0.0,0.0,0.0,0.0,0.0,0.0,-0.4017,-0.4264,-0.4427,-0.4552,-0.4548,-0.4443,-0.4256,-0.3917,-0.3373,0.0,0.0,0.0,0.0,0.0,0.0,0.0,0.0,0.0,0.0,0.0,0.0,0.0,0.0,0.0,0.0,0.0,0.0,0.0,0.0,0.0,0.0,0.0,0.0,0.0,0.0,0.0,0.0,0.0,0.0,0.0,0.0,0.0,0.0,0.0,0.0,0.0,0.0,0.0,0.0,0.0,0.3839,0.3891,0.397,0.0,0.0,0.0,0.0,0.4324,0.4416,0.0,0.0,0.0,0.0,0.0,0.0,0.0,0.0,0.0,0.0,0.0,0.0,0.0,0.0,0.0,0.0,0.0,0.0,0.0,0.0,0.0,0.0,0.0,0.0,0.0,0.0,0.0,0.0,0.0,0.0,0.0,0.0,0.0,0.0,0.0,0.0,0.0,0.0,0.0,0.0,0.0,0.0,0.0,0.0,0.0,0.0,0.0,0.0,0.0,0.0,0.0,0.0,0.0,0.0,0.0,0.0,-0.3808,-0.4149,-0.4366,-0.4427,-0.4354,-0.4256,-0.4026,-0.3661,-0.3103,0.0,0.0,0.0,0.0,0.0,0.0,0.0,0.0,0.0,0.0,0.0,0.0,0.0,0.0,0.0,0.0,0.0,0.0,0.0,0.0,0.0,0.0,0.0,0.0,0.0,0.0,0.0,0.0,0.0,0.0,0.0,0.0,0.0,0.0,0.0,0.0,0.0,0.0,0.0,0.0,0.0,0.4174,0.4236,0.4549,0.4781,0.0,0.0,0.5336,0.5111,0.5085,0.0,0.0,0.0,0.0,0.0,0.0,0.0,0.0,0.0,0.0,0.0,0.0,0.0,0.0,0.0,0.0,0.0,0.0,0.0,0.0,0.0,0.0,0.0,0.0,0.0,0.0,0.0,0.0,0.0,0.0,0.0,0.0,0.0,0.0,0.0,0.0,0.0,0.0,0.0,0.0,0.0,0.0,0.0,0.0,0.0,0.0,0.0,0.0,0.0,0.0,0.0,0.0,0.0,0.0,0.0,-0.2992,-0.3712,-0.3956,-0.4125,-0.424,-0.4166,-0.4035,-0.3814,-0.3454,-0.2923,0.0,0.0,0.0,0.0,0.0,0.0,0.0,0.0,0.0,0.0,0.0,0.0,0.0,0.0,0.0,0.0,0.0,0.0,0.0,0.0,0.0,0.0,0.0,0.0,0.0,0.0,0.0,0.0,0.0,0.0,0.0,0.0,0.0,0.0,0.0,0.0,0.0,0.0,0.0,0.0,0.0,0.0,0.4863,0.526,0.0,0.0,0.0,0.5893,0.5781,0.0,0.0,0.0,0.0,0.0,0.0,0.0,0.0,0.0,0.0,0.0,0.0,0.0,0.0,0.0,0.0,0.0,0.0,0.0,0.0,0.0,0.0,0.0,0.0,0.0,0.0,0.0,0.0,0.0,0.0,0.0,0.0,0.0,0.0,0.0,0.0,0.0,0.0,0.0,0.0,0.0,0.0,0.0,0.0,0.0,0.0,0.0,0.0,0.0,0.0,0.0,0.0,0.0,0.0,0.0,0.0,0.0,-0.3657,-0.3807,-0.3948,-0.4027,-0.3977,-0.3835,-0.3598,-0.3217,0.0,0.0,0.0,0.0,0.0,0.0,0.0,0.0,0.0,0.0,0.0,0.0,0.0,0.0,0.0,0.0,0.0,0.0,0.0,0.0,0.0,0.0,0.0,0.0,0.0,0.0,0.0,0.2346,0.0,0.0,0.0,0.0,0.0,0.0,0.0,0.0,0.0,0.0,0.0,0.0,0.0,0.0,0.5447,0.5566,0.5978,0.6308,0.0,0.0,0.6583,0.6523,0.6582,0.6494,0.0,0.0,0.0,0.0,0.0,0.0,0.0,0.0,0.0,0.0,0.0,0.0,0.0,0.0,0.0,0.0,0.0,0.0,0.0,0.0,0.0,0.0,0.0,0.0,0.0,0.0,0.0,0.0,0.0,0.0,0.0,0.0,0.0,0.0,0.0,0.0,0.0,0.0,0.0,0.0,0.0,0.0,0.0,0.0,0.0,0.0,0.0,0.0,0.0,0.0,0.0,0.0,0.0,0.0,0.0,-0.3479,-0.379,-0.389,-0.3907,-0.3863,-0.365,-0.3335,-0.2934,-0.244,0.0,0.0,0.0,0.0,0.0,0.0,0.0,0.0,0.0,0.0,0.0,0.0,0.0,0.0,0.0,0.0,0.0,0.0,0.0,0.0,0.0,0.0,0.0,0.0,0.0,0.0,0.0,0.0,0.0,0.0,0.0,0.0,0.0,0.0,0.0,0.0,0.0,0.0,0.0,0.0,0.0,0.5841,0.6256,0.6784,0.7129,0.0,0.0,0.7695,0.7357,0.7322,0.7235,0.6876,0.0,0.0,0.0,0.0,0.0,0.0,0.0,0.0,0.0,0.0,0.0,0.0,0.0,0.0,0.0,0.0,0.0,0.0,0.0,0.0,0.0,0.0,0.0,0.0,0.0,0.0,0.0,0.0,0.0,0.0,0.0,0.0,0.0,0.0,0.0,0.0,0.0,0.0,0.0,0.0,0.0,0.0,0.0,0.0,0.0,0.0,0.0,0.0,0.0,0.0,0.0,0.0,0.0,-0.2907,-0.3426,-0.3535,-0.3622,-0.3643,-0.3535,-0.332,-0.3001,-0.2565,-0.2174,0.0,0.0,0.0,0.0,0.0,0.0,0.0,0.0,0.0,0.0,0.0,0.0,0.0,0.0,0.0,0.0,0.0,0.0,0.0,0.0,0.0,0.0,0.0,0.0,0.0,0.0,0.0,0.0,0.2631,0.2736,0.3088,0.0,0.0,0.0,0.0,0.0,0.0,0.0,0.0,0.0,0.0,0.6688,0.7187,0.7655,0.0,0.0,0.8131,0.8227,0.8099,0.8122,0.8,0.7586,0.7505,0.0,0.0,0.0,0.0,0.0,0.0,0.0,0.0,0.0,0.0,0.0,0.0,0.0,0.0,0.0,0.0,0.0,0.0,0.0,0.0,0.0,0.0,0.0,0.0,0.0,0.0,0.0,0.0,0.0,0.0,0.0,0.0,0.0,0.0,0.0,0.0,0.0,0.0,0.0,0.0,0.0,0.0,0.0,0.0,0.0,0.0,0.0,0.0,0.0,0.0,0.0,0.0,-0.2935,-0.3351,-0.3409,-0.345,-0.3456,-0.3345,-0.3152,-0.2786,-0.2379,-0.1982,0.0,0.0,0.0,0.0,0.0,0.0,0.0,0.0,0.0,0.0,0.0,0.0,0.0,0.0,0.0,0.0,0.0,0.0,0.0,0.0,0.0,0.0,0.0,0.0,0.0,0.0,0.0,0.0,0.3133,0.3373,0.3772,0.0,0.0,0.0,0.0,0.0,0.0,0.0,0.0,0.0,0.0,0.7536,0.8018,0.8491,0.8791,0.8796,0.899,0.9118,0.9113,0.906,0.8867,0.855,0.0,0.0,0.0,0.0,0.0,0.0,0.0,0.0,0.0,0.0,0.0,0.0,0.0,0.0,0.0,0.0,0.0,0.0,0.0,0.0,0.0,0.0,0.0,0.0,0.0,0.0,0.0,0.0,0.0,0.0,0.4437,0.0,0.0,0.0,0.0,0.0,0.0,0.0,0.0,0.0,0.0,0.0,0.0,0.0,0.0,0.0,0.0,0.0,0.0,0.0,0.0,0.0,0.0,-0.299,-0.3202,-0.3431,-0.3492,-0.3305,-0.3359,-0.3162,-0.269,-0.2472,-0.191,-0.0927,0.0,0.0,0.0,0.0,0.0,0.0,0.0,0.0,0.0,0.0,0.0,0.0,0.0,0.0,0.0,0.0,0.0,0.0,0.0,0.0,0.0,0.0,0.0,0.0,0.0,0.0,0.3539,0.4111,0.4463,0.0,0.0,0.0,0.0,0.0,0.0,0.0,0.0,0.0,0.0,0.7823,0.8313,0.8732,0.93,0.9669,0.968,1.0169,1.0542,1.0524,1.018,0.9874,0.0,0.0,0.0,0.0,0.0,0.0,0.0,0.0,0.0,0.0,0.0,0.0,0.0,0.0,0.0,0.0,0.0,0.0,0.0,0.0,0.0,0.0,0.0,0.0,0.0,0.0,0.0,0.5926,0.5672,0.0,0.0,0.0,0.0,0.0,0.0,0.0,0.0,0.0,0.0,0.0,-0.2553,-0.6334,0.0,0.0,0.0,0.0,0.0,0.0,0.0,0.0,0.0,0.0,0.0,0.0,-0.3043,-0.3071,-0.3037,-0.2907,-0.2763,-0.2621,-0.23,-0.1831,-0.1389,-0.0632,0.0376,0.0,0.0,0.0,0.0,0.0,0.0,0.0,0.0,0.0,0.0,0.0,0.0,0.0,0.0,0.0,0.0,0.0,0.0,0.0,0.0,0.0,0.0,0.0,0.0,0.0,0.3709,0.0,0.0,0.0,0.0,0.0,0.0,0.0,0.0,0.0,0.0,0.0,0.7318,0.8169,0.8405,0.8823,0.9672,0.9972,1.0214,0.0,0.0,0.0,0.0,0.0,0.0,0.0,0.0,0.0,0.0,0.0,0.0,0.0,0.0,0.9339,0.7865,0.7701,0.7825,0.7886,0.0,0.0,0.0,0.0,0.0,0.0,0.0,0.0,0.0,0.0,0.0,0.0,0.0,0.0,0.0,0.0,0.7141,0.0,0.0,0.0,0.0,0.0,0.0,0.0,0.0,0.0997,-0.2057,-0.3005,-0.7919,-0.9678,0.0,-0.8044,-0.7034,0.0,0.0,0.0,0.0,0.0,0.0,0.0,0.0,-0.3038,-0.2835,-0.277,-0.2544,-0.2172,-0.1917,-0.1542,-0.104,-0.0233,0.0662,0.1663,0.2067,0.2325,0.0,0.0,0.0,0.0,0.0,0.0,0.0,0.0,0.0,0.0,0.0,0.0,0.0,0.0,0.0,0.0,0.0,0.0,0.0,0.0,0.0,0.0,0.0,0.4562,0.0,0.0,0.0,0.0,0.0,0.0,0.0,0.0,0.0,0.7269,0.7608,0.8112,0.8771,0.9181,0.969,1.037,0.0,0.0,0.0,0.0,0.0,0.0,0.0,1.1547,1.1547,1.1388,1.1265,1.1235,1.1216,1.1192,1.1192,0.0,0.0,0.9239,0.8999,0.9106,0.9168,0.9256,0.9541,1.0222,1.0502,1.0833,0.0,0.0,0.0,0.0,0.0,0.0,0.0,0.0,0.7826,0.8097,0.0,0.8656,0.0,0.0,0.0,0.0,0.0,0.0,0.0,0.0,0.1732,-0.1967,-0.3351,-0.9051,-1.1392,-1.0467,-0.9962,-0.9098,-0.7854,-0.5962,0.0,0.0,0.0,0.0,0.0,0.0,-0.2956,-0.2477,-0.2581,-0.2273,-0.1455,-0.1223,-0.083,-0.0166,0.0972,0.1957,0.2784,0.2826,0.2873,0.2967,0.3194,0.0,0.0,0.0,0.0,0.0,0.0,0.0,0.0,0.0,0.0,0.0,0.0,0.0,0.0,0.0,0.0,0.0,0.0,0.0,0.0,0.5305,0.0,0.0,0.0,0.0,0.0,0.0,0.0,0.0,0.0,0.0,0.7764,0.8483,0.9119,0.9187,0.0,0.0,0.0,0.0,1.2418,1.2449,1.2895,1.3226,1.3214,1.2788,1.2449,1.2456,0.0,0.0,1.1576,1.1516,1.1499,1.1449,1.1523,1.1431,1.1363,1.1234,1.1222,1.1289,1.1354,1.1593,1.1624,1.1693,1.1821,0.8034,0.0,0.0,0.0,0.0,0.8518,0.8782,0.8961,0.9361,0.9407,0.923,0.9675,0.0,0.0,0.0,0.0,0.0,0.0,0.9901,0.8874,0.4406,0.0553,-0.2847,-0.6748,-0.9669,-1.164,-1.1296,-1.0822,-1.0216,-0.946,-0.8049,-0.6017,0.0,0.0,0.0,0.0,-0.2429,-0.167,-0.1172,-0.0596,0.0121,0.0449,0.1022,0.1942,0.2584,0.3208,0.3764,0.371,0.3792,0.4093,0.3855,0.0,0.0,0.0,0.0,0.0,0.0,0.0,0.0,0.0,0.0,0.0,0.0,0.0,0.0,0.0,0.0,0.0,0.0,0.0,0.5408,0.5932,0.6271,0.0,0.0,0.0,0.0,0.0,0.0,0.0,0.0,0.0,0.9747,0.9547,0.9704,0.0,0.0,1.1376,1.2202,1.2554,1.2896,1.3363,0.0,0.0,0.0,1.3425,1.327,1.3257,1.3096,1.2921,1.2869,1.2868,1.2908,1.2829,1.2875,1.2894,1.2837,1.2121,1.159,1.1527,1.1648,1.1895,1.2283,1.2466,1.2626,0.9788,0.896,0.912,0.9333,0.9591,0.9987,1.0309,1.0537,1.0978,1.109,1.1017,1.1478,1.1665,1.1594,1.2066,0.0,0.0,0.0,1.193,1.1029,0.6811,0.2367,-0.2244,-0.6053,-0.9582,-1.2743,-1.2584,-1.2151,-1.1577,-1.1357,-1.0325,-0.8539,0.0,0.0,-0.4898,-0.3411,-0.1948,-0.0587,0.046,0.1273,0.1867,0.2378,0.3036,0.378,0.4194,0.4533,0.4876,0.4857,0.4996,0.5285,0.4896,0.4777,0.0,0.0,0.0,0.0,0.0,0.0,0.0,0.0,0.0,0.0,0.0,0.3965,0.4333,0.0,0.0,0.0,0.5476,0.5853,0.6392,0.6745,0.0,0.0,0.0,0.0,0.0,0.0,0.0,0.9161,0.9931,1.0633,1.106,1.0938,1.1033,1.1662,1.1942,1.2335,1.301,0.0,1.3588,1.3934,1.3974,1.398,1.3947,1.3861,1.3735,1.3769,1.3883,1.3932,1.3891,1.4043,1.4133,1.4127,1.4133,1.4188,1.4182,1.3567,1.2921,1.2463,1.2647,1.3,1.3368,1.3628,1.3961,1.1251,1.1084,1.0917,1.0883,1.0976,1.1363,1.1706,1.1985,1.2419,1.2823,1.3178,1.3629,1.4041,1.4397,1.4897,0.0,1.5623,1.5358,1.4819,1.3969,0.9059,0.3827,-0.1665,-0.617,-1.0313,-1.3983,-1.3805,-1.3278,-1.2449,-1.223,-1.2019,-1.1769,-0.9772,-0.7693,-0.5583,-0.3567,-0.1372,0.1022,0.2417,0.3326,0.3804,0.4531,0.5081,0.5383,0.5712,0.5923,0.6088,0.6243,0.6383,0.6503,0.6146,0.6074,0.6312,0.0,0.0,0.0,0.0,0.0,0.0,0.0,0.0,0.0,0.0,0.0,0.0,0.0,0.0,0.0,0.6488,0.0,0.7637,0.7675,0.0,0.0,0.0,0.8729,0.8791,0.9428,0.9891,1.0039,0.0,0.0,1.1946,0.0,1.2872,1.2779,1.3161,1.3438,1.3479,1.3952,1.4332,1.4287,1.4275,1.4222,1.4229,1.4171,1.4159,1.4219,1.4449,1.4686,1.4745,1.4939,1.5234,1.5234,1.5228,1.5202,1.5228,1.5207,1.5049,1.3863,1.4136,1.4547,1.4553,1.495,1.5336,1.3409,1.3498,1.3679,1.2867,1.146,1.1759,1.2023,1.2319,1.2727,1.3082,1.3432,1.3964,1.4498,1.5078,1.5242,1.5502,1.5741,1.5637,1.5259,1.4497,1.2202,0.6512,-0.1714,-0.351,-0.8286,-1.5258,-1.5018,-1.46,-1.4337,-1.4193,-1.4005,-1.3598,-0.9615,-0.6245,-0.3724,-0.2695,0.0107,0.4752,0.5346,0.5883,0.6378,0.6639,0.6859,0.7106,0.7212,0.7396,0.7547,0.7437,0.7441,0.7607,0.7341,0.7066,0.6854,0.6752,0.0,0.0,0.0,0.0,0.0,0.0,0.0,0.0,0.0,0.5247,0.5634,0.0,0.6103,0.0,0.774,0.8219,0.8418,0.8445,0.0,0.0,0.9171,0.9497,0.9619,1.0535,1.1198,1.1348,1.2023,1.2727,1.3276,1.3457,1.3722,1.4198,1.3892,1.3797,1.4173,1.4342,1.4452,1.4452,1.4458,1.442,1.4488,1.47,1.4991,1.5321,1.5471,1.5561,1.5718,1.566,1.5627,1.5801,1.5609,1.5449,1.5437,1.5449,1.539,1.5104,1.5162,1.526,1.526,1.5415,1.5513,1.4402,1.4598,1.4864,1.4398,1.3487,1.3592,1.3833,1.4115,1.4522,1.4932,1.5358,1.6022,1.6582,1.7083,1.7254,1.7474,1.7766,1.7804,1.7537,1.695,1.5203,1.0198,0.254,-0.103,-0.6454,-1.3398,-1.4921,-1.5613,-1.5555,-1.5077,-1.3885,-1.2018,-0.8971,-0.4687,0.0579,0.1092,0.3244,0.7224,0.7837,0.8239,0.8543,0.8502,0.8546,0.8715,0.8704,0.8781,0.8943,0.8789,0.8757,0.8914,0.8584,0.826,0.8072,0.7938,0.7764,0.0,0.0,0.0,0.0,0.0,0.0,0.0,0.0,0.0,0.0,0.0,0.7138,0.8063,0.8464,0.8822,0.9124,0.9138,0.9279,0.9619,1.0187,1.0593,1.0722,1.1566,1.2162,1.2276,1.2851,1.338,1.3794,1.4104,1.4377,1.479,1.4483,1.4316,1.4578,1.4624,1.4648,1.4624,1.4846,1.5066,1.5301,1.551,1.5719,1.593,1.6133,1.6273,1.6405,1.6432,1.652,1.6625,1.6448,1.6251,1.6251,1.6251,1.6245,1.6245,1.6251,1.6166,1.5951,1.6075,1.6251,1.4906,1.5123,1.5383,1.5676,1.6028,1.5998,1.6089,1.628,1.6628,1.711,1.7707,1.8453,1.9009,1.9328,1.9611,1.9917,2.0233,2.0427,2.0281,1.974,1.7793,1.379,0.7955,0.1123,-0.4886,-1.0123,-1.436,-1.639,-1.6347,-1.4922,-1.2411,-0.8957,-0.7007,-0.2057,0.5601,0.6479,0.7672,0.9464,1.0222,1.0604,1.0668,1.0476,1.0418,1.049,1.0378,1.0301,1.0305,1.0261,1.0223,1.0247,0.9806,0.9544,0.9523,0.9124,0.89,0.0,0.8914,0.0,0.0,0.0,0.0,0.0,0.0,0.0,0.0,0.7995,0.8318,0.8907,0.9021,0.9316,0.9915,0.9962,1.0228,1.0899,1.1429,1.1814,1.1939,1.2539,1.2949,1.3004,1.3571,1.3941,1.405,1.4492,1.4825,1.4902,1.4873,1.4838,1.4818,1.4825,1.4846,1.4931,1.5382,1.5895,1.6333,1.6406,1.6359,1.6475,1.6742,1.6938,1.6926,1.7176,1.7406,1.7371,1.7229,1.7194,1.7199,1.7173,1.7173,1.712,1.7107,1.697,1.6637,1.6794,1.7179,1.6166,1.625,1.6654,1.7022,1.7337,1.7502,1.7143,1.6452,1.6698,1.7279,1.8113,1.8566,1.9034,1.9468,1.9744,2.006,2.0371,2.059,2.0445,2.0083,1.8855,1.4678,0.7977,0.2172,-0.3977,-1.0354,-1.4768,-1.6865,-1.6791,-1.2576,-0.9821,-0.8212,-0.0388,0.5149,0.8229,0.0,0.0,0.0,1.3127,1.332,1.3703,1.3482,1.3318,1.3234,1.3085,0.0,1.1993,1.1875,1.1572,1.1041,1.0893,0.0,0.0,0.0,0.0,0.0,0.0,0.0,0.0,0.0,0.0,0.0,0.8907,0.8746,0.8725,0.9178,0.9574,0.9762,1.0156,1.0681,1.1319,1.1413,1.1693,1.2319,1.2506,1.2595,1.2705,1.322,1.3625,1.3726,1.4246,1.4595,1.4619,1.4769,1.4863,1.4887,1.4935,1.4989,1.4975,1.4951,1.5127,1.5601,1.6135,1.667,1.7142,1.7188,1.7243,1.7568,1.7728,1.7705,1.7558,1.7558,1.7556,1.7446,1.7411,1.7315,1.7205,1.7205,1.7205,1.7205,1.7205,1.7166,1.7075,1.7127,1.724,1.6772,0.0,1.7192,1.757,0.0,1.8075,1.7957,1.7651,1.7725,1.8291,1.9173,1.9602,1.9997,2.0401,2.0736,2.1073,2.1387,2.1663,2.1663,2.1387,2.0215,1.7177,1.2501,0.6306,-0.0226,-0.6953,-1.1448,-1.3593,-1.3425,-1.0379,-0.6288,-0.1325,0.4219,0.8578,1.1816,1.5082,1.6384,1.569,1.5395,1.5284,1.5358,1.5109,1.4891,1.4751,0.0,0.0,0.0,0.0,0.0,0.0,0.0,0.0,0.0,0.0,0.0,1.065,1.0554,1.045,1.0437,1.041,1.0348,1.0257,1.0483,1.0282,0.9514,1.0036,1.0519,1.0862,1.1142,1.1576,1.2221,1.2291,1.2354,1.2513,1.2976,1.3297,1.3311,1.3871,1.4293,1.4359,1.4612,1.4808,1.4808,1.4863,1.4925,1.4949,1.5027,1.5118,1.5118,1.5043,1.531,1.6198,1.6824,1.736,1.7796,1.7859,1.7876,1.8111,1.8075,1.7962,1.7855,1.7794,1.7631,1.7569,1.748,1.7363,1.7302,1.724,1.7205,1.7205,1.7205,1.7205,1.7205,1.7253,1.7302,1.6118,1.724,1.7482,1.7814,1.8268,1.8333,1.8553,1.8912,0.0,0.0,0.0,2.0587,2.099,2.1348,2.1721,2.2081,2.2432,2.2756,2.2842,2.266,2.145,1.9669,1.7272,1.0552,0.4143,-0.1823,-0.6556,-0.8798,-0.8688,-0.6771,-0.1852,0.5431,0.7959,1.1213,1.5449,1.7109,1.7819,1.7744,1.7293,1.6975,1.6799,1.647,1.6245,1.6083,1.5809,1.5562,1.5262,1.5149,1.4673,1.3821,1.376,1.3336,1.2425,1.2295,1.2186,1.2031,1.189,1.1782,1.1681,1.163,1.1578,1.1543,1.2013,1.177,1.0474,1.094,1.1521,1.1996,1.2064,1.2329,1.2955,1.3018,1.2934,1.2718,1.3455,1.3926,1.3884,1.4361,1.478,1.4808,1.4794,1.4808,1.4801,1.4856,1.4949,1.4989,1.5126,1.5244,1.5302,1.5389,1.5823,1.6766,1.7461,1.8033,1.8342,1.8376,1.8319,1.8266,1.8154,1.8035,1.8002,1.7862,1.7713,1.7686,1.7556,1.7487,1.7398,1.7302,1.7253,1.7212,1.724,1.7234,1.724,1.735,1.7446,1.2503,1.7398,1.772,1.8095,1.8475,1.8581,1.8851,1.925,1.9354,1.9675,2.015,2.0587,2.1015,2.1425,2.1735,2.211,2.2496,2.2764,2.2885,0.0,2.2139,2.0537,1.7968,1.1872,0.7289,0.3957,-0.1209,-0.3729,-0.3239,0.0911,0.4489,0.7054,1.1871,1.5756,1.8261,1.9186,1.9649,1.9828,1.8911,1.8631,1.9013,1.8807,1.8567,1.8262,1.8024,1.7561,1.6743,1.6584,1.6099,1.5271,1.5101,1.4631,1.3777,1.3654,1.3275,1.2569,1.2384,1.222,1.2056,1.1953,1.2066,1.2411,1.291,1.2809,1.1925,1.2476,1.2913,1.2999,1.2979,1.3236,1.3827,1.3863,1.4003,1.4461,1.4598,1.4637,1.4588,1.471,1.4808,1.4808,1.4808,1.4808,1.4808,1.4911,1.4982,1.5013,1.5228,1.5345,1.5584,1.6163,1.6925,1.7441,1.8092,1.8493,1.8496,1.8478,1.8418,1.8319,1.8221,1.8142,1.8042,1.7942,1.7835,1.7713,1.7679,1.7597,1.7543,1.7432,1.7391,1.7356,1.7356,1.7363,1.7356,1.7522,1.7631,0.9924,1.2955,1.6465,1.8175,1.8528,1.8889,1.9221,1.9508,1.969,1.994,2.022,2.0646,2.1031,2.1355,2.17,2.2023,2.2341,2.2659,2.2799,2.2747,2.2395,2.1022,1.8667,1.5379,1.1113,0.6236,0.3392,0.2001,0.2291,0.472,0.7778,1.1302,1.5025,1.7539,1.8936,1.9548,1.999,2.0229,1.9797,1.9648,1.9812,1.9618,1.9387,1.9124,1.8937,1.8609,1.811,1.7956,1.7473,1.6583,1.6447,1.598,1.5095,1.4957,1.4716,1.4256,1.4034,1.3836,1.3685,1.3413,1.3291,1.3374,1.3896,1.4034,1.3556,1.3382,1.3433,1.3696,1.3739,1.3969,1.4535,1.4554,1.4623,1.4864,1.4866,1.4839,1.4811,1.4794,1.4808,1.4808,1.4808,1.4808,1.4808,1.4887,1.4966,1.5027,1.5401,1.5958,1.6534,1.7217,1.7676,1.7654,1.8229,1.8602,1.8517,1.8485,1.8471,1.8418,1.8307,1.8196,1.8095,1.7989,1.7875,1.7794,1.7767,1.7686,1.7625,1.7543,1.7461,1.7461,1.7461,1.7467,1.7502,1.7625,1.7794,0.7147,0.9085,1.5314,1.8182,1.8588,1.9123,1.945,1.969,1.9919,2.0131,2.0381,2.0745,2.1031,2.1317,2.1639,2.1953,2.2212,2.2516,2.2712,2.2729,2.2545,2.1465,1.9665,1.8448,1.4775,0.9504,0.8274,0.7892,0.7986,0.8403,1.0953,1.5317,1.7132,1.8277,1.9024,1.9535,1.9936,2.0176,2.0286,2.0269,2.0166,2.0004,1.9819,1.9628,1.9475,1.9297,1.9157,1.9039,1.8597,1.7894,1.7754,1.7268,1.6387,1.6237,1.6049,1.5735,1.5488,1.5267,1.5057,1.4951,1.4718,1.4364,1.4874,1.5148,1.4982,1.4401,1.4121,1.4435,1.4493,1.4667,1.5005,1.5059,1.5029,1.4925,1.4907,1.4925,1.4849,1.4818,1.4794,1.4801,1.4808,1.4808,1.4808,1.4878,1.502,1.5298,1.5823,1.6646,1.7576,1.8094,1.8209,1.8105,1.8403,1.8686,1.8549,1.8485,1.8485,1.8485,1.8354,1.8235,1.8149,1.8036,1.7922,1.7875,1.7801,1.7767,1.772,1.7625,1.7577,1.757,1.7577,1.7564,1.7611,1.7788,1.7909,0.3068,0.9059,1.4931,1.8202,1.8711,1.9191,1.9457,1.9647,1.9955,2.0193,2.0415,2.0738,2.1071,2.134,2.1631,2.1945,2.2229,2.2479,2.272,2.2833,2.2729,2.2081,2.088,1.9386,1.7653,1.552,1.4207,1.3424,1.3382,1.394,1.5255,1.6995,1.7811,1.8469,1.9075,1.9493,1.9873,2.0194,2.0313,2.0384,2.0369,2.0284,2.0185,2.0058,1.9914,1.9773,1.9638,1.9494,1.934,1.9139,1.8975,1.85,1.7664,1.7423,1.6967,1.6159,1.5939,1.5646,1.5301,1.611,1.6233,1.5505,1.5763,1.6021,1.5953,1.5829,1.561,1.5432,1.5374,1.5338,1.5337,1.5306,1.5245,1.5215,1.5065,1.4966,1.4985,1.4909,1.4871,1.4794,1.4808,1.4808,1.4808,1.4913,1.5247,1.5974,1.6305,1.6821,1.7784,1.8484,1.8831,1.865,1.8748,1.8669,1.8549,1.8485,1.8485,1.8485,1.8372,1.8293,1.8182,1.8095,1.7955,1.7902,1.7889,1.7889,1.7848,1.7801,1.7672,1.7706,1.7713,1.772,1.7835,1.7942,1.8002,-0.4988,-0.1508,0.826,1.4912,1.8534,1.9183,1.9494,1.9741,2.008,2.0331,2.0475,2.0778,2.1071,2.1325,2.1617,2.1857,2.211,2.2388,2.2632,2.279,2.2799,2.2272,2.1241,1.9934,1.8535,1.7179,1.5993,1.5367,1.5441,1.5905,1.6666,1.7484,1.804,1.855,1.9095,1.9453,1.9781,2.0069,2.0257,2.0369,2.0389,2.0381,2.0342,2.0276,2.0137,2.0039,1.9945,1.9848,1.9724,1.9598,1.9503,1.9249,1.8792,1.8672,1.842,1.789,1.7558,1.7205,1.6843,1.7101,1.701,1.6441,1.6467,1.6498,1.6297,1.6254,1.6108,1.589,1.5762,1.5646,1.5522,1.5433,1.5344,1.5284,1.5186,1.5102,1.5018,1.497,1.4871,1.4808,1.4808,1.4815,1.4871,1.5209,1.5896,1.6785,1.7114,1.742,1.8352,1.886,1.893,1.88,1.8769,1.8721,1.8556,1.8485,1.8485,1.8471,1.8372,1.8286,1.8247,1.8128,1.7995,1.7962,1.7942,1.7922,1.7929,1.7882,1.7794,1.7828,1.7855,1.7888,1.7922,1.8082,1.8154,-1.0345,-0.8144,0.3484,1.2602,1.8664,1.9146,1.9487,1.9777,2.0096,2.0331,2.0494,2.0745,2.0999,2.1285,2.1542,2.1789,2.1998,2.2287,2.2569,2.2703,2.2825,2.2496,2.1738,2.0399,1.9212,1.8121,1.6815,1.6157,1.6204,1.6714,1.7288,1.7774,1.8162,1.8618,1.9106,1.9425,1.9695,1.9962,2.0155,2.0276,2.0357,2.0382,2.0416,2.0406,2.0322,2.0247,2.0186,2.0109,2.004,1.9916,1.9842,1.9762,1.9651,1.9553,1.941,1.9153,1.878,1.8413,1.8106,1.7802,1.7509,1.7215,1.7002,1.6823,1.6588,1.6498,1.639,1.6226,1.6039,1.5856,1.5683,1.558,1.547,1.5352,1.5277,1.5193,1.5095,1.5011,1.4963,1.4825,1.4839,1.4893,1.5103,1.5663,1.6485,1.7391,1.7583,1.7934,1.8777,1.9033,1.9019,1.8874,1.8836,1.8721,1.8556,1.8485,1.8485,1.8471,1.8418,1.8365,1.8319,1.8161,1.8035,1.7995,1.7935,1.7916,1.7922,1.7922,1.7909,1.7942,1.7962,1.8035,1.8049,1.8201,1.8279,-1.0546,-0.8408,0.3651,1.2324,1.8447,1.9064,1.942,1.9647,1.9975,2.0227,2.0415,2.0669,2.0933,2.1215,2.1458,2.1708,2.1928,2.2209,2.2479,2.2756,2.2816,2.2842,2.2795,2.1067,1.9968,1.9321,1.7627,1.6868,1.6934,1.724,1.7591,1.7975,1.8327,1.8726,1.9157,1.9381,1.9641,1.9888,2.0021,2.0187,2.0296,2.0366,2.0423,2.0475,2.0475,2.0431,2.038,2.0331,2.0254,2.0181,2.0116,2.0049,1.9973,1.9836,1.9626,1.932,1.9043,1.8789,1.8548,1.8194,1.7884,1.7679,1.7376,1.7117,1.6901,1.6738,1.6596,1.6466,1.6309,1.6103,1.5856,1.5762,1.5639,1.5441,1.5411,1.5314,1.5208,1.517,1.5086,1.5006,1.5043,1.534,1.5665,1.6248,1.6944,1.7553,1.7624,1.7933,1.8726,1.9048,1.904,1.8972,1.8882,1.8714,1.8549,1.8478,1.8478,1.8478,1.8471,1.8425,1.8372,1.8273,1.8147,1.8068,1.8049,1.7989,1.7963,1.7916,1.7942,1.7975,1.8009,1.8082,1.8168,1.824,1.8319,-1.4074,-0.9309,-0.0611,0.6779,1.2925,1.7246,1.9332,1.9611,1.9919,2.0123,2.0346,2.052,2.0794,2.1135,2.1333,2.1587,2.189,2.2135,2.2424,2.2712,2.2808,2.2944,2.287,2.1255,2.0298,1.979,1.8177,1.7288,1.7344,1.7597,1.7883,1.817,1.8484,1.8798,1.9106,1.9331,1.9545,1.9769,1.9931,2.0088,2.0163,2.0236,2.0316,2.0437,2.0474,2.0492,2.0476,2.0437,2.0391,2.0337,2.0305,2.0273,2.0186,2.0021,1.9842,1.9635,1.9411,1.9188,1.8919,1.8589,1.8307,1.8086,1.7769,1.7471,1.7248,1.7085,1.6925,1.672,1.6615,1.6402,1.6136,1.5934,1.5777,1.5675,1.5514,1.5395,1.5283,1.5229,1.5298,1.5567,1.5959,1.6452,1.6824,1.7285,1.7704,1.8214,1.8295,1.8514,1.8819,1.9048,1.9078,1.9024,1.8941,1.8865,1.8673,1.8549,1.851,1.8478,1.8478,1.8478,1.8425,1.8365,1.8233,1.8194,1.8168,1.8102,1.8076,1.8076,1.8062,1.8102,1.8135,1.8154,1.824,1.8365,1.845,-1.5988,-0.9474,-0.305,0.3388,0.9829,1.6251,1.9176,1.9531,1.9777,2.0025,2.022,2.0399,2.0703,2.1103,2.1254,2.154,2.192,2.2081,2.2315,2.2667,2.2816,2.2936,2.2868,2.1668,2.0755,2.0125,1.8464,1.7595,1.7656,1.7861,1.81,1.8348,1.8565,1.8816,1.9075,1.9259,1.9434,1.9621,1.9814,1.9947,2.0022,2.0104,2.018,2.0291,2.037,2.0423,2.0466,2.0498,2.0482,2.0441,2.0435,2.0395,2.0332,2.0178,2.0047,1.9925,1.9731,1.9529,1.9273,1.8977,1.8699,1.8491,1.8187,1.7883,1.7625,1.7432,1.7216,1.7002,1.6825,1.6725,1.6753,1.6545,1.6205,1.5925,1.581,1.5756,1.5693,1.5852,1.6062,1.6383,1.6875,1.7384,1.7741,1.802,1.8327,1.8707,1.8755,1.8838,1.8965,1.9048,1.9108,1.9048,1.9024,1.8948,1.8803,1.8673,1.8549,1.851,1.8485,1.8485,1.8478,1.8411,1.8358,1.8319,1.8286,1.8221,1.8228,1.8189,1.8189,1.8228,1.8247,1.8266,1.8358,1.8503,1.8581,-1.5996,-0.9924,-0.3185,0.2929,0.8984,1.5853,1.8981,1.9332,1.9617,1.9869,2.0115,2.0312,2.0644,2.1063,2.1269,2.1584,2.194,2.2007,2.2243,2.2614,2.2747,2.2919,2.3025,2.2194,2.1243,2.0365,1.8665,1.7842,1.7883,1.804,1.8201,1.8385,1.8545,1.8762,1.9096,1.9173,1.9301,1.9485,1.9653,1.9778,1.9883,1.9971,2.0031,2.0086,2.0167,2.025,2.0384,2.0448,2.0498,2.0475,2.0478,2.0453,2.0399,2.0332,2.0272,2.0185,2.0021,1.9832,1.961,1.9368,1.9118,1.8877,1.8576,1.827,1.8023,1.7845,1.7666,1.7452,1.7313,1.7269,1.7674,1.7605,1.7093,1.6111,1.6443,1.6628,1.6588,1.6994,1.7308,1.7226,1.7618,1.7913,1.8028,1.8371,1.8729,1.8793,1.892,1.8972,1.9017,1.9085,1.9108,1.9071,1.9048,1.8979,1.891,1.8841,1.8673,1.8549,1.8517,1.8485,1.8485,1.8425,1.8411,1.8365,1.8365,1.834,1.8307,1.8307,1.83,1.8293,1.8312,1.8351,1.8496,1.8595,1.8673,-1.8368,-1.5085,-0.4917,0.0693,0.43,1.4233,1.8981,1.931,1.9523,1.9784,2.0033,2.0235,2.0553,2.0942,2.1198,2.1532,2.1911,2.2007,2.2243,2.2615,2.2773,2.2936,2.2961,2.2353,2.1162,1.9745,1.8536,1.7974,1.8031,1.8129,1.8246,1.8397,1.8584,1.877,1.8958,1.9075,1.9193,1.9365,1.9499,1.9613,1.9707,1.98,1.987,1.99,1.9992,2.0078,2.0136,2.0332,2.0423,2.0435,2.0433,2.0441,2.0458,2.0453,2.0418,2.0337,2.0244,2.0081,1.9905,1.9715,1.9499,1.9255,1.8945,1.8653,1.8511,1.8702,1.8697,1.8503,1.8676,1.8907,1.8755,1.8623,1.8224,1.7608,1.7515,1.7487,1.7439,1.7755,1.7949,1.7996,1.8412,1.8649,1.8677,1.8921,1.8936,1.892,1.9003,1.9078,1.9078,1.9078,1.9108,1.9108,1.9078,1.9048,1.8979,1.891,1.8827,1.8697,1.8627,1.8556,1.8517,1.8517,1.8464,1.8457,1.8418,1.8418,1.8386,1.8386,1.8379,1.8425,1.8425,1.851,1.8595,1.868,1.8764,-1.961,-1.7842,-0.5863,-0.0423,0.1432,1.3374,1.8874,1.9213,1.9428,1.9676,1.999,2.0158,2.0486,2.0901,2.1183,2.154,2.1911,2.2052,2.2251,2.2597,2.2764,2.2936,2.2959,2.2042,2.1064,1.9812,1.8646,1.813,1.8134,1.8218,1.8304,1.8406,1.8563,1.8687,1.8843,1.8957,1.9084,1.9198,1.9314,1.9427,1.9509,1.9596,1.9653,1.9692,1.9795,1.9862,1.9899,2.0086,2.0222,2.0317,2.0347,2.0392,2.0457,2.0487,2.0493,2.0438,2.0363,2.0265,2.011,1.9984,1.9807,1.9569,1.954,1.9446,1.938,1.9719,1.9865,1.9717,1.9762,1.9931,1.9816,1.9674,1.9511,1.9413,1.881,1.8503,1.85,1.8656,1.8751,1.8782,1.8965,1.9102,1.9123,1.9078,1.9071,1.904,1.9078,1.9108,1.9108,1.9108,1.9108,1.9108,1.9108,1.9078,1.9048,1.9017,1.8941,1.8858,1.8728,1.8666,1.8588,1.8595,1.8595,1.851,1.8471,1.8471,1.8439,1.8439,1.8478,1.8524,1.8556,1.8602,1.868,1.8803,1.8879,-1.9632,-1.7793,-0.6012,-0.054,0.1433,1.3231,1.8736,1.9108,1.9347,1.9632,1.9955,2.0073,2.0376,2.0844,2.1151,2.1509,2.1957,2.2098,2.2265,2.2479,2.2685,2.2902,2.2935,2.1705,2.0868,2.0385,1.9013,1.8279,1.8181,1.8244,1.8336,1.8383,1.8445,1.8554,1.8687,1.8824,1.8905,1.8992,1.9128,1.9216,1.9265,1.9359,1.9423,1.9481,1.9549,1.9612,1.9663,1.9767,1.9933,2.0148,2.0257,2.0306,2.0384,2.0451,2.0488,2.0458,2.0428,2.0383,2.0303,2.0354,2.0221,2.006,2.0446,2.0619,2.0509,2.085,2.1081,2.0802,2.0729,2.0704,2.091,2.0794,2.0795,2.0932,2.001,1.9518,1.9662,1.9609,1.9456,1.9369,1.9325,1.9295,1.9302,1.9176,1.9146,1.9153,1.9153,1.9146,1.9146,1.9146,1.9108,1.9108,1.9108,1.9108,1.9078,1.904,1.901,1.8965,1.8882,1.8805,1.8704,1.8673,1.8634,1.8556,1.8517,1.8517,1.8478,1.8478,1.8517,1.8549,1.8595,1.868,1.8764,1.8879,1.8948,-1.9625,-1.8017,-0.6025,-0.0577,0.1626,1.3203,1.8736,1.9101,1.9302,1.9552,1.9841,2.003,2.0273,2.0613,2.099,2.134,2.1678,2.1915,2.2106,2.2358,2.2614,2.2885,2.2828,2.1648,2.0846,2.0494,1.9156,1.8244,1.8151,1.8236,1.8265,1.8248,1.8363,1.8434,1.8505,1.8612,1.8715,1.877,1.8914,1.901,1.9076,1.9135,1.9173,1.9209,1.9316,1.9385,1.9414,1.9522,1.9722,2.0021,2.0115,2.0188,2.025,2.0303,2.0366,2.0401,2.0452,2.0477,2.0567,2.091,2.1084,2.1051,2.1555,2.1847,2.1658,2.2061,2.2184,2.2082,2.215,2.2225,2.2071,2.1815,2.1611,2.122,2.0598,2.0102,1.9969,1.9833,1.9697,1.961,1.9567,1.9487,1.9406,1.9332,1.931,1.931,1.9265,1.9228,1.9228,1.9153,1.9146,1.9108,1.9108,1.9108,1.9108,1.9071,1.9071,1.9078,1.9026,1.8943,1.8805,1.875,1.8711,1.8627,1.8581,1.8542,1.851,1.851,1.8549,1.862,1.8673,1.8764,1.8879,1.9001,1.9024,-1.9661,-1.8396,-0.6034,-0.0611,0.1424,1.3264,1.8774,1.9108,1.9302,1.9552,1.9805,1.9975,2.022,2.0486,2.086,2.1206,2.1526,2.1781,2.204,2.2265,2.2624,2.2952,2.2876,2.1949,2.1225,2.0635,1.9404,1.8599,1.8194,1.8164,1.8181,1.8172,1.8239,1.8289,1.8322,1.8408,1.848,1.8556,1.8686,1.8788,1.8824,1.8878,1.894,1.8974,1.9075,1.9159,1.9205,1.9289,1.9481,1.9786,1.9928,2.0001,2.0078,2.0152,2.0234,2.0308,2.0406,2.0591,2.1035,2.1465,2.1784,2.2088,2.2651,2.2877,2.2903,2.321,2.341,2.3244,2.3307,2.3156,2.2866,2.2501,2.2076,2.1645,2.1142,2.0681,2.0334,2.0177,2.003,1.9897,1.9805,1.9705,1.9589,1.9523,1.9494,1.9465,1.9376,1.9339,1.931,1.9228,1.9146,1.9146,1.9108,1.9108,1.9108,1.9108,1.9071,1.9108,1.9108,1.9019,1.892,1.8819,1.8774,1.8728,1.8651,1.8613,1.8613,1.8613,1.8651,1.8728,1.8788,1.8879,1.8955,1.9024,1.9055,-1.9712,-1.852,-0.6017,-0.0608,0.1642,1.3091,1.8812,1.9101,1.9295,1.9516,1.9769,1.9935,2.008,2.0376,2.0687,2.1031,2.1386,2.17,2.2003,2.2304,2.2659,2.3011,2.3126,2.2445,2.1582,2.0767,1.9847,1.8897,1.8246,1.8027,1.8027,1.8018,1.8061,1.81,1.8143,1.8213,1.8266,1.8307,1.8437,1.8533,1.8552,1.8612,1.8651,1.8724,1.8815,1.8923,1.8993,1.9069,1.9196,1.9499,1.9669,1.9781,1.9856,1.9984,2.0215,2.0403,2.0607,2.0982,2.1757,2.209,2.2389,2.3023,2.3671,2.4005,2.3976,2.4224,2.4332,2.4109,2.3923,2.3601,2.3227,2.2816,2.2428,2.2056,2.1718,2.126,2.0803,2.0587,2.0452,2.0185,2.0088,1.9983,1.9841,1.9741,1.964,1.9683,1.9596,1.9479,1.9413,1.9339,1.9258,1.9176,1.9146,1.9146,1.9108,1.9108,1.9108,1.9108,1.9108,1.9071,1.8995,1.8927,1.8843,1.8798,1.876,1.8753,1.8745,1.8745,1.8791,1.8843,1.8865,1.8948,1.9024,1.9048,1.9078,-1.9617,-1.841,-0.6046,-0.0649,0.1727,1.2871,1.8676,1.9101,1.925,1.9457,1.964,1.9784,1.9912,2.0088,2.046,2.0786,2.1183,2.1534,2.1932,2.246,2.2685,2.297,2.3043,2.2546,2.1719,2.0793,1.9839,1.8901,1.818,1.7914,1.7869,1.7794,1.7816,1.7856,1.7878,1.7949,1.8014,1.8074,1.8159,1.8234,1.8275,1.8299,1.8342,1.8419,1.8524,1.862,1.8706,1.8807,1.8896,1.9022,1.932,1.962,1.9663,1.9818,2.0257,2.0861,2.1182,2.1668,2.2546,2.3237,2.3799,2.4001,2.4584,2.512,2.4957,2.4846,2.4799,2.4591,2.4274,2.3886,2.341,2.3026,2.273,2.2419,2.2153,2.1836,2.1479,2.1071,2.0745,2.052,2.0384,2.0281,2.0065,2.0038,1.994,1.9919,1.9777,1.9654,1.9552,1.9487,1.9369,1.925,1.9213,1.9183,1.9146,1.9146,1.9108,1.9108,1.9108,1.9108,1.904,1.9003,1.895,1.8912,1.8836,1.8867,1.886,1.8822,1.8836,1.8927,1.8979,1.901,1.9048,1.9071,1.9108,-1.9596,-1.8075,-0.6037,-0.0613,0.1705,1.286,1.8637,1.9004,1.9183,1.931,1.9501,1.9632,1.9769,1.9876,2.0212,2.053,2.0942,2.1442,2.1886,2.2307,2.2588,2.2885,2.306,2.2741,2.2053,2.0925,2.0225,1.9218,1.8225,1.7811,1.7695,1.761,1.7604,1.7604,1.7604,1.7673,1.7741,1.7763,1.7861,1.7927,1.7962,1.8027,1.8112,1.8192,1.8284,1.8336,1.841,1.8489,1.8778,1.9125,1.9453,1.9577,1.9591,1.9944,2.0534,2.1058,2.1789,2.2435,2.334,2.3917,2.4415,2.4873,2.5336,2.5415,2.5391,2.5226,2.5046,2.4847,2.4572,2.422,2.3696,2.3341,2.3074,2.2833,2.2589,2.2318,2.2007,2.1532,2.1111,2.0885,2.0786,2.062,2.0478,2.0342,2.0212,2.0158,2.0018,1.9861,1.9661,1.9596,1.9487,1.9376,1.9295,1.9258,1.9213,1.9176,1.9108,1.9108,1.9108,1.9108,1.9071,1.9071,1.9033,1.8988,1.895,1.8981,1.8974,1.8943,1.895,1.8995,1.9033,1.9071,1.9071,1.9101,1.9108,-1.9581,-1.8322,-0.5986,-0.0614,0.1641,1.2962,1.8644,1.8945,1.9056,1.9191,1.9347,1.9509,1.9596,1.9718,2.0023,2.0326,2.0755,2.1285,2.1781,2.2113,2.248,2.2747,2.2935,2.2893,2.2379,2.1043,2.0541,1.9548,1.8387,1.7731,1.7542,1.7455,1.7401,1.7377,1.7361,1.7384,1.7432,1.7471,1.7532,1.7602,1.7656,1.7741,1.7881,1.8225,1.85,1.8579,1.8676,1.8784,1.9,1.9655,1.9911,1.9827,1.9878,2.0308,2.1044,2.1351,2.231,2.3177,2.3982,2.4394,2.4801,2.5562,2.5593,2.5564,2.5492,2.5395,2.5235,2.5034,2.4785,2.4467,2.4087,2.3735,2.3473,2.3259,2.301,2.2773,2.2489,2.2032,2.1648,2.1294,2.1151,2.1023,2.0827,2.0662,2.0527,2.0357,2.0212,2.0073,1.9904,1.9733,1.9632,1.9552,1.9472,1.9369,1.9295,1.9221,1.9191,1.9153,1.9146,1.9108,1.9108,1.9071,1.9071,1.9071,1.9071,1.9064,1.9094,1.9094,1.9101,1.9131,1.9139,1.9228,1.9183,1.9139,1.9139,-1.9581,-1.8381,-0.605,-0.0729,0.1436,1.2862,1.826,1.8815,1.8965,1.9048,1.9176,1.9347,1.9413,1.9552,1.9848,2.0315,2.0795,2.123,2.1587,2.1949,2.2307,2.258,2.2868,2.2969,2.2529,2.1712,2.0928,1.9838,1.8682,1.7868,1.7484,1.7306,1.7232,1.7183,1.7101,1.7093,1.7109,1.7183,1.7265,1.7371,1.7451,1.7615,1.7936,1.8509,1.8985,1.9319,1.9528,1.9718,1.9975,2.0181,2.0371,2.0543,2.0807,2.1225,2.1864,2.253,2.3098,2.3834,2.4615,2.5038,2.5272,2.5537,2.5608,2.5609,2.5564,2.5514,2.5372,2.5182,2.4915,2.4584,2.4292,2.404,2.3807,2.3571,2.3344,2.3109,2.2833,2.2535,2.2183,2.1768,2.1587,2.1388,2.1159,2.0966,2.0827,2.0654,2.0478,2.0315,2.0193,2.0025,1.9848,1.9769,1.9646,1.9508,1.9413,1.9339,1.9272,1.9228,1.9228,1.9139,1.9139,1.9108,1.9108,1.916,1.9153,1.9146,1.9146,1.9213,1.9221,1.9258,1.9302,1.9347,1.9302,1.9258,1.9302,-1.9581,-1.8409,-0.9389,-0.3571,0.0814,0.9305,1.547,1.8444,1.8711,1.8819,1.895,1.9116,1.9272,1.942,1.9697,2.0177,2.0728,2.1079,2.1402,2.1768,2.2101,2.2409,2.2756,2.2876,2.2769,2.2256,2.144,2.0207,1.8881,1.8269,1.7642,1.71,1.6967,1.6882,1.6823,1.6789,1.6839,1.693,1.7213,1.7466,1.7669,1.7938,1.8506,1.8897,1.9297,1.9568,1.9674,1.9874,2.0204,2.0586,2.0856,2.1309,2.1826,2.2246,2.2631,2.3086,2.3668,2.4285,2.4905,2.5215,2.5403,2.5517,2.5583,2.5624,2.5627,2.5585,2.5473,2.5245,2.5053,2.4755,2.4533,2.4311,2.4079,2.386,2.3628,2.3399,2.319,2.2995,2.2642,2.2243,2.1978,2.1721,2.145,2.1254,2.1111,2.095,2.0712,2.0587,2.0433,2.027,2.0103,1.9947,1.9826,1.9654,1.9523,1.945,1.9376,1.9376,1.9302,1.9221,1.9199,1.9161,1.9265,1.9332,1.9287,1.928,1.9265,1.9339,1.9347,1.9347,1.9384,1.942,1.9428,1.9391,1.9465,-1.9552,-1.8796,-1.1282,-0.5239,0.0194,0.7677,1.3779,1.776,1.8524,1.8627,1.876,1.8896,1.9093,1.9295,1.9617,2.0045,2.0626,2.0868,2.1151,2.1534,2.1869,2.2206,2.2526,2.2747,2.2824,2.2744,2.2185,2.0883,1.9639,1.8909,1.8081,1.7442,1.6976,1.6812,1.6822,1.6839,1.6752,1.7082,1.7424,1.786,1.8163,1.8743,1.923,1.9352,1.9581,1.9805,1.9935,2.0221,2.0602,2.1021,2.1405,2.1867,2.2686,2.3084,2.3155,2.3212,2.395,2.4504,2.4855,2.5115,2.5321,2.5464,2.5554,2.5631,2.5662,2.5619,2.5496,2.5274,2.5113,2.4947,2.4755,2.4524,2.431,2.4108,2.3901,2.3719,2.3495,2.3295,2.3052,2.2721,2.2383,2.2076,2.1811,2.1587,2.1448,2.1246,2.1015,2.0811,2.0662,2.0517,2.0354,2.0131,1.9975,1.9769,1.9625,1.956,1.9516,1.9516,1.9406,1.9332,1.9273,1.9251,1.9369,1.9494,1.9538,1.9531,1.9479,1.9465,1.9457,1.9487,1.9487,1.9531,1.964,1.964,1.9676,-1.9538,-1.8409,-0.6953,-0.143,0.0902,1.1369,1.7023,1.8066,1.84,1.8602,1.8697,1.8805,1.8934,1.9116,1.9516,1.9947,2.0304,2.0535,2.0811,2.1238,2.1579,2.1986,2.2371,2.2632,2.2782,2.2816,2.2626,2.1935,2.0752,1.9752,1.8741,1.7876,1.7547,1.7387,1.7228,1.7157,1.7452,1.7899,1.8076,1.8253,1.8507,1.9186,1.9507,1.9838,2.028,2.0678,2.0667,2.0912,2.1294,2.1486,2.1831,2.2188,2.2624,2.2885,2.3221,2.3556,2.4022,2.4425,2.4712,2.4975,2.5214,2.5395,2.5525,2.5616,2.5643,2.5632,2.5523,2.54,2.5244,2.5113,2.4957,2.4755,2.4575,2.4364,2.4164,2.397,2.3783,2.3562,2.3324,2.3126,2.2799,2.2465,2.2161,2.1978,2.1781,2.1556,2.1317,2.1079,2.0885,2.0711,2.0517,2.0296,2.0123,1.9947,1.9805,1.9733,1.9705,1.9654,1.9589,1.9479,1.9464,1.9486,1.9523,1.9633,1.9684,1.9684,1.9618,1.9567,1.9596,1.9632,1.9669,1.9777,1.9927,1.9927,1.9856,-1.9465,-1.8584,-0.9776,-0.3957,0.0197,0.8974,1.482,1.7611,1.8142,1.8326,1.8496,1.8651,1.8889,1.916,1.945,1.9718,1.9987,2.0231,2.0538,2.0909,2.1293,2.1653,2.2044,2.2371,2.2597,2.2712,2.2651,2.2398,2.1495,2.0539,1.9455,1.844,1.8083,1.7882,1.7693,1.7585,1.7659,1.7955,1.8368,1.8877,1.9329,1.9713,2.0017,2.005,2.0512,2.073,2.086,2.1127,2.1348,2.1495,2.1721,2.2036,2.2345,2.2677,2.2985,2.3394,2.3804,2.4183,2.454,2.4855,2.5107,2.5312,2.5463,2.556,2.561,2.5617,2.5557,2.5459,2.5366,2.5263,2.512,2.4934,2.4764,2.4584,2.4391,2.422,2.4028,2.3795,2.3589,2.3403,2.3208,2.2875,2.2545,2.2301,2.2064,2.1789,2.1556,2.1348,2.1079,2.086,2.0662,2.0426,2.0296,2.0131,2.0018,1.9904,1.9891,1.9884,1.9848,1.9777,1.9769,1.9777,1.9756,1.9807,1.9893,1.985,1.9748,1.9741,1.9812,1.9848,1.9884,1.999,2.0068,2.0005,1.9962,-1.9428,-1.8657,-1.1035,-0.5079,-0.0158,0.7412,1.3524,1.7484,1.7888,1.8035,1.8247,1.8496,1.8805,1.9071,1.9221,1.9391,1.9688,1.9972,2.025,2.0556,2.0958,2.1378,2.1764,2.213,2.2426,2.2623,2.2659,2.2448,2.1986,2.1217,2.0186,1.9023,1.8718,1.8445,1.8237,1.8097,1.8096,1.8343,1.8811,1.9286,1.9753,1.9957,2.0065,2.017,2.0281,2.0399,2.0452,2.0802,2.1063,2.1238,2.1526,2.184,2.2133,2.2472,2.2825,2.323,2.3589,2.3932,2.4345,2.4706,2.5003,2.5224,2.543,2.558,2.5619,2.5618,2.559,2.5521,2.5464,2.5368,2.5242,2.5068,2.4902,2.4746,2.4591,2.4426,2.4247,2.4028,2.3816,2.3611,2.3426,2.3241,2.2935,2.2634,2.2364,2.2073,2.1827,2.1565,2.1309,2.1047,2.0852,2.0654,2.0509,2.0415,2.0304,2.0193,2.0173,2.0076,2.0068,2.0025,1.9975,1.9947,1.9919,2.0013,2.0099,2.0126,2.0025,2.0025,2.0025,2.0061,2.0096,2.0131,2.0173,2.0103,2.0138,-1.9428,-1.8402,-0.6747,-0.1684,-0.016,1.1799,1.6914,1.7432,1.7645,1.7834,1.8042,1.824,1.8475,1.8662,1.8867,1.9064,1.945,1.9646,1.9909,2.0285,2.0689,2.1079,2.1485,2.1874,2.2234,2.2489,2.2552,2.2436,2.2172,2.1736,2.0836,1.9937,1.9428,1.9071,1.8786,1.8604,1.8652,1.889,1.9206,1.9309,1.9545,1.9647,1.9705,1.9762,1.9912,2.0061,2.0135,2.0494,2.081,2.0942,2.1309,2.1656,2.1936,2.2287,2.2651,2.3035,2.3376,2.3717,2.4118,2.4515,2.4842,2.512,2.5387,2.56,2.5646,2.5683,2.5646,2.5592,2.5543,2.5466,2.5349,2.5194,2.5024,2.4902,2.477,2.461,2.4436,2.4238,2.401,2.3807,2.3633,2.3449,2.3265,2.296,2.2633,2.2315,2.1978,2.1721,2.1487,2.1238,2.1087,2.0925,2.0785,2.0693,2.0626,2.0559,2.0388,2.0312,2.0277,2.0193,2.0108,2.0108,2.0123,2.0158,2.0235,2.0304,2.0346,2.027,2.027,2.027,2.0312,2.0339,2.0373,2.0381,2.0407,-1.9428,-1.8249,-0.6248,-0.1139,-0.016,1.1949,1.7135,1.7135,1.7227,1.7557,1.7942,1.8088,1.8286,1.8489,1.8574,1.8812,1.9168,1.9369,1.961,1.9925,2.0326,2.0689,2.1071,2.1485,2.1823,2.2166,2.2315,2.2388,2.224,2.1907,2.1442,2.0742,2.0092,1.9718,1.9386,1.8986,1.8965,1.8985,1.9116,1.9168,1.9205,1.9265,1.9332,1.945,1.9552,1.9697,1.9861,2.0143,2.0426,2.0728,2.1095,2.1411,2.1746,2.2101,2.249,2.2842,2.3212,2.3571,2.3912,2.4344,2.4742,2.512,2.5389,2.5565,2.5639,2.5676,2.5692,2.5659,2.5604,2.5537,2.5466,2.5322,2.5169,2.5072,2.4953,2.4789,2.461,2.4399,2.422,2.402,2.3837,2.3642,2.3449,2.3256,2.291,2.2587,2.2215,2.1874,2.1645,2.1456,2.1332,2.1183,2.1038,2.0901,2.0868,2.0744,2.0585,2.0517,2.0483,2.0392,2.0342,2.035,2.0357,2.0392,2.0384,2.0426,2.0467,2.0475,2.0475,2.0467,2.0467,2.0501,2.0543,2.0618,2.0644,-1.942,-1.8206,-0.8299,-0.2837,0.0321,1.1767,1.6876,1.6778,1.6844,1.7131,1.7652,1.776,1.8022,1.8228,1.8333,1.8574,1.8896,1.9116,1.9376,1.969,2.0023,2.0361,2.0738,2.1158,2.1593,2.1869,2.211,2.2231,2.2229,2.1953,2.1529,2.1086,2.0613,2.0089,1.9637,1.9221,1.8896,1.8805,1.8812,1.8827,1.8872,1.8927,1.8995,1.9123,1.9221,1.9406,1.9661,1.9947,2.0227,2.0527,2.086,2.1214,2.157,2.192,2.2281,2.2669,2.3068,2.3417,2.3798,2.4264,2.4718,2.5077,2.5321,2.5476,2.5571,2.5641,2.5661,2.57,2.5644,2.559,2.5531,2.5426,2.5303,2.519,2.5065,2.4915,2.476,2.4572,2.4407,2.4211,2.403,2.3846,2.3598,2.3365,2.3011,2.2694,2.2388,2.2073,2.1853,2.1691,2.1617,2.1472,2.1317,2.1175,2.1031,2.0958,2.0884,2.0826,2.0752,2.0628,2.0587,2.0595,2.0569,2.0535,2.0527,2.0561,2.0628,2.0654,2.0654,2.0628,2.0669,2.0718,2.0793,2.0867,2.0859,-1.945,-1.8841,-1.2689,-0.6625,-0.0242,1.1469,1.6397,1.646,1.6515,1.6716,1.7041,1.7282,1.759,1.7868,1.8009,1.8319,1.8683,1.8934,1.913,1.9442,1.9782,2.0189,2.0556,2.0958,2.1355,2.1743,2.1986,2.2118,2.2209,2.1945,2.1601,2.1127,2.0605,1.9479,1.9521,1.9079,1.876,1.8503,1.805,1.8524,1.8556,1.8627,1.8704,1.8819,1.8957,1.9146,1.9413,1.9712,2.0025,2.0373,2.0802,2.1127,2.1425,2.1794,2.2206,2.2632,2.2927,2.3292,2.3701,2.4335,2.4728,2.5003,2.5245,2.5416,2.5498,2.5564,2.5634,2.5672,2.5637,2.5613,2.5576,2.5535,2.5419,2.5293,2.5172,2.5046,2.4896,2.4751,2.4588,2.4416,2.422,2.4019,2.3753,2.3454,2.3093,2.279,2.2533,2.2304,2.2101,2.1957,2.1865,2.17,2.1579,2.1433,2.1293,2.1222,2.1143,2.1087,2.099,2.0876,2.0802,2.0777,2.0744,2.0711,2.0718,2.0793,2.0827,2.0901,2.0844,2.0827,2.0916,2.0998,2.1046,2.1078,2.1062,-1.9494,-1.9053,-1.308,-0.7075,-0.0718,0.7093,1.2664,1.5923,1.6318,1.6392,1.6582,1.6947,1.7295,1.7529,1.7862,1.8128,1.8436,1.8613,1.8851,1.9213,1.9545,1.9833,2.0204,2.0605,2.1047,2.1425,2.17,2.2003,2.2265,2.1974,2.1713,2.1268,2.0141,1.7341,1.5573,1.5472,1.7151,1.4069,1.5592,1.8282,1.8261,1.8354,1.8432,1.8563,1.8659,1.8882,1.9191,1.9487,1.982,2.0208,2.0644,2.1006,2.134,2.1713,2.2101,2.2489,2.2782,2.323,2.371,2.4238,2.4617,2.4879,2.5138,2.5312,2.542,2.5545,2.5605,2.5639,2.5644,2.5631,2.5597,2.5585,2.5495,2.5382,2.5265,2.5182,2.5046,2.4906,2.4766,2.4607,2.4425,2.4126,2.3849,2.3633,2.3301,2.3036,2.2808,2.256,2.2352,2.2212,2.2106,2.1936,2.1773,2.1678,2.1565,2.1472,2.1356,2.1262,2.1183,2.1095,2.103,2.0949,2.0924,2.0932,2.094,2.0981,2.1014,2.1023,2.1055,2.1103,2.1119,2.1159,2.1159,2.1159,2.1183,-1.9435,-1.9163,-1.5472,-0.9014,-0.1427,0.4902,1.0738,1.538,1.6025,1.605,1.6201,1.6552,1.6947,1.7247,1.759,1.7942,1.8201,1.8365,1.8613,1.8981,1.925,1.9581,1.9897,2.0247,2.0679,2.1111,2.1456,2.1768,2.2069,2.1936,2.1584,2.0967,1.9901,1.4394,1.1454,1.0897,1.3308,1.1118,1.2912,1.5646,1.6977,1.8083,1.8189,1.8307,1.8457,1.8651,1.8957,1.9295,1.9596,2.0053,2.0475,2.0851,2.1246,2.1639,2.2023,2.236,2.2833,2.3277,2.3732,2.4075,2.4417,2.47,2.4984,2.5191,2.535,2.5485,2.5556,2.5603,2.5648,2.5653,2.5634,2.5636,2.556,2.5434,2.5372,2.5284,2.519,2.5053,2.4888,2.4755,2.4561,2.4257,2.397,2.3774,2.3553,2.3333,2.3111,2.2868,2.2623,2.2479,2.2313,2.2147,2.2023,2.1894,2.1776,2.1648,2.1526,2.1402,2.1356,2.1318,2.1215,2.1135,2.1127,2.1111,2.1078,2.1078,2.1135,2.1183,2.1199,2.1222,2.1222,2.123,2.1238,2.127,2.1302,-1.9413,-1.9682,-1.9754,-1.2689,-0.1943,0.53,1.1051,1.5585,1.5715,1.5754,1.5836,1.6151,1.6503,1.6876,1.7231,1.759,1.7922,1.8161,1.8475,1.8791,1.9056,1.9391,1.9682,2.0023,2.0402,2.0778,2.1166,2.1479,2.1759,2.1781,2.137,2.0714,1.9992,1.3539,0.8958,0.6646,0.7804,0.6073,0.9009,1.209,1.4758,1.7357,1.7794,1.8102,1.8254,1.8528,1.8843,1.9146,1.9552,1.9983,2.0407,2.081,2.1191,2.1595,2.1982,2.2434,2.2986,2.3348,2.3676,2.3976,2.4229,2.4545,2.4818,2.5063,2.5273,2.5401,2.5509,2.5576,2.5619,2.567,2.569,2.5642,2.5596,2.5526,2.5476,2.5393,2.5312,2.5166,2.5003,2.4842,2.4667,2.4426,2.4163,2.3946,2.3771,2.3576,2.3357,2.3135,2.2885,2.2667,2.2525,2.2377,2.222,2.2115,2.1991,2.1857,2.17,2.1587,2.1565,2.152,2.1419,2.1325,2.131,2.1294,2.1167,2.1199,2.1278,2.1333,2.1325,2.1348,2.1348,2.134,2.1317,2.1356,2.1388,-1.9317,-1.9566,-1.9841,-1.305,-0.1436,0.8941,1.4286,1.5468,1.5564,1.5519,1.548,1.5901,1.6286,1.6405,1.684,1.7251,1.7569,1.7801,1.8168,1.8563,1.8991,1.9204,1.9487,1.9831,2.0131,2.0533,2.0923,2.1375,2.1653,2.1697,2.1419,2.078,2.0042,1.3992,0.8738,0.4199,0.0855,0.0,0.4193,0.8755,1.2568,1.5611,1.6775,1.7949,1.8088,1.8365,1.869,1.9033,1.9398,1.9854,2.0281,2.0654,2.1135,2.1534,2.1953,2.2579,2.302,2.3351,2.3607,2.3855,2.4125,2.4375,2.4626,2.487,2.5089,2.5303,2.5441,2.5527,2.5595,2.564,2.5672,2.5651,2.562,2.5584,2.5529,2.5471,2.5386,2.5263,2.5103,2.4921,2.4744,2.4556,2.4303,2.4143,2.3955,2.378,2.3598,2.338,2.3151,2.291,2.2712,2.256,2.2432,2.2293,2.22,2.2061,2.1915,2.1797,2.1768,2.1686,2.1565,2.1511,2.1497,2.1443,2.1381,2.1404,2.1489,2.1481,2.145,2.1489,2.152,2.1472,2.1433,2.1442,2.1472,-1.9221,-1.956,-2.0171,-1.3512,-0.1559,1.0629,1.5819,1.5716,1.5699,1.5699,1.5775,1.6162,1.6422,1.6694,1.7115,1.7467,1.7832,1.8156,1.8535,1.8969,1.915,1.9612,1.9831,2.0075,2.0497,2.0763,2.1151,2.1689,2.1916,2.185,2.1569,2.1173,2.0338,1.5786,0.9952,0.3507,-0.2991,-0.3404,-0.0952,0.4959,0.9582,1.3872,1.6686,1.7767,1.7894,1.8152,1.8532,1.8855,1.9273,1.976,2.017,2.0579,2.1079,2.1509,2.2003,2.257,2.2885,2.3175,2.3458,2.3734,2.4005,2.4229,2.4453,2.4679,2.4929,2.5158,2.5331,2.5456,2.5539,2.5611,2.5644,2.5662,2.5648,2.5629,2.559,2.5547,2.5447,2.534,2.5182,2.499,2.4808,2.4629,2.4454,2.4321,2.4152,2.3976,2.3801,2.3651,2.338,2.3135,2.2944,2.2773,2.2623,2.2468,2.2369,2.2248,2.2098,2.1974,2.1907,2.1848,2.1708,2.1656,2.1634,2.162,2.1567,2.1589,2.1612,2.1589,2.1559,2.1628,2.165,2.1603,2.1565,2.1542,2.1534,-1.922,-1.9465,-1.9538,-1.2628,-0.2,1.0573,1.6068,1.6073,1.601,1.6119,1.63,1.6606,1.6761,1.693,1.7249,1.7647,1.7983,1.8292,1.8725,1.953,1.9649,1.9957,2.0322,2.0772,2.0794,2.1272,2.1696,2.1891,2.2393,2.2348,2.2017,2.1643,2.0561,1.7146,1.1961,0.5459,-0.0578,-0.4614,-0.2302,0.2369,0.7229,1.2365,1.7005,1.7538,1.7698,1.7873,1.8257,1.8681,1.9126,1.9538,1.9886,2.02,2.0894,2.1387,2.1908,2.2445,2.2773,2.3052,2.3327,2.3603,2.385,2.4075,2.4275,2.451,2.478,2.5063,2.5253,2.5386,2.5485,2.5571,2.5613,2.566,2.5674,2.5663,2.5642,2.5591,2.5512,2.5382,2.5214,2.5031,2.4884,2.4719,2.4606,2.4445,2.4321,2.4162,2.4005,2.3873,2.366,2.3398,2.3168,2.2995,2.2799,2.2641,2.2515,2.2424,2.2321,2.2192,2.2118,2.2023,2.1924,2.1835,2.1776,2.1776,2.1746,2.1702,2.1672,2.1672,2.1672,2.1664,2.1694,2.1724,2.1694,2.1664,2.1625,-1.972,-1.9262,-1.0969,-0.5343,-0.1276,1.0684,1.617,1.639,1.6179,1.61,1.6124,1.6244,1.6457,1.6827,1.7126,1.7514,1.7926,1.8386,1.8666,1.9199,1.9654,2.0185,2.0385,2.0691,2.0875,2.1111,2.1501,2.2124,2.2688,2.2658,2.2335,2.1753,2.0837,1.8364,1.5762,0.9383,0.3041,-0.3261,-0.3244,-0.0912,0.2413,0.713,1.124,1.474,1.6817,1.6825,1.7072,1.7363,1.7706,1.8078,1.8442,1.9249,2.0402,2.0862,2.1572,2.2325,2.2686,2.2977,2.3232,2.349,2.3756,2.3985,2.4201,2.4426,2.4664,2.4961,2.5166,2.5303,2.5419,2.5502,2.5591,2.5645,2.5694,2.5693,2.5697,2.5638,2.5579,2.5414,2.5244,2.5094,2.4955,2.4828,2.4729,2.4606,2.4481,2.4367,2.4219,2.4083,2.3903,2.3669,2.3453,2.3232,2.2986,2.2816,2.272,2.2587,2.2506,2.2405,2.2304,2.2192,2.2115,2.2011,2.1936,2.192,2.189,2.1819,2.1797,2.1768,2.1759,2.1768,2.1768,2.1797,2.1797,2.1738,2.1759,-1.8235,-1.4917,-0.3563,0.1169,0.271,1.1614,1.593,1.6021,1.5874,1.5823,1.6003,1.6224,1.6479,1.6779,1.7105,1.7568,1.8093,1.8461,1.905,1.9439,1.9745,2.0321,2.0571,2.0754,2.1281,2.1541,2.2127,2.2745,2.315,2.3033,2.2706,2.2014,2.1257,2.0115,1.8321,1.2493,0.6191,-0.0427,-0.2548,-0.2771,-0.0792,0.4373,1.0186,1.4446,1.6189,1.6111,1.6409,1.6746,1.713,1.7617,1.8135,1.8732,1.9766,2.0434,2.1075,2.179,2.2339,2.285,2.3126,2.3374,2.3638,2.3852,2.4113,2.4293,2.4512,2.479,2.5047,2.519,2.5322,2.541,2.5523,2.5599,2.5654,2.5679,2.568,2.5648,2.5566,2.5447,2.5331,2.5222,2.508,2.4945,2.4832,2.4747,2.4631,2.4507,2.4385,2.4256,2.4094,2.3944,2.3712,2.3522,2.3271,2.3061,2.2944,2.2816,2.2703,2.2605,2.2487,2.2377,2.2285,2.2175,2.2073,2.2073,2.2036,2.194,2.1911,2.189,2.189,2.189,2.1899,2.1899,2.1869,2.184,2.1811,-1.659,-1.0224,0.1358,0.5947,0.6199,1.2429,1.5274,1.5167,1.5172,1.5342,1.5678,1.6084,1.6622,1.7072,1.7512,1.8067,1.8483,1.8652,1.9248,1.9698,2.0067,2.0404,2.0815,2.1191,2.1525,2.2108,2.2739,2.3249,2.3751,2.3565,2.3108,2.2355,2.1416,2.0373,1.771,1.3634,0.8049,0.2506,-0.0704,-0.2695,0.0,0.3846,0.9194,1.3127,1.587,1.5865,1.6103,1.643,1.6788,1.7206,1.7647,1.8302,1.8937,1.9676,2.0522,2.1199,2.1916,2.2436,2.2875,2.3184,2.3444,2.3691,2.3953,2.4172,2.4382,2.4632,2.4893,2.5065,2.5205,2.5337,2.5456,2.5561,2.5615,2.5666,2.5674,2.5661,2.5576,2.5502,2.5419,2.5341,2.5202,2.5061,2.4968,2.487,2.4763,2.4647,2.4515,2.4411,2.4275,2.4124,2.3955,2.3789,2.3607,2.3403,2.3184,2.3061,2.2918,2.2808,2.2712,2.2587,2.2479,2.2379,2.2287,2.226,2.2195,2.213,2.2064,2.2036,2.2027,2.2036,2.1969,2.1949,2.192,2.189,2.189,-1.7917,-1.317,-0.0526,0.4515,0.5119,1.1188,1.4076,1.4016,1.4034,1.4286,1.4761,1.5055,1.5522,1.6451,1.6955,1.7451,1.8001,1.8441,1.8922,1.9325,1.9784,2.0226,2.0673,2.0977,2.1506,2.2109,2.2709,2.326,2.3703,2.3773,2.3664,2.3102,2.2124,2.1056,1.9786,1.5958,1.2513,0.6766,0.4541,0.3618,0.2308,0.4963,0.627,1.0391,1.477,1.4647,1.4731,1.5024,1.536,1.5831,1.6504,1.7341,1.8058,1.8798,1.9669,2.0686,2.1426,2.2125,2.2591,2.3017,2.3304,2.3611,2.3861,2.4056,2.4284,2.4513,2.4749,2.4951,2.5096,2.5284,2.5414,2.5525,2.5605,2.5659,2.5683,2.5656,2.5604,2.5568,2.5514,2.5429,2.5313,2.5192,2.5091,2.499,2.4889,2.4774,2.4679,2.4573,2.4436,2.4302,2.4163,2.4027,2.3876,2.3607,2.3342,2.3295,2.319,2.3052,2.2936,2.2808,2.2712,2.2596,2.2533,2.2489,2.2415,2.2324,2.2287,2.2243,2.2203,2.2175,2.2056,2.199,2.2007,2.1986,2.1986]},{"header":{"parameterUnit":"m.s-1","parameterCategory":1,"la1":31.0,"la2":29.5877,"lo1":-88.7671,"lo2":-86.6584,"dx":0.0162,"dy":0.0185,"nx":115,"ny":88,"refTime":"2022-12-07T06:00:00:Z","depth":0,"parameterNumber":3,"parameterNumberName":"V-component_of_WINDS"},"data":[0.0,0.0,0.0,0.0,0.0,0.0,0.0,0.0,0.0,0.0,0.0,0.0,0.0,0.0,0.0,0.0,0.0,0.0,0.0,0.0,0.0,0.0,0.0,0.0,0.0,0.0,0.0,0.0,0.0,0.0,0.0,0.0,0.0,0.0,0.0,0.0,0.0,0.0,0.0,0.0,0.0,0.0,0.0,0.0,0.0,0.0,0.0,0.0,0.0,0.0,0.0,0.0,0.0,0.0,0.0,0.0,0.0,0.0,0.0,0.0,0.0,0.0,0.0,0.0,0.0,0.0,0.0,0.0,0.0,0.0,0.0,0.0,0.0,0.0,0.0,0.0,0.0,0.0,0.0,0.0,0.0,0.0,0.0,0.0,0.0,0.0,0.0,0.0,0.0,0.0,0.0,0.0,0.0,0.0,0.0,0.0,0.0,0.0,0.0,0.0,0.0,0.0,0.0,0.0,0.0,0.0,0.0,0.0,0.0,0.0,0.0,0.0,0.0,0.0,0.0,0.0,0.0,0.0,0.0,0.0,0.0,0.0,0.0,0.0,0.0,0.0,0.0,0.0,0.0,0.0,0.0,0.0,0.0,0.0,0.0,0.0,0.0,0.0,0.0,0.0,0.0,0.0,0.0,0.0,0.0,0.0,0.0,0.0,0.0,0.0,0.0,0.0,0.0,0.0,0.0,0.0,0.0,0.0,0.0,0.0,0.0,0.0,0.0,0.0,0.0,0.0,0.0,0.0,0.0,0.0,0.0,0.0,0.0,0.0,0.0,0.0,0.0,0.0,0.0,0.0,0.0,0.0,0.0,0.0,0.0,0.0,0.0,0.0,0.0,0.0,0.0,0.0,0.0,0.0,0.0,0.0,0.0,0.0,0.0,0.0,0.0,0.0,0.0,0.0,0.0,0.0,0.0,0.0,0.0,0.0,0.0,0.0,0.0,0.0,0.0,0.0,0.0,0.0,0.0,0.0,0.0,0.0,0.0,0.0,0.0,0.0,0.0,0.0,0.0,0.0,0.0,0.0,0.0,0.0,0.0,0.0,0.0,0.0,0.0,0.0,0.0,0.0,0.0,0.0,0.0,0.0,0.0,0.0,0.0,0.0,0.0,0.0,0.0,0.0,0.0,0.0,0.0,0.0,0.0,0.0,0.0,0.0,0.0,0.0,0.0,0.0,0.0,0.0,0.0,0.0,0.0,0.0,0.0,0.0,0.0,0.0,0.0,0.0,0.0,0.0,0.0,0.0,0.0,0.0,0.0,0.0,0.0,0.0,0.0,0.0,0.0,0.0,0.0,0.0,0.0,0.0,0.0,0.0,0.0,0.0,0.0,0.0,0.0,0.0,0.0,0.0,0.0,0.0,0.0,0.0,0.0,0.0,0.0,0.0,0.0,0.0,0.0,0.0,0.0,0.0,0.0,0.0,0.0,0.0,0.0,0.0,0.0,0.0,0.0,0.0,0.0,0.0,0.0,0.0,0.0,0.0,0.0,0.0,0.0,0.0,0.0,0.0,0.0,0.0,0.0,0.0,0.0,0.0,0.0,0.0,0.0,0.0,0.0,0.0,0.0,0.0,0.0,0.0,0.0,0.0,0.0,0.0,0.0,0.0,0.0,0.0,0.0,0.0,0.0,0.0,0.0,0.0,0.0,0.0,0.0,0.0,0.0,0.0,0.0,0.0,0.0,0.0,0.0,0.0,0.0,0.0,0.0,0.0,0.0,0.0,0.0,0.0,0.0,0.0,0.0,0.0,0.0,0.0,0.0,0.0,0.0,0.0,0.0,0.0,0.0,0.0,0.0,0.0,0.0,0.0,0.0,0.0,0.0,0.0,0.0,0.0,0.0,0.0,0.0,0.0,0.0,0.0,0.0,0.0,0.0,0.0,0.0,0.0,0.0,0.0,0.0,0.0,0.0,0.0,0.0,0.0,0.0,0.0,0.0,0.0,0.0,0.0,0.0,0.0,0.0,0.0,0.0,0.0,0.0,0.0,0.0,0.0,0.0,0.0,0.0,0.0,0.0,0.0,0.0,0.0,0.0,0.0,0.0,0.0,0.0,0.0,0.0,0.0,0.0,0.0,0.0,0.0,0.0,0.0,0.0,0.0,0.0,0.0,0.0,0.0,0.0,0.0,0.0,0.0,0.0,0.0,0.0,0.0,0.0,0.0,0.0,0.0,0.0,0.0,0.0,0.0,0.0,0.0,0.0,0.0,0.0,0.0,0.0,0.0,0.0,0.0,0.0,0.0,0.0,0.0,0.0,0.0,0.0,0.0,0.0,0.0,0.0,0.0,0.0,0.0,0.0,0.0,0.0,0.0,0.0,0.0,0.0,0.0,0.0,0.0,0.0,0.0,0.0,0.0,0.0,0.0,0.0,0.0,0.0,0.0,0.0,0.0,0.0,0.0,0.0,0.0,0.0,0.0,0.0,0.0,0.0,0.0,0.0,0.0,0.0,0.0,0.0,0.0,0.0,0.0,0.0,0.0,0.0,0.0,0.0,0.0,0.0,0.0,0.0,0.0,0.0,0.0,0.0,0.0,0.0,0.0,0.0,0.0,0.0,0.0,0.0,0.0,0.0,0.0,0.0,0.0,0.0,0.0,0.0,0.0,0.0,0.0,0.0,0.0,0.0,0.0,0.0,0.0,0.0,0.0,0.0,0.0,0.0,0.0,0.0,0.0,0.0,0.0,0.0,0.0,0.0,0.0,0.0,0.0,0.0,0.0,0.0,0.0,0.0,0.0,0.0,0.0,0.0,0.0,0.0,0.0,0.0,0.0,0.0,0.0,0.0,0.0,0.0,0.0,0.0,0.0,0.0,0.0,0.0,0.0,0.0,0.0,0.0,0.0,0.0,0.0,0.0,0.0,0.0,0.0,0.0,0.0,0.0,0.0,0.0,0.0,0.0,0.0,0.0,0.0,0.0,0.0,0.0,0.0,0.0,0.0,0.0,0.0,0.0,0.0,0.0,0.0,0.0,0.0,0.0,0.0,0.0,0.0,0.0,0.0,0.0,0.0,0.0,0.0,0.0,0.0,0.0,0.0,0.0,0.0,0.0,0.0,0.0,0.0,0.0,0.0,0.0,0.0,0.0,0.0,0.0,0.0,0.0,0.0,0.0,0.0,0.0,0.0,0.0,0.0,0.0,0.0,0.0,0.0,0.0,0.0,0.0,0.0,0.0,0.0,0.0,0.0,0.0,0.0,0.0,0.0,0.0,0.0,0.0,0.0,0.0,0.0,0.0,0.0,0.0,0.0,0.0,0.0,0.0,0.0,0.0,0.0,0.0,0.0,0.0,0.0,0.0,0.0,0.0,0.0,0.0,0.0,0.0,0.0,0.0,0.0,0.0,0.0,0.0,0.0,0.0,0.0,0.0,0.0,0.0,0.0,0.0,0.0,0.0,0.0,0.0,0.0,0.0,0.0,0.0,0.0,0.0,0.0,0.0,0.0,0.0,0.0,0.0,0.0,0.0,0.0,0.0,0.0,0.0,0.0,0.0,0.0,0.0,0.0,0.0,0.0,0.0,0.0,0.0,0.0,0.0,0.0,0.0,0.0,0.0,0.0,0.0,0.0,0.0,0.0,0.0,0.0,0.0,0.0,0.0,0.0,0.0,0.0,0.0,0.0,0.0,0.0,0.0,0.0,0.0,0.0,0.0,0.0,0.0,0.0,0.0,0.0,0.0,0.0,0.0,0.0,0.0,0.0,0.0,0.0,0.0,0.0,0.0,0.0,0.0,0.0,0.0,0.0,0.0,0.0,0.0,0.0,0.0,0.0,0.0,0.0,0.0,0.0,0.0,0.0,0.0,0.0,0.0,0.0,0.0,0.0,0.0,0.0,0.0,0.0,0.0,0.0,0.0,0.0,0.0,0.0,0.0,0.0,0.0,0.0,0.0,0.0,0.0,0.0,0.0,0.0,0.0,0.0,0.0,0.0,0.0,0.0,0.0,0.0,0.0,0.0,0.0,0.0,0.0,0.0,0.0,0.0,0.0,0.0,0.0,0.0,0.0,0.0,0.0,0.0,0.0,0.0,0.0,0.0,0.0,0.0,0.0,0.0,0.0,0.0,0.0,0.0,0.0,0.0,0.0,0.0,0.0,0.0,0.0,0.0,0.0,0.0,0.0,0.0,0.0,0.0,0.0,0.0,0.0,0.0,0.0,0.0,0.0,0.0,0.0,0.0,0.0,0.0,0.0,0.0,0.0,0.0,0.0,0.0,0.0,0.0,0.0,0.0,0.0,0.0,0.0,0.0,-0.3908,0.0,0.0,0.0,-0.3589,0.0,0.0,0.0,0.0,0.0,0.0,0.0,0.0,0.0,0.0,0.0,0.0,0.0,0.0,0.0,0.0,0.0,0.0,0.0,0.0,0.0,0.0,0.0,0.0,0.0,0.0,0.0,0.0,0.0,0.0,0.0,0.0,0.0,0.0,0.0,0.0,0.0,0.0,0.0,0.0,0.0,0.0,0.0,0.0,0.0,0.0,0.0,0.0,0.0,0.0,0.0,0.0,0.0,0.0,0.0,0.0,0.0,0.0,0.0,0.0,0.0,0.0,0.0,0.0,0.0,0.0,0.0,0.0,0.0,0.0,0.0,0.0,0.0,0.0,0.0,0.0,0.0,0.0,0.0,0.0,0.0,0.0,0.0,0.0,0.0,0.0,0.0,0.0,0.0,0.0,0.0,0.0,0.0,0.0,0.0,0.0,0.0,0.0,0.0,0.0,0.0,0.0,0.0,0.0,0.0,0.0,0.0,0.0,0.0,0.0,-0.3669,-0.3453,-0.3517,-0.3582,-0.3654,0.0,0.0,0.0,0.0,0.0,0.0,0.0,0.0,0.0,0.0,0.0,0.0,0.0,0.0,0.0,0.0,0.0,0.0,0.0,0.0,0.0,0.0,0.0,0.0,0.0,0.0,0.0,0.0,0.0,0.0,0.0,0.0,0.0,0.0,0.0,0.0,0.0,0.0,0.0,0.0,0.0,0.0,0.0,0.0,0.0,0.0,0.0,0.0,0.0,0.0,0.0,0.0,0.0,0.0,0.0,0.0,0.0,0.0,0.0,0.0,0.0,0.0,0.0,0.0,0.0,0.0,0.0,0.0,0.0,0.0,0.0,0.0,0.0,0.0,0.0,0.0,0.0,0.0,0.0,0.0,0.0,0.0,0.0,0.0,0.0,0.0,0.0,0.0,0.0,0.0,0.0,0.0,0.0,0.0,0.0,0.0,0.0,0.0,0.0,0.0,0.0,0.0,0.0,0.0,0.0,0.0,0.0,0.0,0.0,0.0,0.0,0.0,-0.3582,-0.3662,-0.3734,0.0,0.0,0.0,0.0,0.0,0.0,0.0,0.0,0.0,0.0,0.0,0.0,0.0,0.0,0.0,0.0,0.0,0.0,0.0,0.0,0.0,0.0,0.0,0.0,0.0,0.0,0.0,0.0,0.0,0.0,0.0,0.0,0.0,0.0,0.0,0.0,0.0,0.0,0.0,0.0,0.0,0.0,0.0,0.0,0.0,0.0,0.0,0.0,0.0,0.0,0.0,0.0,0.0,0.0,0.0,0.0,0.0,0.0,0.0,0.0,0.0,0.0,0.0,0.0,0.0,0.0,0.0,0.0,0.0,0.0,0.0,0.0,0.0,0.0,0.0,0.0,0.0,0.0,0.0,0.0,0.0,0.0,0.0,0.0,0.0,0.0,0.0,0.0,0.0,0.0,0.0,0.0,0.0,0.0,0.0,0.0,0.0,0.0,0.0,0.0,0.0,0.0,0.0,0.0,0.0,0.0,0.0,0.0,0.0,0.0,-0.3599,-0.3597,-0.3648,0.0,-0.3876,0.0,0.0,0.0,0.0,0.0,0.0,0.0,0.0,0.0,0.0,0.0,0.0,0.0,0.0,0.0,0.0,0.0,0.0,0.0,0.0,0.0,0.0,0.0,0.0,0.0,0.0,0.0,0.0,0.0,0.0,0.0,0.0,0.0,0.0,0.0,0.0,0.0,0.0,0.0,0.0,0.0,0.0,0.0,0.0,0.0,0.0,0.0,0.0,0.0,0.0,0.0,0.0,0.0,0.0,0.0,0.0,0.0,0.0,0.0,0.0,0.0,0.0,0.0,0.0,0.0,0.0,0.0,0.0,0.0,0.0,0.0,0.0,0.0,0.0,0.0,0.0,0.0,0.0,0.0,0.0,0.0,0.0,0.0,0.0,0.0,0.0,0.0,0.0,0.0,0.0,0.0,0.0,0.0,0.0,0.0,0.0,0.0,0.0,0.0,0.0,0.0,0.0,0.0,0.0,0.0,0.0,0.0,0.0,0.0,0.0,-0.3678,-0.3711,-0.378,-0.3869,0.0,0.0,0.0,0.0,0.0,0.0,0.0,0.0,0.0,0.0,0.0,0.0,0.0,0.0,0.0,0.0,0.0,0.0,0.0,0.0,0.0,0.0,0.0,0.0,0.0,0.0,0.0,0.0,0.0,0.0,0.0,0.0,0.0,0.0,0.0,0.0,0.0,0.0,0.0,0.0,0.0,0.0,0.0,0.0,0.0,0.0,0.0,0.0,0.0,0.0,0.0,0.0,0.0,0.0,0.0,0.0,0.0,0.0,0.0,0.0,0.0,0.0,0.0,0.0,0.0,0.0,0.0,0.0,0.0,0.0,0.0,0.0,0.0,0.0,0.0,0.0,0.0,0.0,0.0,0.0,0.0,0.0,0.0,0.0,0.0,0.0,0.0,0.0,0.0,0.0,0.0,0.0,0.0,0.0,0.0,0.0,0.0,0.0,0.0,0.0,0.0,0.0,0.0,0.0,0.0,0.0,0.0,0.0,0.0,0.0,-0.3725,-0.3756,-0.3825,-0.3891,-0.3963,-0.4026,0.0,0.0,0.0,0.0,0.0,0.0,0.0,0.0,0.0,0.0,0.0,0.0,0.0,0.0,0.0,0.0,0.0,0.0,0.0,0.0,0.0,0.0,0.0,0.0,0.0,0.0,0.0,0.0,0.0,0.0,0.0,0.0,0.0,0.0,0.0,0.0,0.0,0.0,0.0,0.0,0.0,0.0,0.0,0.0,0.0,0.0,0.0,0.0,0.0,0.0,0.0,0.0,0.0,0.0,0.0,0.0,0.0,0.0,0.0,0.0,0.0,0.0,0.0,0.0,0.0,0.0,0.0,0.0,0.0,0.0,0.0,0.0,0.0,0.0,0.0,0.0,0.0,0.0,0.0,0.0,0.0,0.0,0.0,0.0,0.0,0.0,0.0,0.0,0.0,0.0,0.0,0.0,0.0,0.0,0.0,0.0,0.0,0.0,0.0,0.0,0.0,0.0,0.0,0.0,0.0,0.0,0.0,0.0,-0.3801,-0.3795,-0.384,-0.3906,-0.3963,-0.4026,0.0,0.0,0.0,0.0,0.0,0.0,0.0,0.0,0.0,0.0,0.0,0.0,0.0,0.0,0.0,0.0,0.0,0.0,0.0,0.0,0.0,0.0,0.0,0.0,0.0,0.0,0.0,0.0,0.0,0.0,0.0,0.0,0.0,0.0,0.0,0.0,0.0,0.0,0.0,0.0,0.0,0.0,0.0,0.0,0.0,0.0,0.0,0.0,0.0,0.0,0.0,0.0,0.0,0.0,0.0,0.0,0.0,0.0,0.0,0.0,0.0,0.0,0.0,0.0,0.0,0.0,0.0,0.0,0.0,0.0,0.0,0.0,0.0,0.0,0.0,0.0,0.0,0.0,0.0,0.0,0.0,0.0,0.0,0.0,0.0,0.0,0.0,0.0,0.0,0.0,0.0,0.0,0.0,0.0,0.0,0.0,0.0,0.0,0.0,0.0,0.0,0.0,0.0,0.0,0.0,0.0,0.0,0.0,0.0,-0.3869,-0.3906,-0.3942,-0.3963,-0.4026,-0.4095,0.0,0.0,0.0,0.0,0.0,0.0,0.0,0.0,0.0,0.0,0.0,0.0,0.0,0.0,0.0,0.0,0.0,0.0,0.0,0.0,0.0,0.0,0.0,0.0,0.0,0.0,0.0,0.0,0.0,0.0,0.0,0.0,0.0,0.0,0.0,0.0,0.0,0.0,0.0,0.0,0.0,0.0,0.0,0.0,0.0,0.0,0.0,0.0,0.0,0.0,0.0,0.0,0.0,0.0,0.0,0.0,0.0,0.0,0.0,0.0,0.0,0.0,0.0,0.0,0.0,0.0,0.0,0.0,0.0,0.0,0.0,0.0,0.0,0.0,0.0,0.0,0.0,0.0,0.0,0.0,0.0,0.0,0.0,0.0,0.0,0.0,0.0,0.0,0.0,0.0,0.0,0.0,0.0,0.0,0.0,0.0,0.0,0.0,0.0,0.0,0.0,0.0,0.0,0.0,0.0,0.0,0.0,0.0,0.0,-0.3964,-0.4015,-0.4035,-0.4032,-0.411,-0.4159,0.0,0.0,0.0,0.0,0.0,0.0,0.0,0.0,0.0,0.0,0.0,0.0,0.0,0.0,0.0,0.0,0.0,0.0,0.0,0.0,0.0,0.0,0.0,0.0,0.0,0.0,0.0,0.0,0.0,0.0,0.0,0.0,0.0,0.0,0.0,0.0,0.0,0.0,0.0,0.0,0.0,0.0,0.0,0.0,0.0,0.0,0.0,0.0,0.0,0.0,0.0,0.0,0.0,0.0,0.0,0.0,0.0,0.0,0.0,0.0,0.0,0.0,0.0,0.0,0.0,0.0,0.0,0.0,0.0,0.0,0.0,0.0,0.0,0.0,0.0,0.0,0.0,0.0,0.0,0.0,0.0,0.0,0.0,0.0,0.0,0.0,0.0,0.0,0.0,0.0,0.0,0.0,0.0,0.0,0.0,0.0,0.0,0.0,0.0,0.0,0.0,0.0,0.0,0.0,0.0,0.0,0.0,0.0,-0.4124,-0.4116,-0.4159,-0.4181,-0.411,-0.4206,-0.4246,0.0,0.0,0.0,0.0,0.0,0.0,0.0,0.0,0.0,0.0,0.0,0.0,0.0,0.0,0.0,0.0,0.0,0.0,0.0,0.0,0.0,0.0,0.0,0.0,0.0,0.0,0.0,0.0,0.0,0.0,0.0,0.0,0.0,0.0,0.0,0.0,0.0,0.0,0.0,0.0,0.0,0.0,0.0,0.0,0.0,0.0,0.0,0.0,0.0,0.0,0.0,0.0,0.0,0.0,0.0,0.0,0.0,0.0,0.0,0.0,0.0,0.0,0.0,0.0,0.0,0.0,0.0,0.0,0.0,0.0,0.0,0.0,0.0,0.0,0.0,0.0,0.0,0.0,0.0,0.0,0.0,0.0,0.0,0.0,0.0,0.0,0.0,0.0,0.0,0.0,0.0,0.0,0.0,0.0,0.0,0.0,0.0,0.0,0.0,0.0,0.0,0.0,0.0,0.0,0.0,0.0,0.0,0.0,0.0,-0.4803,-0.5282,-0.5332,-0.4874,-0.4958,-0.4812,0.0,0.0,0.0,0.0,0.0,0.0,0.0,0.0,0.0,0.0,0.0,0.0,0.0,0.0,0.0,0.0,0.0,0.0,0.0,0.0,0.0,0.0,0.0,0.0,0.0,0.0,0.0,0.0,0.0,0.0,0.0,0.0,0.0,0.0,0.0,0.0,0.0,0.0,0.0,0.0,0.0,0.0,0.0,0.0,0.0,0.0,0.0,0.0,0.0,0.0,0.0,0.0,0.0,0.0,0.0,0.0,0.0,0.0,0.0,0.0,0.0,0.0,0.0,0.0,0.0,0.0,0.0,0.0,0.0,0.0,0.0,0.0,0.0,0.0,0.0,0.0,0.0,0.0,0.0,0.0,0.0,0.0,0.0,0.0,0.0,0.0,0.0,0.0,0.0,0.0,0.0,0.0,0.0,0.0,0.0,0.0,0.0,0.0,0.0,0.0,0.0,0.0,0.0,0.0,0.0,0.0,0.0,0.0,0.0,-0.5957,-0.6133,-0.605,-0.5656,-0.5489,-0.5221,-0.4867,0.0,0.0,0.0,0.0,0.0,0.0,0.0,0.0,0.0,0.0,0.0,0.0,0.0,0.0,0.0,0.0,0.0,0.0,0.0,0.0,0.0,0.0,0.0,0.0,0.0,0.0,0.0,0.0,0.0,0.0,0.0,0.0,0.0,0.0,0.0,0.0,0.0,0.0,0.0,0.0,0.0,0.0,0.0,0.0,0.0,0.0,0.0,0.0,0.0,0.0,0.0,0.0,0.0,0.0,0.0,0.0,0.0,0.0,0.0,0.0,0.0,0.0,0.0,0.0,0.0,0.0,0.0,0.0,0.0,0.0,0.0,0.0,0.0,0.0,0.0,0.0,0.0,0.0,0.0,0.0,0.0,0.0,0.0,0.0,0.0,0.0,0.0,0.0,0.0,0.0,0.0,0.0,0.0,0.0,0.0,0.0,0.0,0.0,0.0,0.0,0.0,0.0,0.0,0.0,0.0,0.0,0.0,0.0,-0.7441,-0.6781,-0.6449,-0.6446,-0.5881,-0.5536,0.0,0.0,0.0,0.0,0.0,0.0,0.0,0.0,0.0,0.0,0.0,0.0,0.0,0.0,0.0,0.0,0.0,0.0,0.0,0.0,0.0,0.0,0.0,0.0,0.0,0.0,0.0,0.0,0.0,0.0,0.0,0.0,0.0,0.0,0.0,0.0,0.0,0.0,0.0,0.0,0.0,0.0,0.0,0.0,0.0,0.0,0.0,0.0,0.0,0.0,0.0,0.0,0.0,0.0,0.0,0.0,0.0,0.0,0.0,0.0,0.0,0.0,0.0,0.0,0.0,0.0,0.0,0.0,0.0,0.0,0.0,0.0,0.0,0.0,0.0,0.0,0.0,0.0,0.0,0.0,0.0,0.0,0.0,0.0,0.0,0.0,0.0,0.0,0.0,0.0,0.0,0.0,0.0,0.0,0.0,0.0,0.0,0.0,0.0,0.0,0.0,0.0,0.0,0.0,0.0,0.0,0.0,0.0,0.0,-0.8173,-0.8024,-0.7701,-0.7244,-0.714,-0.6656,0.0,0.0,0.0,0.0,0.0,0.0,0.0,0.0,0.0,0.0,0.0,0.0,0.0,0.0,0.0,0.0,0.0,0.0,0.0,0.0,0.0,0.0,0.0,0.0,0.0,0.0,0.0,0.0,0.0,0.0,0.0,0.0,0.0,0.0,0.0,0.0,0.0,0.0,0.0,0.0,0.0,0.0,0.0,0.0,0.0,0.0,0.0,0.0,0.0,0.0,0.0,0.0,0.0,0.0,0.0,0.0,0.0,0.0,0.0,0.0,0.0,0.0,0.0,0.0,0.0,0.0,0.0,0.0,0.0,0.0,0.0,0.0,0.0,0.0,0.0,0.0,0.0,0.0,0.0,0.0,0.0,0.0,0.0,0.0,0.0,0.0,0.0,0.0,0.0,0.0,0.0,0.0,0.0,0.0,0.0,0.0,0.0,0.0,0.0,0.0,0.0,0.0,0.0,0.0,0.0,0.0,0.0,0.0,-0.7862,-0.8534,-0.8571,-0.8407,-0.8053,-0.7841,-0.7249,0.0,0.0,0.0,0.0,0.0,0.0,0.0,0.0,0.0,0.0,0.0,0.0,0.0,0.0,0.0,0.0,0.0,0.0,0.0,0.0,0.0,0.0,0.0,0.0,0.0,0.0,0.0,0.0,0.0,0.0,0.0,0.0,0.0,0.0,0.0,0.0,0.0,0.0,0.0,0.0,0.0,0.0,0.0,0.0,0.0,0.0,0.0,0.0,0.0,0.0,0.0,0.0,0.0,0.0,0.0,0.0,0.0,0.0,0.0,0.0,0.0,0.0,0.0,0.0,0.0,0.0,0.0,0.0,0.0,0.0,0.0,0.0,0.0,0.0,0.0,0.0,0.0,0.0,0.0,0.0,0.0,0.0,0.0,0.0,0.0,0.0,0.0,0.0,0.0,0.0,0.0,0.0,0.0,0.0,0.0,0.0,0.0,0.0,0.0,0.0,0.0,0.0,0.0,0.0,0.0,0.0,0.0,0.0,-0.8008,-0.8604,-0.8673,-0.8753,-0.8773,-0.8233,-0.7557,0.0,0.0,0.0,0.0,0.0,0.0,0.0,0.0,0.0,0.0,0.0,0.0,0.0,0.0,0.0,0.0,0.0,0.0,0.0,0.0,0.0,0.0,0.0,0.0,0.0,0.0,0.0,0.0,0.0,0.0,0.0,0.0,0.0,0.0,0.0,0.0,0.0,0.0,0.0,0.0,0.0,0.0,0.0,0.0,0.0,0.0,0.0,0.0,0.0,0.0,0.0,0.0,0.0,0.0,0.0,0.0,0.0,0.0,0.0,0.0,0.0,0.0,0.0,0.0,0.0,0.0,0.0,0.0,0.0,0.0,0.0,0.0,0.0,0.0,0.0,0.0,0.0,0.0,0.0,0.0,0.0,0.0,0.0,0.0,0.0,0.0,0.0,0.0,0.0,0.0,0.0,0.0,0.0,0.0,0.0,0.0,0.0,0.0,0.0,0.0,0.0,0.0,0.0,0.0,0.0,0.0,0.0,0.0,-0.861,-0.8749,-0.8769,-0.882,-0.8869,-0.8793,-0.8155,0.0,0.0,0.0,0.0,0.0,0.0,0.0,0.0,0.0,0.0,0.0,0.0,0.0,0.0,0.0,0.0,0.0,0.0,0.0,0.0,0.0,0.0,0.0,0.0,0.0,0.0,0.0,0.0,0.0,0.0,0.0,0.0,0.0,0.0,0.0,0.0,0.0,0.0,0.0,0.0,0.0,0.0,0.0,0.0,0.0,0.0,0.0,0.0,-0.9295,0.0,0.0,0.0,0.0,0.0,0.0,0.0,0.0,0.0,0.0,0.0,0.0,0.0,0.0,0.0,0.0,0.0,0.0,0.0,0.0,0.0,0.0,0.0,0.0,0.0,0.0,0.0,0.0,0.0,0.0,0.0,0.0,0.0,0.0,0.0,0.0,0.0,0.0,0.0,0.0,0.0,0.0,0.0,0.0,0.0,0.0,0.0,0.0,0.0,0.0,0.0,0.0,0.0,0.0,0.0,0.0,0.0,0.0,0.0,-0.8872,-0.8857,-0.8874,-0.8939,-0.9005,-0.9102,-0.8451,0.0,0.0,0.0,0.0,0.0,0.0,0.0,0.0,0.0,0.0,0.0,0.0,0.0,0.0,0.0,0.0,0.0,0.0,0.0,0.0,0.0,0.0,0.0,0.0,0.0,0.0,0.0,0.0,0.0,0.0,0.0,0.0,0.0,0.0,0.0,0.0,0.0,0.0,0.0,0.0,0.0,0.0,0.0,0.0,0.0,0.0,0.0,0.0,0.0,0.0,0.0,0.0,0.0,0.0,0.0,0.0,0.0,0.0,0.0,0.0,0.0,0.0,0.0,0.0,0.0,0.0,0.0,0.0,0.0,0.0,0.0,0.0,0.0,0.0,0.0,0.0,0.0,0.0,0.0,0.0,0.0,0.0,0.0,0.0,0.0,0.0,0.0,0.0,0.0,0.0,0.0,0.0,0.0,0.0,0.0,0.0,0.0,0.0,0.0,0.0,0.0,0.0,0.0,0.0,0.0,0.0,0.0,-0.8673,-0.8994,-0.8905,-0.8967,-0.903,-0.9111,-0.9242,-0.8585,-0.7101,0.0,0.0,0.0,0.0,0.0,0.0,0.0,0.0,0.0,0.0,0.0,0.0,0.0,0.0,0.0,0.0,0.0,0.0,0.0,0.0,0.0,0.0,0.0,0.0,0.0,0.0,0.0,0.0,0.0,0.0,0.0,0.0,0.0,0.0,0.0,0.0,0.0,0.0,-0.6431,-0.7726,0.0,0.0,0.0,0.0,0.0,0.0,0.0,0.0,-0.9677,0.0,0.0,0.0,0.0,0.0,0.0,0.0,0.0,0.0,0.0,0.0,0.0,0.0,0.0,0.0,0.0,0.0,0.0,0.0,0.0,0.0,0.0,0.0,0.0,0.0,0.0,0.0,0.0,0.0,0.0,0.0,0.0,0.0,0.0,0.0,0.0,0.0,0.0,0.0,0.0,0.0,0.0,0.0,0.0,0.0,0.0,0.0,0.0,0.0,0.0,0.0,0.0,0.0,0.0,0.0,0.0,-0.8082,-0.8727,-0.9045,-0.899,-0.8998,-0.906,-0.9191,-0.9319,-0.8687,-0.7266,0.0,0.0,0.0,0.0,0.0,0.0,0.0,0.0,0.0,0.0,0.0,0.0,0.0,0.0,0.0,0.0,0.0,0.0,0.0,0.0,0.0,0.0,0.0,0.0,0.0,0.0,0.0,0.0,0.0,0.0,0.0,0.0,0.0,0.0,0.0,0.0,0.0,0.0,0.0,-0.835,-0.8758,0.0,0.0,0.0,0.0,0.0,0.0,0.0,0.0,-0.9497,0.0,0.0,0.0,0.0,0.0,0.0,0.0,0.0,0.0,0.0,0.0,0.0,0.0,0.0,0.0,0.0,0.0,0.0,0.0,0.0,0.0,0.0,0.0,0.0,0.0,0.0,0.0,0.0,0.0,0.0,0.0,0.0,0.0,0.0,0.0,0.0,0.0,0.0,0.0,0.0,0.0,0.0,0.0,0.0,0.0,0.0,0.0,0.0,0.0,0.0,0.0,0.0,0.0,0.0,0.0,-0.8717,-0.9069,-0.9175,-0.9113,-0.9094,-0.9136,-0.9254,-0.9376,-0.8945,0.0,0.0,0.0,0.0,0.0,0.0,0.0,0.0,0.0,0.0,0.0,0.0,0.0,0.0,0.0,0.0,0.0,0.0,0.0,0.0,0.0,0.0,0.0,0.0,0.0,0.0,0.0,0.0,0.0,0.0,0.0,0.0,0.0,0.0,0.0,0.0,0.0,0.0,0.0,0.0,-0.8807,-0.9221,-0.9593,0.0,0.0,0.0,0.0,0.0,0.0,-0.9466,-0.9439,0.0,0.0,0.0,0.0,0.0,0.0,0.0,0.0,0.0,0.0,0.0,0.0,0.0,0.0,0.0,0.0,0.0,0.0,0.0,0.0,0.0,0.0,0.0,0.0,0.0,0.0,0.0,0.0,0.0,0.0,0.0,0.0,0.0,0.0,0.0,0.0,0.0,0.0,0.0,0.0,0.0,0.0,0.0,0.0,0.0,0.0,0.0,0.0,0.0,0.0,0.0,0.0,0.0,0.0,0.0,-0.9349,-0.9357,-0.9281,-0.9231,-0.9223,-0.9263,-0.934,-0.9455,-0.9206,0.0,0.0,0.0,0.0,0.0,0.0,0.0,0.0,0.0,0.0,0.0,0.0,0.0,0.0,0.0,0.0,0.0,0.0,0.0,0.0,0.0,0.0,0.0,0.0,0.0,0.0,0.0,0.0,0.0,0.0,0.0,0.0,0.0,0.0,0.0,0.0,0.0,0.0,0.0,0.0,0.0,-0.9561,-0.9571,-0.9644,0.0,0.0,0.0,0.0,-0.9598,-0.9578,0.0,0.0,0.0,0.0,0.0,0.0,0.0,0.0,0.0,0.0,0.0,0.0,0.0,0.0,0.0,0.0,0.0,0.0,0.0,0.0,0.0,0.0,0.0,0.0,0.0,0.0,0.0,0.0,0.0,0.0,0.0,0.0,0.0,0.0,0.0,0.0,0.0,0.0,0.0,0.0,0.0,0.0,0.0,0.0,0.0,0.0,0.0,0.0,0.0,0.0,0.0,0.0,0.0,0.0,0.0,0.0,-0.9426,-0.943,-0.9364,-0.9281,-0.9284,-0.934,-0.9484,-0.9599,-0.9342,0.0,0.0,0.0,0.0,0.0,0.0,0.0,0.0,0.0,0.0,0.0,0.0,0.0,0.0,0.0,0.0,0.0,0.0,0.0,0.0,0.0,0.0,0.0,0.0,0.0,0.0,0.0,0.0,0.0,0.0,0.0,0.0,0.0,0.0,0.0,0.0,0.0,0.0,0.0,0.0,0.0,-0.943,-0.9403,-0.9925,-1.0313,0.0,0.0,-1.1001,-1.0306,-1.0199,0.0,0.0,0.0,0.0,0.0,0.0,0.0,0.0,0.0,0.0,0.0,0.0,0.0,0.0,0.0,0.0,0.0,0.0,0.0,0.0,0.0,0.0,0.0,0.0,0.0,0.0,0.0,0.0,0.0,0.0,0.0,0.0,0.0,0.0,0.0,0.0,0.0,0.0,0.0,0.0,0.0,0.0,0.0,0.0,0.0,0.0,0.0,0.0,0.0,0.0,0.0,0.0,0.0,0.0,0.0,-0.8004,-0.9485,-0.9492,-0.943,-0.9358,-0.9412,-0.9448,-0.956,-0.9686,-0.9635,0.0,0.0,0.0,0.0,0.0,0.0,0.0,0.0,0.0,0.0,0.0,0.0,0.0,0.0,0.0,0.0,0.0,0.0,0.0,0.0,0.0,0.0,0.0,0.0,0.0,0.0,0.0,0.0,0.0,0.0,0.0,0.0,0.0,0.0,0.0,0.0,0.0,0.0,0.0,0.0,0.0,0.0,-0.9917,-1.0494,0.0,0.0,0.0,-1.1201,-1.0873,0.0,0.0,0.0,0.0,0.0,0.0,0.0,0.0,0.0,0.0,0.0,0.0,0.0,0.0,0.0,0.0,0.0,0.0,0.0,0.0,0.0,0.0,0.0,0.0,0.0,0.0,0.0,0.0,0.0,0.0,0.0,0.0,0.0,0.0,0.0,0.0,0.0,0.0,0.0,0.0,0.0,0.0,0.0,0.0,0.0,0.0,0.0,0.0,0.0,0.0,0.0,0.0,0.0,0.0,0.0,0.0,0.0,-0.959,-0.9542,-0.9474,-0.943,-0.9483,-0.9552,-0.9623,-0.9757,0.0,0.0,0.0,0.0,0.0,0.0,0.0,0.0,0.0,0.0,0.0,0.0,0.0,0.0,0.0,0.0,0.0,0.0,0.0,0.0,0.0,0.0,0.0,0.0,0.0,0.0,0.0,-0.458,0.0,0.0,0.0,0.0,0.0,0.0,0.0,0.0,0.0,0.0,0.0,0.0,0.0,0.0,-1.0299,-1.0468,-1.1067,-1.1498,0.0,0.0,-1.1636,-1.1412,-1.1344,-1.1079,0.0,0.0,0.0,0.0,0.0,0.0,0.0,0.0,0.0,0.0,0.0,0.0,0.0,0.0,0.0,0.0,0.0,0.0,0.0,0.0,0.0,0.0,0.0,0.0,0.0,0.0,0.0,0.0,0.0,0.0,0.0,0.0,0.0,0.0,0.0,0.0,0.0,0.0,0.0,0.0,0.0,0.0,0.0,0.0,0.0,0.0,0.0,0.0,0.0,0.0,0.0,0.0,0.0,0.0,0.0,-0.9625,-0.9559,-0.9508,-0.9491,-0.9562,-0.9634,-0.9686,-0.9825,-0.997,0.0,0.0,0.0,0.0,0.0,0.0,0.0,0.0,0.0,0.0,0.0,0.0,0.0,0.0,0.0,0.0,0.0,0.0,0.0,0.0,0.0,0.0,0.0,0.0,0.0,0.0,0.0,0.0,0.0,0.0,0.0,0.0,0.0,0.0,0.0,0.0,0.0,0.0,0.0,0.0,0.0,-1.0272,-1.0946,-1.1633,-1.2042,0.0,0.0,-1.2807,-1.2065,-1.1949,-1.1692,-1.095,0.0,0.0,0.0,0.0,0.0,0.0,0.0,0.0,0.0,0.0,0.0,0.0,0.0,0.0,0.0,0.0,0.0,0.0,0.0,0.0,0.0,0.0,0.0,0.0,0.0,0.0,0.0,0.0,0.0,0.0,0.0,0.0,0.0,0.0,0.0,0.0,0.0,0.0,0.0,0.0,0.0,0.0,0.0,0.0,0.0,0.0,0.0,0.0,0.0,0.0,0.0,0.0,0.0,-0.8625,-0.9675,-0.9646,-0.9624,-0.9616,-0.9646,-0.9712,-0.9815,-0.9918,-1.0011,0.0,0.0,0.0,0.0,0.0,0.0,0.0,0.0,0.0,0.0,0.0,0.0,0.0,0.0,0.0,0.0,0.0,0.0,0.0,0.0,0.0,0.0,0.0,0.0,0.0,0.0,0.0,0.0,-0.4423,-0.4599,-0.5014,0.0,0.0,0.0,0.0,0.0,0.0,0.0,0.0,0.0,0.0,-1.0756,-1.1446,-1.2133,0.0,0.0,-1.2825,-1.2914,-1.2591,-1.2506,-1.226,-1.1515,-1.1393,0.0,0.0,0.0,0.0,0.0,0.0,0.0,0.0,0.0,0.0,0.0,0.0,0.0,0.0,0.0,0.0,0.0,0.0,0.0,0.0,0.0,0.0,0.0,0.0,0.0,0.0,0.0,0.0,0.0,0.0,0.0,0.0,0.0,0.0,0.0,0.0,0.0,0.0,0.0,0.0,0.0,0.0,0.0,0.0,0.0,0.0,0.0,0.0,0.0,0.0,0.0,0.0,-0.8965,-0.9732,-0.997,-1.0091,-1.0109,-1.0372,-1.0555,-1.0678,-1.0515,-1.0439,0.0,0.0,0.0,0.0,0.0,0.0,0.0,0.0,0.0,0.0,0.0,0.0,0.0,0.0,0.0,0.0,0.0,0.0,0.0,0.0,0.0,0.0,0.0,0.0,0.0,0.0,0.0,0.0,-0.4847,-0.5145,-0.5619,0.0,0.0,0.0,0.0,0.0,0.0,0.0,0.0,0.0,0.0,-1.1278,-1.1943,-1.2648,-1.3094,-1.3102,-1.3266,-1.3392,-1.3384,-1.3183,-1.2842,-1.2325,0.0,0.0,0.0,0.0,0.0,0.0,0.0,0.0,0.0,0.0,0.0,0.0,0.0,0.0,0.0,0.0,0.0,0.0,0.0,0.0,0.0,0.0,0.0,0.0,0.0,0.0,0.0,0.0,0.0,0.0,0.6192,0.0,0.0,0.0,0.0,0.0,0.0,0.0,0.0,0.0,0.0,0.0,0.0,0.0,0.0,0.0,0.0,0.0,0.0,0.0,0.0,0.0,0.0,-0.8937,-0.9782,-1.056,-1.0992,-1.107,-1.1908,-1.2336,-1.2387,-1.1755,-1.1414,-1.1457,0.0,0.0,0.0,0.0,0.0,0.0,0.0,0.0,0.0,0.0,0.0,0.0,0.0,0.0,0.0,0.0,0.0,0.0,0.0,0.0,0.0,0.0,0.0,0.0,0.0,0.0,-0.5222,-0.5872,-0.6257,0.0,0.0,0.0,0.0,0.0,0.0,0.0,0.0,0.0,0.0,-1.1069,-1.1763,-1.2471,-1.3159,-1.3555,-1.3571,-1.4061,-1.4443,-1.4419,-1.3884,-1.3467,0.0,0.0,0.0,0.0,0.0,0.0,0.0,0.0,0.0,0.0,0.0,0.0,0.0,0.0,0.0,0.0,0.0,0.0,0.0,0.0,0.0,0.0,0.0,0.0,0.0,0.0,0.0,0.8995,0.8448,0.0,0.0,0.0,0.0,0.0,0.0,0.0,0.0,0.0,0.0,0.0,0.2774,-0.082,0.0,0.0,0.0,0.0,0.0,0.0,0.0,0.0,0.0,0.0,0.0,0.0,-0.9505,-0.9814,-1.068,-1.1141,-1.1187,-1.2072,-1.2565,-1.2632,-1.2432,-1.2063,-1.1498,0.0,0.0,0.0,0.0,0.0,0.0,0.0,0.0,0.0,0.0,0.0,0.0,0.0,0.0,0.0,0.0,0.0,0.0,0.0,0.0,0.0,0.0,0.0,0.0,0.0,-0.5176,0.0,0.0,0.0,0.0,0.0,0.0,0.0,0.0,0.0,0.0,0.0,-0.9624,-1.0743,-1.1103,-1.1656,-1.2777,-1.3114,-1.3433,0.0,0.0,0.0,0.0,0.0,0.0,0.0,0.0,0.0,0.0,0.0,0.0,0.0,0.0,-1.2393,-1.0678,-1.0313,-1.0244,-1.0185,0.0,0.0,0.0,0.0,0.0,0.0,0.0,0.0,0.0,0.0,0.0,0.0,0.0,0.0,0.0,0.0,0.8819,0.0,0.0,0.0,0.0,0.0,0.0,0.0,0.0,0.5377,0.3828,0.3153,-0.0797,-0.3238,0.0,-0.5274,-0.5928,0.0,0.0,0.0,0.0,0.0,0.0,0.0,0.0,-0.9937,-1.0311,-1.1216,-1.1839,-1.2161,-1.3024,-1.3535,-1.3593,-1.3328,-1.2629,-1.1472,-1.0273,-0.9324,0.0,0.0,0.0,0.0,0.0,0.0,0.0,0.0,0.0,0.0,0.0,0.0,0.0,0.0,0.0,0.0,0.0,0.0,0.0,0.0,0.0,0.0,0.0,-0.6027,0.0,0.0,0.0,0.0,0.0,0.0,0.0,0.0,0.0,-0.9017,-0.9396,-1.0018,-1.0879,-1.1389,-1.202,-1.2864,0.0,0.0,0.0,0.0,0.0,0.0,0.0,-1.4323,-1.4323,-1.4126,-1.3974,-1.3998,-1.4038,-1.407,-1.407,0.0,0.0,-1.1879,-1.157,-1.1499,-1.1475,-1.1379,-1.1574,-1.2456,-1.2516,-1.2683,0.0,0.0,0.0,0.0,0.0,0.0,0.0,0.0,1.0292,1.0043,0.0,0.9446,0.0,0.0,0.0,0.0,0.0,0.0,0.0,0.0,0.6299,0.4808,0.4047,0.0158,-0.2578,-0.407,-0.5186,-0.5965,-0.6331,-0.6067,0.0,0.0,0.0,0.0,0.0,0.0,-1.0226,-1.1174,-1.2141,-1.3056,-1.384,-1.4715,-1.5202,-1.5224,-1.4352,-1.3097,-1.1484,-1.1232,-1.0361,-0.8677,-0.8376,0.0,0.0,0.0,0.0,0.0,0.0,0.0,0.0,0.0,0.0,0.0,0.0,0.0,0.0,0.0,0.0,0.0,0.0,0.0,0.0,-0.6699,0.0,0.0,0.0,0.0,0.0,0.0,0.0,0.0,0.0,0.0,-0.9011,-0.9977,-1.082,-1.0852,0.0,0.0,0.0,0.0,-1.4668,-1.4706,-1.53,-1.5762,-1.5747,-1.5173,-1.4706,-1.4713,0.0,0.0,-1.3857,-1.3971,-1.4074,-1.4076,-1.4104,-1.4053,-1.4033,-1.3873,-1.3858,-1.3879,-1.3712,-1.3755,-1.3792,-1.3631,-1.3598,1.3572,0.0,0.0,0.0,0.0,1.1941,1.1761,1.1625,1.1255,1.0727,1.0073,0.9633,0.0,0.0,0.0,0.0,0.0,0.0,0.7946,0.8495,0.748,0.6167,0.4578,0.2176,-0.0422,-0.3119,-0.4336,-0.5278,-0.5898,-0.6143,-0.6724,-0.7667,0.0,0.0,0.0,0.0,-1.0845,-1.1343,-1.2759,-1.3639,-1.3886,-1.47,-1.5092,-1.5002,-1.4111,-1.3361,-1.2808,-1.1589,-1.0633,-1.0006,-0.8813,0.0,0.0,0.0,0.0,0.0,0.0,0.0,0.0,0.0,0.0,0.0,0.0,0.0,0.0,0.0,0.0,0.0,0.0,0.0,-0.659,-0.726,-0.7676,0.0,0.0,0.0,0.0,0.0,0.0,0.0,0.0,0.0,-1.0406,-1.051,-1.0921,0.0,0.0,-1.2858,-1.3731,-1.4189,-1.4577,-1.5038,0.0,0.0,0.0,-1.5308,-1.5198,-1.5183,-1.5065,-1.4996,-1.5002,-1.5067,-1.5046,-1.5088,-1.5074,-1.5097,-1.503,-1.4382,-1.3935,-1.386,-1.3759,-1.3805,-1.4192,-1.4214,-1.4334,1.4718,1.3732,1.3649,1.3517,1.3323,1.3016,1.2788,1.2613,1.2192,1.1636,1.0969,1.0472,0.9875,0.9222,0.8646,0.0,0.0,0.0,0.8668,0.9296,0.8917,0.7681,0.5697,0.3894,0.1283,-0.1876,-0.3254,-0.4184,-0.4766,-0.5176,-0.5665,-0.629,0.0,0.0,-0.9561,-1.0577,-1.1486,-1.2222,-1.3185,-1.3858,-1.4184,-1.4602,-1.4759,-1.4617,-1.4045,-1.3549,-1.3128,-1.2098,-1.1287,-1.0776,-0.9507,-0.8752,0.0,0.0,0.0,0.0,0.0,0.0,0.0,0.0,0.0,0.0,0.0,-0.5007,-0.5375,0.0,0.0,0.0,-0.6585,-0.6944,-0.755,-0.7968,0.0,0.0,0.0,0.0,0.0,0.0,0.0,-0.9696,-1.042,-1.1059,-1.1353,-1.1376,-1.1677,-1.2506,-1.2806,-1.3227,-1.4013,0.0,-1.4635,-1.5074,-1.5117,-1.5124,-1.5154,-1.5193,-1.5255,-1.5225,-1.5555,-1.5747,-1.577,-1.6013,-1.6259,-1.6251,-1.6259,-1.625,-1.6242,-1.5677,-1.4996,-1.4592,-1.4613,-1.4824,-1.5177,-1.5403,-1.5642,1.5485,1.4709,1.4821,1.464,1.4239,1.3907,1.3645,1.3428,1.2973,1.2546,1.2129,1.1589,1.1119,1.0653,1.0048,0.0,0.8975,0.9365,0.9901,1.0622,1.0421,0.9239,0.7213,0.5435,0.2788,-0.0549,-0.1971,-0.2822,-0.3191,-0.3478,-0.3675,-0.3881,-0.6591,-0.8619,-0.9868,-1.0659,-1.1815,-1.3359,-1.3367,-1.3724,-1.4449,-1.4371,-1.4248,-1.4116,-1.4049,-1.3622,-1.2763,-1.259,-1.2068,-1.1096,-1.0331,-0.9816,-0.9536,0.0,0.0,0.0,0.0,0.0,0.0,0.0,0.0,0.0,0.0,0.0,0.0,0.0,0.0,0.0,-0.7597,0.0,-0.8708,-0.8752,0.0,0.0,0.0,-0.9526,-0.9468,-1.0022,-1.0377,-1.0261,0.0,0.0,-1.1946,0.0,-1.2816,-1.3004,-1.3451,-1.3794,-1.3836,-1.4384,-1.4777,-1.4794,-1.4846,-1.4856,-1.4863,-1.4999,-1.5184,-1.5315,-1.5768,-1.6239,-1.6304,-1.6812,-1.7294,-1.7294,-1.7364,-1.7335,-1.7364,-1.7188,-1.6936,-1.5808,-1.6049,-1.6442,-1.6449,-1.675,-1.7033,1.7554,1.7276,1.712,1.5818,1.384,1.3587,1.3353,1.3095,1.2727,1.236,1.1936,1.1308,1.0582,0.9792,0.9478,0.9086,0.8726,0.8892,0.9396,1.0198,1.1084,1.0221,0.7892,0.7197,0.4808,0.1033,-0.059,-0.1599,-0.2047,-0.2153,-0.2093,-0.1972,-0.2487,-0.4292,-0.7309,-0.8355,-0.9765,-1.1614,-1.2594,-1.3212,-1.3447,-1.3462,-1.3461,-1.3365,-1.3352,-1.3207,-1.2941,-1.2256,-1.1736,-1.1384,-1.0632,-0.9906,-0.9263,-0.8839,0.0,0.0,0.0,0.0,0.0,0.0,0.0,0.0,0.0,-0.6062,-0.6567,0.0,-0.7052,0.0,-0.8825,-0.9209,-0.9227,-0.9216,0.0,0.0,-0.9835,-1.0051,-0.9961,-1.0909,-1.1545,-1.1398,-1.2076,-1.2671,-1.3046,-1.3224,-1.3484,-1.3891,-1.3771,-1.3797,-1.4235,-1.4467,-1.4578,-1.4578,-1.4585,-1.461,-1.4679,-1.5156,-1.5729,-1.6358,-1.6591,-1.6761,-1.6855,-1.7015,-1.7204,-1.7244,-1.726,-1.7233,-1.7296,-1.7233,-1.7168,-1.6848,-1.6913,-1.7023,-1.7023,-1.712,-1.7229,1.8105,1.7947,1.7715,1.6636,1.5111,1.5029,1.4834,1.4553,1.4147,1.3742,1.3234,1.2406,1.1665,1.0935,1.0625,1.0242,0.9747,0.9717,1.0074,1.0798,1.1932,1.1527,0.9823,0.9043,0.6921,0.3653,0.1535,0.0273,-0.0204,-0.0197,0.0182,0.0893,0.1141,-0.0061,-0.2752,-0.5369,-0.7736,-0.9852,-1.1298,-1.21,-1.2258,-1.237,-1.2434,-1.2388,-1.2431,-1.2425,-1.2309,-1.1877,-1.1621,-1.1513,-1.0791,-1.02,-0.9748,-0.9376,-0.9011,0.0,0.0,0.0,0.0,0.0,0.0,0.0,0.0,0.0,0.0,0.0,-0.7962,-0.8916,-0.9318,-0.9586,-0.9785,-0.9799,-0.9907,-1.0137,-1.0688,-1.1017,-1.0863,-1.1718,-1.2269,-1.2169,-1.2684,-1.3149,-1.3438,-1.368,-1.3945,-1.422,-1.4047,-1.4007,-1.4326,-1.4433,-1.4395,-1.4433,-1.4653,-1.5,-1.5234,-1.5715,-1.6207,-1.6641,-1.7001,-1.7299,-1.7363,-1.7698,-1.7949,-1.7985,-1.8029,-1.8049,-1.8049,-1.8049,-1.8042,-1.8042,-1.8049,-1.7954,-1.7715,-1.7853,-1.8049,1.8163,1.7944,1.7696,1.741,1.7113,1.7155,1.6881,1.6423,1.6057,1.5542,1.4858,1.3905,1.3187,1.2732,1.2254,1.1732,1.1158,1.0861,1.1069,1.1686,1.2692,1.2747,1.1962,1.0683,0.8859,0.6574,0.3949,0.245,0.2043,0.2297,0.298,0.4129,0.4594,0.4059,0.245,-0.1585,-0.5199,-0.83,-0.9743,-1.065,-1.0999,-1.1235,-1.1369,-1.1448,-1.1576,-1.1592,-1.1445,-1.1497,-1.1505,-1.1431,-1.0843,-1.0461,-1.0347,-0.9785,-0.9379,0.0,-0.9271,0.0,0.0,0.0,0.0,0.0,0.0,0.0,0.0,-0.8687,-0.892,-0.9427,-0.9547,-0.986,-1.0448,-1.0498,-1.0731,-1.1237,-1.1784,-1.2022,-1.1939,-1.243,-1.278,-1.2724,-1.322,-1.3581,-1.3568,-1.3995,-1.4254,-1.4203,-1.4176,-1.4142,-1.4248,-1.4254,-1.4275,-1.4356,-1.4985,-1.562,-1.6191,-1.6477,-1.6647,-1.6766,-1.7337,-1.7772,-1.7837,-1.842,-1.8912,-1.8957,-1.8968,-1.9013,-1.9101,-1.9072,-1.9072,-1.9014,-1.8999,-1.8847,-1.8477,-1.8651,-1.9079,1.9351,1.928,1.8907,1.8576,1.8269,1.8124,1.7369,1.6238,1.5984,1.5354,1.4408,1.3738,1.3082,1.2462,1.204,1.1524,1.0945,1.0548,1.07,1.1247,1.2421,1.2647,1.2052,1.1307,0.9905,0.7874,0.578,0.4598,0.4382,0.5632,0.65,0.7045,0.8468,0.816,0.6117,0.0,0.0,0.0,-0.8403,-0.924,-1.0048,-1.0486,-1.0833,-1.1104,-1.1324,0.0,-1.1037,-1.1122,-1.103,-1.0709,-1.0566,0.0,0.0,0.0,0.0,0.0,0.0,0.0,0.0,0.0,0.0,0.0,-0.8868,-0.8862,-0.9154,-0.9546,-0.9828,-0.989,-1.038,-1.0917,-1.1468,-1.1513,-1.1744,-1.2319,-1.2506,-1.254,-1.2485,-1.2991,-1.3331,-1.3255,-1.3757,-1.4156,-1.4117,-1.42,-1.4229,-1.4189,-1.4111,-1.4039,-1.4026,-1.4065,-1.4292,-1.487,-1.5513,-1.6168,-1.6845,-1.6965,-1.7243,-1.78,-1.804,-1.8254,-1.8422,-1.8584,-1.8827,-1.8955,-1.9001,-1.9062,-1.9108,-1.9108,-1.9108,-1.9108,-1.9108,-1.9065,-1.8963,-1.9021,-1.9064,1.9464,0.0,1.9094,1.876,0.0,1.8233,1.7646,1.6824,1.6747,1.6111,1.5115,1.4505,1.3937,1.3375,1.2832,1.2289,1.1794,1.1217,1.1217,1.1612,1.2448,1.3002,1.3231,1.258,1.1531,1.0069,0.8317,0.7342,0.7138,0.7857,0.8734,0.9734,1.0123,0.9569,0.8083,0.512,0.0644,-0.5364,-0.6495,-0.7537,-0.847,-0.9079,-0.9578,-0.995,0.0,0.0,0.0,0.0,0.0,0.0,0.0,0.0,0.0,0.0,0.0,-0.9258,-0.9337,-0.941,-0.9439,-0.9498,-0.9608,-0.9734,-1.0035,-1.006,-0.9682,-1.0168,-1.0611,-1.0862,-1.119,-1.1626,-1.2168,-1.2237,-1.2354,-1.2622,-1.2919,-1.3067,-1.308,-1.3513,-1.3863,-1.3866,-1.411,-1.43,-1.43,-1.4229,-1.4164,-1.4124,-1.4013,-1.3914,-1.3914,-1.3967,-1.4339,-1.5305,-1.6036,-1.6691,-1.7336,-1.755,-1.7644,-1.8032,-1.8233,-1.8358,-1.8489,-1.8588,-1.8743,-1.8841,-1.891,-1.9031,-1.9048,-1.9064,-1.9108,-1.9108,-1.9108,-1.9108,-1.9108,-1.9078,-1.9048,1.9123,1.9064,1.8829,1.8528,1.8109,1.8016,1.776,1.7406,0.0,0.0,0.0,1.5373,1.4834,1.4332,1.3705,1.3137,1.2627,1.1972,1.1828,1.2049,1.2572,1.3329,1.4175,1.369,1.3039,1.2198,1.0803,0.9988,0.9734,0.9898,1.0641,1.1712,1.1056,1.0052,0.8608,0.4705,0.0895,-0.2573,-0.4392,-0.5803,-0.683,-0.7636,-0.8277,-0.8732,-0.9219,-0.9537,-0.9723,-0.9932,-0.9943,-0.9767,-0.9769,-0.9689,-0.9491,-0.9563,-0.9607,-0.9613,-0.9757,-0.9887,-0.9976,-1.0065,-1.0243,-1.0531,-1.1202,-1.1218,-1.0338,-1.0798,-1.1321,-1.184,-1.1855,-1.2115,-1.2731,-1.2793,-1.2822,-1.2886,-1.3338,-1.3625,-1.3584,-1.399,-1.4273,-1.43,-1.4287,-1.43,-1.4293,-1.4222,-1.4124,-1.4039,-1.3921,-1.3907,-1.396,-1.4226,-1.482,-1.5841,-1.657,-1.7188,-1.7712,-1.7901,-1.8002,-1.8028,-1.8154,-1.8273,-1.8319,-1.8496,-1.8666,-1.8718,-1.8827,-1.8917,-1.8986,-1.9048,-1.9078,-1.9116,-1.9064,-1.9056,-1.9064,-1.9017,-1.8955,1.88,1.8986,1.8673,1.8254,1.7841,1.7788,1.7502,1.7031,1.6899,1.6509,1.5957,1.5373,1.4783,1.4181,1.3647,1.3089,1.2534,1.1977,1.1723,0.0,1.259,1.3147,1.3478,1.3657,1.3566,1.3148,1.2275,1.1828,1.1881,1.2633,1.2945,1.266,1.251,1.0678,0.7332,0.4873,0.263,0.0476,-0.2238,-0.4387,-0.5949,-0.666,-0.7408,-0.8179,-0.8645,-0.89,-0.8949,-0.924,-0.9342,-0.9131,-0.9299,-0.9276,-0.9033,-0.9166,-0.9167,-0.8966,-0.9122,-0.9292,-0.9504,-0.9679,-1.008,-1.0789,-1.1523,-1.1737,-1.1366,-1.1736,-1.2042,-1.2121,-1.2156,-1.2397,-1.2951,-1.3155,-1.3405,-1.3844,-1.4097,-1.4196,-1.4149,-1.4205,-1.43,-1.43,-1.43,-1.43,-1.43,-1.415,-1.4032,-1.4,-1.3954,-1.4,-1.4532,-1.5072,-1.5714,-1.6478,-1.7168,-1.7626,-1.7862,-1.7922,-1.7942,-1.8002,-1.8142,-1.8221,-1.8279,-1.8418,-1.8549,-1.8666,-1.8711,-1.8788,-1.8812,-1.8941,-1.8979,-1.9024,-1.9024,-1.9031,-1.9024,-1.8872,-1.8743,1.8469,1.8587,1.8447,1.8175,1.7814,1.7461,1.708,1.6735,1.6522,1.6219,1.5869,1.5277,1.4726,1.4269,1.3758,1.3233,1.2769,1.2175,1.1932,1.1968,1.2414,1.2757,1.301,1.3787,1.3846,1.3222,1.3234,1.3189,1.3161,1.3423,1.3472,1.3233,1.1952,0.9873,0.7269,0.5375,0.366,0.1948,-0.0821,-0.298,-0.4392,-0.5303,-0.6159,-0.6961,-0.7507,-0.7947,-0.8206,-0.8516,-0.8617,-0.8495,-0.8653,-0.8676,-0.854,-0.8723,-0.8842,-0.8865,-0.9158,-0.942,-0.9672,-1.0062,-1.0525,-1.1074,-1.1712,-1.2093,-1.2046,-1.205,-1.2255,-1.2605,-1.2645,-1.2913,-1.3495,-1.3632,-1.3816,-1.4044,-1.4169,-1.4268,-1.4241,-1.4287,-1.43,-1.43,-1.43,-1.43,-1.43,-1.4189,-1.4078,-1.4013,-1.4112,-1.4559,-1.5418,-1.5845,-1.6197,-1.668,-1.7223,-1.7652,-1.7882,-1.7929,-1.7916,-1.7942,-1.8069,-1.8196,-1.8254,-1.8386,-1.851,-1.8588,-1.8641,-1.8718,-1.8736,-1.8812,-1.8889,-1.8889,-1.8889,-1.8896,-1.8851,-1.8736,-1.8588,1.8145,1.8222,1.8332,1.8182,1.7794,1.7218,1.6833,1.6522,1.6275,1.6013,1.5709,1.5142,1.4726,1.4378,1.3852,1.3387,1.2953,1.2417,1.2076,1.2022,1.2241,1.2393,1.2589,1.3651,1.3839,1.3325,1.3838,1.4093,1.3973,1.3646,1.3346,1.2967,1.0967,0.9063,0.7446,0.5879,0.4328,0.288,0.0531,-0.1328,-0.2744,-0.3798,-0.4712,-0.5489,-0.614,-0.6739,-0.721,-0.7596,-0.7798,-0.7827,-0.7998,-0.8098,-0.8037,-0.8229,-0.8444,-0.8677,-0.9032,-0.9402,-0.9825,-1.0469,-1.0991,-1.1324,-1.1938,-1.2376,-1.2515,-1.2354,-1.2439,-1.2997,-1.3107,-1.3323,-1.3749,-1.3921,-1.3954,-1.3979,-1.4084,-1.4164,-1.4215,-1.4248,-1.4287,-1.4293,-1.43,-1.43,-1.43,-1.4242,-1.4191,-1.4266,-1.4562,-1.5254,-1.6176,-1.6507,-1.6685,-1.6883,-1.7237,-1.7578,-1.7835,-1.7929,-1.7929,-1.7929,-1.8036,-1.8156,-1.8228,-1.8354,-1.8478,-1.851,-1.8595,-1.8641,-1.8673,-1.8736,-1.8767,-1.876,-1.8767,-1.8753,-1.8721,-1.8581,-1.8464,1.7854,1.8071,1.8356,1.8202,1.7679,1.7128,1.684,1.6633,1.6231,1.5919,1.5665,1.5136,1.4686,1.4326,1.3847,1.3382,1.2963,1.2524,1.2081,1.1823,1.2022,1.2114,1.2116,1.2892,1.3424,1.3731,1.4022,1.4146,1.4226,1.3819,1.2858,1.1356,1.0283,0.8958,0.737,0.6146,0.4863,0.3515,0.218,0.0534,-0.129,-0.2266,-0.3152,-0.4081,-0.4689,-0.5252,-0.5771,-0.624,-0.6612,-0.6919,-0.7331,-0.7522,-0.7498,-0.7757,-0.7957,-0.7925,-0.8253,-0.8717,-0.9514,-1.0462,-1.1105,-1.1421,-1.215,-1.263,-1.2747,-1.2761,-1.2982,-1.3297,-1.3424,-1.351,-1.3629,-1.3722,-1.3848,-1.3881,-1.3987,-1.4078,-1.4158,-1.421,-1.4235,-1.4287,-1.43,-1.43,-1.43,-1.4276,-1.4406,-1.4831,-1.5205,-1.5755,-1.6368,-1.6789,-1.7105,-1.7316,-1.7483,-1.7639,-1.7835,-1.7929,-1.7929,-1.7929,-1.7975,-1.8055,-1.8182,-1.8254,-1.8351,-1.8457,-1.8524,-1.8524,-1.8563,-1.8595,-1.8704,-1.8659,-1.8666,-1.8673,-1.8549,-1.8418,-1.8319,1.7395,1.768,1.8021,1.793,1.7511,1.7122,1.6797,1.6491,1.6044,1.5742,1.557,1.5096,1.4686,1.4384,1.3905,1.3525,1.3089,1.2666,1.2224,1.1927,1.1868,1.1842,1.1896,1.2215,1.2739,1.3241,1.3361,1.3477,1.3422,1.2822,1.1833,1.0662,0.9795,0.8699,0.7426,0.6368,0.53,0.422,0.3073,0.1916,0.0667,-0.089,-0.2093,-0.2804,-0.3505,-0.4077,-0.4559,-0.5041,-0.547,-0.5805,-0.6149,-0.6487,-0.6701,-0.7028,-0.7302,-0.764,-0.8375,-0.91,-0.9675,-1.0428,-1.0994,-1.1405,-1.1909,-1.2264,-1.2562,-1.2585,-1.2756,-1.3041,-1.3226,-1.3363,-1.3493,-1.3594,-1.3695,-1.3762,-1.3855,-1.396,-1.4066,-1.4144,-1.4235,-1.43,-1.43,-1.4307,-1.4361,-1.456,-1.5085,-1.5721,-1.6099,-1.6315,-1.689,-1.7131,-1.7271,-1.7455,-1.7503,-1.7611,-1.7842,-1.7929,-1.7929,-1.7916,-1.7975,-1.8049,-1.8088,-1.8208,-1.8312,-1.8358,-1.8418,-1.8478,-1.8485,-1.8517,-1.8588,-1.8542,-1.8489,-1.8443,-1.8397,-1.824,-1.8154,1.7048,1.7365,1.7717,1.7749,1.7558,1.7164,1.6791,1.6448,1.6057,1.5742,1.5513,1.5142,1.4772,1.4425,1.4057,1.3615,1.3218,1.2803,1.2382,1.2071,1.1819,1.1711,1.168,1.1718,1.2063,1.2513,1.2557,1.2567,1.249,1.1867,1.1067,1.021,0.9354,0.8435,0.7478,0.6547,0.5647,0.47,0.3735,0.294,0.214,0.0578,-0.0758,-0.1606,-0.236,-0.2936,-0.3333,-0.3818,-0.4214,-0.4552,-0.4947,-0.5295,-0.5728,-0.6118,-0.6589,-0.7304,-0.8263,-0.903,-0.9526,-1.0123,-1.0677,-1.1126,-1.1468,-1.178,-1.2108,-1.2264,-1.2407,-1.2621,-1.2873,-1.3129,-1.3335,-1.3425,-1.3507,-1.3582,-1.3755,-1.3861,-1.3954,-1.4059,-1.4138,-1.4254,-1.4268,-1.4382,-1.4585,-1.506,-1.5712,-1.6503,-1.6613,-1.6724,-1.7206,-1.7288,-1.7275,-1.7447,-1.7488,-1.7611,-1.7842,-1.7929,-1.7929,-1.7916,-1.7942,-1.7969,-1.8002,-1.8161,-1.8273,-1.8312,-1.8411,-1.8471,-1.8478,-1.8478,-1.8464,-1.8418,-1.8358,-1.8273,-1.8286,-1.8121,-1.8042,1.6959,1.7239,1.7554,1.7765,1.7814,1.724,1.6882,1.6633,1.6175,1.5875,1.5665,1.5295,1.4932,1.4581,1.4203,1.3763,1.3372,1.3017,1.2524,1.1972,1.1877,1.1764,1.149,1.132,1.1528,1.2073,1.1833,1.1647,1.1584,1.125,1.0674,0.9811,0.8939,0.8094,0.7402,0.6673,0.5865,0.5005,0.4256,0.3559,0.2943,0.223,0.1026,-0.0357,-0.1163,-0.1653,-0.2007,-0.2451,-0.2892,-0.3241,-0.3728,-0.417,-0.4611,-0.513,-0.5813,-0.67,-0.7453,-0.8121,-0.8748,-0.9421,-1.0016,-1.0413,-1.0911,-1.133,-1.1616,-1.1884,-1.2113,-1.224,-1.2514,-1.2809,-1.3129,-1.3226,-1.3357,-1.3541,-1.3575,-1.3728,-1.3874,-1.3901,-1.4007,-1.4178,-1.4338,-1.4621,-1.5128,-1.5691,-1.6221,-1.6658,-1.6725,-1.6796,-1.7234,-1.7302,-1.7295,-1.7385,-1.7454,-1.7605,-1.7835,-1.7922,-1.7922,-1.7922,-1.7916,-1.7949,-1.7975,-1.8035,-1.8147,-1.8226,-1.8286,-1.8386,-1.8439,-1.8471,-1.8418,-1.8372,-1.8326,-1.824,-1.8168,-1.8082,-1.8002,1.6772,1.7325,1.7489,1.766,1.7709,1.7322,1.6954,1.6675,1.6275,1.6007,1.5754,1.5463,1.5108,1.4662,1.4389,1.3952,1.3415,1.3104,1.2622,1.2076,1.1873,1.1628,1.134,1.1006,1.1079,1.1426,1.1194,1.1014,1.0943,1.0626,1.0118,0.9509,0.8816,0.8125,0.7478,0.6846,0.6209,0.5529,0.4831,0.4224,0.3691,0.3205,0.2495,0.1698,0.0447,-0.0492,-0.0939,-0.1295,-0.1784,-0.2317,-0.2583,-0.2894,-0.3333,-0.4164,-0.4947,-0.5677,-0.6401,-0.7126,-0.7788,-0.8521,-0.9177,-0.9667,-1.0259,-1.0759,-1.1094,-1.1362,-1.1632,-1.1926,-1.2071,-1.236,-1.272,-1.3019,-1.3239,-1.3329,-1.3486,-1.3681,-1.3821,-1.3894,-1.408,-1.458,-1.4947,-1.5477,-1.5965,-1.6331,-1.6654,-1.7209,-1.721,-1.7189,-1.732,-1.7302,-1.7253,-1.7356,-1.7432,-1.7515,-1.772,-1.7835,-1.7875,-1.7922,-1.7922,-1.7922,-1.7949,-1.7969,-1.8075,-1.8114,-1.8168,-1.8261,-1.8314,-1.8314,-1.83,-1.8261,-1.8214,-1.8154,-1.8082,-1.7969,-1.7895,1.6775,1.7358,1.752,1.7636,1.7732,1.7427,1.7115,1.6754,1.6448,1.6144,1.5869,1.5653,1.5249,1.4708,1.4471,1.3988,1.3367,1.3137,1.2754,1.218,1.1877,1.1623,1.1277,1.0862,1.0804,1.0927,1.0714,1.0572,1.0452,1.0157,0.9725,0.9248,0.8805,0.823,0.761,0.7105,0.655,0.5999,0.5402,0.4927,0.4439,0.3999,0.3649,0.3168,0.2006,0.1026,0.0357,-0.0,-0.0492,-0.1071,-0.1339,-0.1739,-0.2361,-0.3196,-0.3988,-0.46,-0.5333,-0.6064,-0.6778,-0.7619,-0.8325,-0.8869,-0.9518,-1.0118,-1.0485,-1.084,-1.118,-1.1468,-1.1726,-1.1985,-1.251,-1.2926,-1.3181,-1.3245,-1.3503,-1.3818,-1.4007,-1.4211,-1.459,-1.5078,-1.5668,-1.6211,-1.6616,-1.6803,-1.709,-1.7598,-1.7489,-1.7414,-1.7378,-1.7302,-1.7205,-1.7302,-1.7356,-1.7439,-1.761,-1.772,-1.7835,-1.7875,-1.7929,-1.7929,-1.7922,-1.7935,-1.7962,-1.8002,-1.8049,-1.8142,-1.8149,-1.8189,-1.8189,-1.8149,-1.8088,-1.8028,-1.7962,-1.7868,-1.7788,1.693,1.7364,1.7615,1.7738,1.7825,1.7606,1.7317,1.6954,1.6607,1.6306,1.6001,1.5798,1.5345,1.4748,1.4414,1.3884,1.3314,1.3223,1.2842,1.2278,1.2031,1.1678,1.1292,1.0945,1.0707,1.0601,1.04,1.0249,1.0118,0.9897,0.9576,0.9217,0.8846,0.8353,0.7715,0.736,0.693,0.6425,0.5962,0.5531,0.5142,0.4748,0.4441,0.4087,0.3556,0.2846,0.1963,0.143,0.0895,0.0402,-0.0089,-0.0804,-0.1561,-0.2182,-0.2759,-0.3514,-0.421,-0.4945,-0.5762,-0.6622,-0.7339,-0.7964,-0.8712,-0.9359,-0.9785,-1.0303,-1.072,-1.1065,-1.1459,-1.1924,-1.2606,-1.2968,-1.3176,-1.3281,-1.3736,-1.4139,-1.4484,-1.4969,-1.538,-1.5647,-1.6144,-1.6559,-1.6738,-1.7057,-1.7389,-1.7449,-1.7413,-1.7385,-1.735,-1.726,-1.7205,-1.7247,-1.7302,-1.7391,-1.748,-1.7569,-1.772,-1.7835,-1.7882,-1.7929,-1.7929,-1.7949,-1.7935,-1.7969,-1.7969,-1.8022,-1.8069,-1.8069,-1.8062,-1.8055,-1.7995,-1.7955,-1.7862,-1.7801,-1.772,1.6757,1.7126,1.7435,1.7643,1.7738,1.7577,1.7317,1.7009,1.6748,1.6454,1.615,1.5881,1.5418,1.4869,1.4501,1.3983,1.3362,1.3223,1.2842,1.2215,1.1981,1.1623,1.1199,1.0842,1.0609,1.0333,1.0169,1.0015,0.9892,0.969,0.9448,0.9172,0.8765,0.8406,0.8047,0.761,0.7224,0.681,0.6477,0.609,0.5744,0.5491,0.5231,0.4916,0.457,0.4176,0.3732,0.2677,0.1967,0.1608,0.1205,0.058,-0.0223,-0.1027,-0.1697,-0.2317,-0.3025,-0.3812,-0.4687,-0.5467,-0.6195,-0.6913,-0.775,-0.8452,-0.9029,-0.9735,-1.0364,-1.0899,-1.1501,-1.2161,-1.271,-1.304,-1.3362,-1.3819,-1.4247,-1.4543,-1.4828,-1.5434,-1.588,-1.6062,-1.6578,-1.7014,-1.7114,-1.7338,-1.7352,-1.7413,-1.7337,-1.7253,-1.7253,-1.7253,-1.7205,-1.7205,-1.7253,-1.7302,-1.7391,-1.748,-1.7556,-1.7666,-1.7754,-1.7842,-1.7882,-1.7882,-1.7909,-1.7902,-1.7942,-1.7942,-1.7989,-1.7989,-1.7982,-1.7949,-1.7949,-1.7875,-1.7801,-1.7726,-1.7651,1.6601,1.7006,1.7398,1.7612,1.7696,1.7667,1.7447,1.7073,1.6888,1.6583,1.6188,1.5963,1.5507,1.4909,1.4558,1.3988,1.3362,1.3185,1.2847,1.2269,1.1977,1.1623,1.1136,1.0632,1.0388,1.0204,0.9967,0.9793,0.9744,0.9585,0.9377,0.9177,0.8854,0.8565,0.8291,0.7949,0.7614,0.7321,0.6982,0.6689,0.6386,0.6179,0.5962,0.5693,0.5397,0.5183,0.4961,0.4041,0.3293,0.272,0.2228,0.165,0.0938,0.0223,-0.0447,-0.1116,-0.1871,-0.2668,-0.3546,-0.4339,-0.5123,-0.5936,-0.6871,-0.7709,-0.8377,-0.9195,-1.0013,-1.0594,-1.1238,-1.1976,-1.2624,-1.3022,-1.3473,-1.4234,-1.4564,-1.4983,-1.5386,-1.6004,-1.6372,-1.6544,-1.6853,-1.7124,-1.7218,-1.7253,-1.7247,-1.7295,-1.7253,-1.7205,-1.7205,-1.7205,-1.7205,-1.7205,-1.7205,-1.7253,-1.7302,-1.735,-1.7432,-1.7508,-1.7618,-1.7713,-1.7794,-1.7801,-1.7801,-1.7875,-1.7916,-1.7916,-1.7963,-1.7963,-1.7922,-1.7889,-1.7842,-1.7808,-1.7726,-1.761,-1.7528,1.662,1.6959,1.7461,1.7667,1.7716,1.7799,1.7625,1.7205,1.6967,1.662,1.6231,1.6038,1.5635,1.5006,1.4605,1.4035,1.3324,1.3147,1.292,1.2524,1.2126,1.1669,1.1186,1.0411,1.0122,1.0219,0.9792,0.9617,0.9718,0.9599,0.9444,0.9266,0.9096,0.885,0.8565,0.8332,0.8122,0.7867,0.7583,0.7328,0.7059,0.6855,0.6641,0.6377,0.6164,0.5996,0.5825,0.5389,0.4739,0.3825,0.3073,0.2493,0.1963,0.152,0.0895,0.0134,-0.0669,-0.1515,-0.2358,-0.3269,-0.416,-0.5001,-0.6105,-0.71,-0.7719,-0.8689,-0.9552,-1.0146,-1.0791,-1.1536,-1.2317,-1.2868,-1.3504,-1.4319,-1.4807,-1.5387,-1.628,-1.6527,-1.6617,-1.6763,-1.6947,-1.6996,-1.7002,-1.7115,-1.7164,-1.717,-1.717,-1.7164,-1.7164,-1.7164,-1.7205,-1.7205,-1.7205,-1.7205,-1.7253,-1.7295,-1.7343,-1.7378,-1.7454,-1.7536,-1.7672,-1.772,-1.776,-1.7842,-1.7882,-1.7882,-1.7922,-1.7922,-1.7882,-1.7835,-1.7801,-1.7726,-1.7651,-1.7528,-1.7439,1.6614,1.6949,1.7374,1.7617,1.7699,1.7843,1.7625,1.7199,1.7002,1.6699,1.6355,1.6076,1.5768,1.5322,1.4834,1.4326,1.381,1.343,1.3152,1.2779,1.2278,1.1723,1.1072,1.0326,1.0055,1.0218,0.9813,0.9599,0.9753,0.9594,0.9559,0.955,0.9306,0.9141,0.8975,0.8728,0.848,0.8357,0.8126,0.7874,0.7659,0.7538,0.736,0.7182,0.6888,0.6722,0.6638,0.6249,0.5516,0.4484,0.4047,0.3605,0.3117,0.2673,0.2051,0.1248,0.0536,-0.0268,-0.1258,-0.2198,-0.3151,-0.4092,-0.5175,-0.611,-0.6881,-0.8029,-0.8963,-0.9659,-1.0565,-1.1447,-1.2172,-1.2722,-1.3439,-1.4313,-1.4897,-1.5495,-1.6027,-1.6349,-1.6528,-1.6601,-1.6712,-1.6791,-1.6869,-1.6954,-1.7009,-1.7009,-1.7044,-1.7086,-1.7086,-1.717,-1.7164,-1.7205,-1.7205,-1.7205,-1.7205,-1.7247,-1.7247,-1.7253,-1.7282,-1.7358,-1.7536,-1.7638,-1.7679,-1.7754,-1.7788,-1.7828,-1.7875,-1.7875,-1.7835,-1.7747,-1.772,-1.7651,-1.7528,-1.7411,-1.7356,1.6571,1.6857,1.7278,1.7499,1.7599,1.7762,1.7584,1.7205,1.7002,1.6699,1.6399,1.6175,1.5869,1.5507,1.5017,1.4507,1.4046,1.361,1.3243,1.292,1.222,1.1569,1.0972,1.0352,1.0124,1.0176,0.9887,0.9785,0.9776,0.9709,0.9718,0.9713,0.9545,0.947,0.9386,0.9128,0.8914,0.8801,0.8614,0.8414,0.8332,0.816,0.7991,0.7859,0.761,0.745,0.7276,0.7021,0.6377,0.5394,0.4923,0.4618,0.4176,0.3644,0.3024,0.2314,0.1606,0.0764,-0.0138,-0.1125,-0.2098,-0.3104,-0.4198,-0.5229,-0.6137,-0.7318,-0.8347,-0.9098,-1.0074,-1.0859,-1.1588,-1.2281,-1.3069,-1.3789,-1.4531,-1.5164,-1.5674,-1.5907,-1.6076,-1.6256,-1.6399,-1.6534,-1.6656,-1.6748,-1.6797,-1.6846,-1.6918,-1.696,-1.7009,-1.7086,-1.7164,-1.7164,-1.7205,-1.7205,-1.7205,-1.7205,-1.7247,-1.7205,-1.7205,-1.7275,-1.7413,-1.7549,-1.7584,-1.7618,-1.77,-1.774,-1.774,-1.774,-1.77,-1.7618,-1.7597,-1.7528,-1.7446,-1.7356,-1.7308,1.654,1.6749,1.7231,1.7401,1.7452,1.7611,1.7543,1.7199,1.6996,1.6742,1.6442,1.6287,1.6044,1.5635,1.5238,1.4726,1.4222,1.3758,1.3286,1.2813,1.2175,1.1473,1.0969,1.0466,1.0236,1.0129,1.0113,0.9995,0.9907,0.9941,0.9941,0.9936,0.9858,0.9827,0.9748,0.9532,0.9408,0.9328,0.9092,0.8939,0.8899,0.8728,0.8598,0.8484,0.8328,0.8081,0.7916,0.7704,0.7273,0.6289,0.5873,0.5486,0.5089,0.443,0.3838,0.3277,0.253,0.1743,0.095,-0.0048,-0.1026,-0.2065,-0.3274,-0.4395,-0.537,-0.6491,-0.7555,-0.8301,-0.9183,-0.9957,-1.0893,-1.1751,-1.2496,-1.3122,-1.3637,-1.434,-1.5045,-1.5373,-1.5552,-1.5913,-1.605,-1.6182,-1.6355,-1.6491,-1.6626,-1.659,-1.6663,-1.6784,-1.6876,-1.696,-1.7038,-1.7115,-1.7164,-1.7164,-1.7205,-1.7205,-1.7205,-1.7205,-1.7205,-1.7247,-1.733,-1.7419,-1.7495,-1.7529,-1.757,-1.7564,-1.7557,-1.7557,-1.7523,-1.7495,-1.7515,-1.7439,-1.7356,-1.7302,-1.7253,1.6607,1.687,1.7314,1.7478,1.7532,1.7796,1.7645,1.7199,1.7031,1.684,1.6626,1.6454,1.6269,1.605,1.5558,1.5102,1.4558,1.4051,1.344,1.2578,1.2126,1.1578,1.1053,1.0573,1.0243,1.0142,1.0108,1.005,1.0026,1.0083,1.0162,1.0273,1.0235,1.0205,1.0166,1.0,0.9883,0.9813,0.9655,0.9492,0.9412,0.9324,0.9195,0.9083,0.8935,0.8732,0.8525,0.8324,0.807,0.7637,0.6937,0.6328,0.5825,0.531,0.477,0.4197,0.3592,0.2853,0.2022,0.1065,0.0,-0.1048,-0.2259,-0.3419,-0.4401,-0.5508,-0.6529,-0.7343,-0.8181,-0.9169,-1.0423,-1.1355,-1.1959,-1.2491,-1.2919,-1.3447,-1.4082,-1.4686,-1.5142,-1.5463,-1.5641,-1.5774,-1.6032,-1.6082,-1.6219,-1.6275,-1.6448,-1.6565,-1.6699,-1.6791,-1.6911,-1.7031,-1.7073,-1.7122,-1.7164,-1.7164,-1.7205,-1.7205,-1.7205,-1.7205,-1.7295,-1.7337,-1.7365,-1.7406,-1.7488,-1.7441,-1.7434,-1.7475,-1.7488,-1.7419,-1.7391,-1.7343,-1.7302,-1.7247,-1.7205,1.6663,1.693,1.7287,1.7548,1.7711,1.7864,1.7686,1.7262,1.7122,1.7009,1.6803,1.662,1.6442,1.6312,1.5863,1.54,1.4869,1.4192,1.3478,1.2749,1.2264,1.1723,1.1309,1.0847,1.0519,1.0206,1.0361,1.0326,1.0207,1.0283,1.0423,1.0529,1.0577,1.0577,1.0577,1.0462,1.0346,1.0307,1.0157,1.004,0.9957,0.9839,0.9681,0.9571,0.9417,0.9293,0.9079,0.8918,0.8856,0.8665,0.8207,0.7368,0.6603,0.6145,0.5694,0.5153,0.4532,0.3855,0.3021,0.204,0.0959,-0.0054,-0.1328,-0.2391,-0.3456,-0.4505,-0.5553,-0.6426,-0.7337,-0.8339,-0.9755,-1.0576,-1.1191,-1.176,-1.2201,-1.2691,-1.3223,-1.3983,-1.4645,-1.4966,-1.5102,-1.5328,-1.5501,-1.568,-1.5863,-1.5963,-1.6138,-1.63,-1.6571,-1.6663,-1.6791,-1.6918,-1.6996,-1.7038,-1.7073,-1.7115,-1.7205,-1.7205,-1.7205,-1.7205,-1.7247,-1.7247,-1.7288,-1.7323,-1.7365,-1.7317,-1.731,-1.7358,-1.7365,-1.733,-1.7288,-1.7247,-1.7247,-1.7199,-1.7205,1.665,1.6937,1.7263,1.7597,1.7854,1.7923,1.7693,1.7284,1.7234,1.7128,1.6967,1.681,1.6663,1.6472,1.607,1.5668,1.5079,1.4357,1.361,1.3025,1.2461,1.1968,1.156,1.1228,1.0855,1.032,1.0579,1.0558,1.0456,1.0497,1.0697,1.0802,1.0926,1.0964,1.0954,1.0916,1.084,1.0759,1.0639,1.0524,1.0452,1.0346,1.022,1.0207,1.0255,1.0193,1.0035,0.9831,0.9733,0.98,0.9497,0.8672,0.773,0.7042,0.6686,0.6072,0.5459,0.4768,0.3959,0.2941,0.1897,0.0837,-0.0335,-0.1452,-0.2511,-0.3569,-0.462,-0.5607,-0.6583,-0.7714,-0.8886,-0.971,-1.0328,-1.0846,-1.141,-1.1918,-1.2466,-1.3238,-1.3858,-1.443,-1.4605,-1.4789,-1.5062,-1.5289,-1.5468,-1.5691,-1.5863,-1.6038,-1.6262,-1.6485,-1.662,-1.6699,-1.6778,-1.6911,-1.6996,-1.708,-1.7128,-1.717,-1.7164,-1.7205,-1.7205,-1.7247,-1.7247,-1.7247,-1.7247,-1.724,-1.7192,-1.7192,-1.7199,-1.715,-1.7157,-1.7086,-1.7122,-1.7157,-1.7157,1.665,1.6917,1.7324,1.7582,1.7754,1.8031,1.7866,1.7468,1.7378,1.7302,1.7115,1.6967,1.6876,1.6699,1.6362,1.573,1.504,1.4455,1.3952,1.3319,1.2749,1.226,1.1778,1.1514,1.1171,1.0884,1.0894,1.0883,1.0786,1.0896,1.1032,1.1238,1.1298,1.1319,1.1372,1.1367,1.1324,1.1266,1.1212,1.112,1.1011,1.1007,1.1045,1.1176,1.1351,1.138,1.1274,1.1099,1.0958,1.0844,1.0548,0.9964,0.9209,0.8468,0.7796,0.7104,0.646,0.5722,0.4896,0.391,0.2824,0.173,0.0615,-0.0559,-0.162,-0.2682,-0.3792,-0.4952,-0.6154,-0.7399,-0.8187,-0.8928,-0.9558,-1.0127,-1.0639,-1.1209,-1.176,-1.2363,-1.3002,-1.3668,-1.3952,-1.4291,-1.461,-1.4886,-1.5062,-1.5283,-1.5501,-1.573,-1.5919,-1.6144,-1.6362,-1.6442,-1.6558,-1.6735,-1.6876,-1.696,-1.7051,-1.7086,-1.7086,-1.7157,-1.7157,-1.7205,-1.7205,-1.7177,-1.717,-1.7164,-1.7164,-1.7073,-1.708,-1.7038,-1.7002,-1.6967,-1.7002,-1.7038,-1.7002,1.665,1.6943,1.7293,1.7551,1.7745,1.8067,1.8033,1.7733,1.7679,1.7549,1.7365,1.7212,1.7051,1.6882,1.6528,1.5907,1.5198,1.4691,1.4233,1.3668,1.3084,1.255,1.1972,1.1719,1.1477,1.1279,1.1221,1.1143,1.1066,1.125,1.1402,1.148,1.1606,1.1712,1.178,1.1811,1.1791,1.1745,1.1886,1.1948,1.1806,1.1929,1.2133,1.2213,1.2294,1.2287,1.2115,1.1824,1.1724,1.1706,1.1442,1.1093,1.0586,0.9963,0.9029,0.8062,0.7292,0.6564,0.5692,0.4673,0.3514,0.2345,0.1285,0.0224,-0.0951,-0.2014,-0.3128,-0.4565,-0.5611,-0.6807,-0.7501,-0.8193,-0.8823,-0.9399,-0.9969,-1.0541,-1.1061,-1.1528,-1.2166,-1.2842,-1.3271,-1.3705,-1.4197,-1.4471,-1.4645,-1.4875,-1.5187,-1.5373,-1.5608,-1.5836,-1.6063,-1.6225,-1.6343,-1.6565,-1.6748,-1.6833,-1.6918,-1.6918,-1.7002,-1.708,-1.706,-1.7102,-1.7044,-1.7028,-1.7064,-1.7057,-1.7044,-1.696,-1.6967,-1.6967,-1.6924,-1.6882,-1.6888,-1.6931,-1.6846,1.6699,1.6924,1.7289,1.7545,1.7792,1.8086,1.812,1.7995,1.7889,1.7754,1.757,1.7467,1.7267,1.6996,1.6607,1.6088,1.5402,1.5023,1.4605,1.4051,1.3467,1.2885,1.2358,1.1968,1.1692,1.1526,1.161,1.1516,1.1511,1.1701,1.1855,1.1932,1.2053,1.2215,1.2334,1.246,1.2396,1.264,1.2834,1.2916,1.2896,1.3124,1.3278,1.3238,1.3145,1.3108,1.307,1.2697,1.2563,1.2569,1.2358,1.1997,1.1747,1.1259,1.0249,0.891,0.8072,0.7258,0.6312,0.5281,0.4124,0.2957,0.1899,0.0839,-0.0336,-0.1511,-0.2849,-0.44,-0.5338,-0.6105,-0.6807,-0.7498,-0.8134,-0.8715,-0.9295,-0.9825,-1.0399,-1.0863,-1.1368,-1.1954,-1.2535,-1.3069,-1.3563,-1.3952,-1.4129,-1.4466,-1.4783,-1.5051,-1.5289,-1.5531,-1.576,-1.6013,-1.6175,-1.6442,-1.6614,-1.6705,-1.6742,-1.6742,-1.6869,-1.6954,-1.6976,-1.6957,-1.6911,-1.6871,-1.6835,-1.6829,-1.6859,-1.6846,-1.684,-1.6791,-1.6791,-1.6754,-1.6626,-1.6626,-1.6583,1.6761,1.6943,1.7318,1.7677,1.7966,1.8195,1.8255,1.8145,1.8003,1.7808,1.7666,1.7536,1.7426,1.7212,1.6742,1.6225,1.5792,1.5474,1.5051,1.446,1.3947,1.3276,1.2657,1.2224,1.1923,1.1814,1.1904,1.2096,1.2102,1.2342,1.2522,1.2575,1.2749,1.2983,1.316,1.3285,1.3574,1.3922,1.4059,1.4006,1.3946,1.4197,1.4303,1.4281,1.4333,1.4345,1.4204,1.3842,1.3631,1.3492,1.3117,1.2682,1.222,1.1723,1.0952,0.9938,0.8922,0.7877,0.6853,0.5823,0.473,0.3569,0.257,0.1567,0.0224,-0.1287,-0.2683,-0.3739,-0.4622,-0.5338,-0.6107,-0.6807,-0.7396,-0.8034,-0.8616,-0.9141,-0.9669,-1.0245,-1.0753,-1.1217,-1.1805,-1.2388,-1.2924,-1.3271,-1.361,-1.3999,-1.4378,-1.4691,-1.4966,-1.5255,-1.5531,-1.5786,-1.6007,-1.6225,-1.6399,-1.6485,-1.6534,-1.6565,-1.6656,-1.6784,-1.6772,-1.6716,-1.6748,-1.6694,-1.6664,-1.6664,-1.6682,-1.6712,-1.6663,-1.662,-1.6577,-1.6448,-1.6281,-1.6281,-1.6368,1.6846,1.6955,1.728,1.7668,1.8016,1.8299,1.8383,1.8317,1.8221,1.8009,1.7862,1.77,1.7461,1.7177,1.6833,1.6472,1.6113,1.5806,1.5406,1.4915,1.4362,1.3795,1.318,1.2657,1.2269,1.2076,1.2107,1.2288,1.2535,1.2834,1.2999,1.3214,1.3503,1.3784,1.4011,1.4177,1.4364,1.4604,1.4808,1.5016,1.5169,1.5264,1.5221,1.5177,1.5178,1.513,1.5017,1.4656,1.4332,1.4093,1.3705,1.3175,1.2642,1.2058,1.146,1.06,0.9618,0.8564,0.7444,0.6312,0.5222,0.4179,0.3126,0.1956,0.0503,-0.0951,-0.2236,-0.3239,-0.3961,-0.4682,-0.5397,-0.6159,-0.681,-0.7399,-0.7984,-0.8517,-0.9044,-0.9614,-1.0135,-1.0604,-1.107,-1.1656,-1.2241,-1.2681,-1.3127,-1.3615,-1.3999,-1.4332,-1.4691,-1.5017,-1.5289,-1.5603,-1.5786,-1.6013,-1.6138,-1.6262,-1.6324,-1.6318,-1.6362,-1.6448,-1.6442,-1.6448,-1.6504,-1.6473,-1.6399,-1.6436,-1.6497,-1.6491,-1.6405,-1.6362,-1.6318,-1.6188,-1.6106,-1.62,-1.6237,1.6888,1.6947,1.7321,1.7714,1.8105,1.846,1.8614,1.8586,1.8443,1.8273,1.8088,1.7862,1.7536,1.7247,1.708,1.6856,1.6447,1.6101,1.575,1.535,1.4812,1.4217,1.36,1.3035,1.2559,1.2283,1.2175,1.2379,1.2758,1.313,1.3488,1.3758,1.4105,1.4476,1.4768,1.4985,1.5185,1.5528,1.5715,1.5969,1.6139,1.6089,1.6032,1.5901,1.5774,1.5653,1.5552,1.5114,1.4748,1.446,1.4046,1.3515,1.2972,1.2456,1.1819,1.0956,1.0135,0.9187,0.8028,0.691,0.583,0.4732,0.3461,0.2069,0.0559,-0.0615,-0.1509,-0.2514,-0.3352,-0.4075,-0.4792,-0.55,-0.6209,-0.6804,-0.7343,-0.7937,-0.8527,-0.9044,-0.9562,-1.0083,-1.0553,-1.1023,-1.156,-1.2098,-1.2589,-1.3132,-1.3573,-1.4004,-1.4373,-1.4737,-1.5011,-1.5283,-1.5525,-1.5665,-1.5792,-1.5919,-1.5975,-1.6113,-1.6106,-1.6144,-1.6175,-1.6225,-1.6275,-1.6206,-1.6131,-1.6081,-1.6144,-1.6144,-1.6144,-1.61,-1.6057,-1.6013,-1.5975,-1.6063,-1.6019,1.6888,1.6937,1.7463,1.7899,1.831,1.879,1.895,1.8941,1.8676,1.8468,1.8279,1.8082,1.7841,1.7632,1.7441,1.724,1.6833,1.6558,1.6194,1.5706,1.517,1.4623,1.4019,1.3404,1.2837,1.2466,1.2372,1.2501,1.2866,1.3385,1.3726,1.409,1.464,1.5102,1.5486,1.5749,1.6143,1.6421,1.6622,1.6638,1.6693,1.6633,1.6534,1.6436,1.6269,1.61,1.5944,1.5513,1.5119,1.4869,1.4373,1.3863,1.3377,1.2803,1.2107,1.136,1.0592,0.9703,0.8659,0.7495,0.6367,0.5111,0.3624,0.2183,0.0952,-0.0056,-0.0952,-0.179,-0.2685,-0.3409,-0.4072,-0.484,-0.5605,-0.6209,-0.6753,-0.7348,-0.794,-0.8464,-0.9037,-0.9558,-1.0032,-1.0502,-1.0972,-1.151,-1.2161,-1.2754,-1.3271,-1.3705,-1.4087,-1.446,-1.4697,-1.4926,-1.517,-1.5312,-1.5402,-1.5492,-1.5715,-1.5798,-1.5842,-1.5919,-1.5994,-1.5994,-1.6007,-1.5963,-1.5881,-1.5792,-1.5754,-1.5836,-1.5836,-1.5836,-1.5798,-1.5748,-1.5703,-1.5709,-1.5659,1.6888,1.6944,1.7523,1.7981,1.8339,1.8938,1.9198,1.9198,1.9049,1.8745,1.8418,1.8247,1.8049,1.7855,1.7781,1.7543,1.7183,1.6911,1.6601,1.6207,1.5668,1.517,1.4617,1.4019,1.3505,1.2992,1.2754,1.2666,1.2905,1.3425,1.3924,1.4389,1.5072,1.5684,1.6123,1.6504,1.6927,1.7094,1.7212,1.7183,1.7141,1.7044,1.6954,1.6833,1.6699,1.6528,1.63,1.5951,1.5603,1.5198,1.4702,1.4239,1.3721,1.3084,1.2403,1.1764,1.0947,1.0127,0.9239,0.7969,0.663,0.5111,0.3681,0.2462,0.1512,0.0616,-0.028,-0.112,-0.2015,-0.274,-0.3409,-0.4237,-0.5064,-0.5616,-0.6164,-0.6758,-0.7348,-0.7928,-0.8458,-0.8981,-0.951,-1.0035,-1.0502,-1.0968,-1.1673,-1.2328,-1.289,-1.3404,-1.3789,-1.4134,-1.4321,-1.4558,-1.48,-1.4977,-1.5023,-1.521,-1.5441,-1.5531,-1.5576,-1.5647,-1.568,-1.5686,-1.5691,-1.5647,-1.5641,-1.5603,-1.5564,-1.557,-1.557,-1.5564,-1.5564,-1.5519,-1.548,-1.5396,-1.5345,1.6882,1.6904,1.7399,1.7911,1.8415,1.9109,1.9413,1.9472,1.9376,1.9109,1.8683,1.8553,1.834,1.8149,1.8016,1.7781,1.7467,1.7212,1.6918,1.6522,1.607,1.5623,1.5136,1.4542,1.3889,1.3467,1.3089,1.29,1.2963,1.3387,1.3915,1.456,1.5322,1.5908,1.6478,1.708,1.7467,1.7536,1.7543,1.7556,1.7522,1.7419,1.733,1.7218,1.708,1.6869,1.6571,1.6225,1.5875,1.5468,1.5017,1.4512,1.3941,1.3367,1.2735,1.2053,1.1314,1.0549,0.9555,0.8178,0.6681,0.5273,0.4124,0.3015,0.2181,0.1288,0.0392,-0.0393,-0.1232,-0.207,-0.2796,-0.363,-0.4405,-0.5011,-0.5557,-0.6154,-0.675,-0.7337,-0.7871,-0.8455,-0.8984,-0.9514,-1.0138,-1.071,-1.1473,-1.213,-1.2666,-1.3132,-1.3457,-1.3752,-1.3905,-1.4145,-1.4378,-1.4553,-1.4726,-1.488,-1.5034,-1.5131,-1.5216,-1.5334,-1.5373,-1.5379,-1.543,-1.5474,-1.5468,-1.5424,-1.5334,-1.5283,-1.5283,-1.5334,-1.5295,-1.5261,-1.5176,-1.5091,-1.5085,1.6833,1.6742,1.707,1.7718,1.8504,1.9278,1.9628,1.9703,1.9682,1.9486,1.9177,1.9026,1.8781,1.8503,1.8326,1.8002,1.7652,1.7426,1.7225,1.6827,1.638,1.5844,1.535,1.4812,1.4269,1.3652,1.3276,1.3094,1.3017,1.3382,1.3894,1.4588,1.5316,1.6057,1.6525,1.7179,1.757,1.7713,1.7815,1.7889,1.7842,1.7754,1.7672,1.7549,1.7371,1.7164,1.6876,1.654,1.6144,1.5703,1.5114,1.4656,1.4181,1.3552,1.2885,1.2224,1.1619,1.0799,0.9817,0.7966,0.6684,0.5658,0.4565,0.3629,0.2736,0.19,0.1007,0.028,-0.0615,-0.1454,-0.2238,-0.3022,-0.3742,-0.4403,-0.495,-0.5553,-0.615,-0.6748,-0.7283,-0.7874,-0.8458,-0.904,-0.9718,-1.0442,-1.1263,-1.1927,-1.2426,-1.2813,-1.3084,-1.3324,-1.353,-1.3758,-1.3947,-1.4186,-1.4362,-1.4518,-1.4667,-1.4765,-1.4903,-1.5028,-1.5114,-1.5165,-1.521,-1.5255,-1.5261,-1.5176,-1.5062,-1.4909,-1.5006,-1.5062,-1.4989,-1.4908,-1.4874,-1.4828,-1.4817,1.6797,1.6709,1.697,1.7511,1.8287,1.8971,1.9501,1.984,1.9884,1.9797,1.9588,1.9325,1.904,1.8798,1.8496,1.8208,1.7882,1.774,1.7502,1.7073,1.6693,1.6349,1.5856,1.5316,1.4737,1.4181,1.3758,1.3286,1.292,1.3334,1.37,1.4346,1.5525,1.6456,1.7069,1.7565,1.7838,1.8007,1.8096,1.8123,1.8102,1.8036,1.7956,1.7848,1.7706,1.7454,1.7128,1.6791,1.6411,1.5931,1.5345,1.4846,1.4326,1.37,1.3084,1.2466,1.1923,1.0956,0.9821,0.8405,0.7292,0.6261,0.5171,0.4293,0.3459,0.2572,0.1734,0.0895,-0.0,-0.0839,-0.1566,-0.2464,-0.3187,-0.3793,-0.4398,-0.4952,-0.5553,-0.6152,-0.6694,-0.7289,-0.7877,-0.8722,-0.9454,-1.0032,-1.0804,-1.1423,-1.1873,-1.2377,-1.271,-1.2953,-1.3152,-1.3377,-1.3605,-1.381,-1.4004,-1.4145,-1.4337,-1.4477,-1.4627,-1.4771,-1.4863,-1.4943,-1.4994,-1.5,-1.5006,-1.4966,-1.4851,-1.4789,-1.4743,-1.4708,-1.4719,-1.4678,-1.4678,-1.4678,-1.4627,1.682,1.6658,1.6737,1.7316,1.8127,1.8785,1.9472,2.0043,2.0146,2.0088,1.9917,1.9639,1.9325,1.9071,1.8781,1.8418,1.8121,1.7969,1.774,1.7317,1.7031,1.665,1.6256,1.5818,1.5232,1.4645,1.4134,1.3668,1.3195,1.3377,1.3884,1.4749,1.583,1.6705,1.7305,1.7695,1.7985,1.8144,1.8271,1.832,1.8365,1.8321,1.8189,1.8069,1.7902,1.77,1.7371,1.6996,1.6663,1.6094,1.557,1.508,1.4466,1.3852,1.3233,1.2715,1.1823,1.0854,0.9769,0.9001,0.7934,0.6966,0.5825,0.4954,0.4128,0.3186,0.2348,0.1454,0.056,-0.0224,-0.1007,-0.1849,-0.2517,-0.3123,-0.3792,-0.4401,-0.5011,-0.5611,-0.6263,-0.6807,-0.7509,-0.8352,-0.9141,-0.9666,-1.0241,-1.0757,-1.1272,-1.1778,-1.2283,-1.2524,-1.2818,-1.3045,-1.3233,-1.3483,-1.3673,-1.3858,-1.4046,-1.4233,-1.4337,-1.4447,-1.4581,-1.4662,-1.4725,-1.4782,-1.4828,-1.4828,-1.473,-1.4627,-1.4569,-1.4518,-1.4518,-1.4523,-1.4529,-1.4482,-1.4436,1.6801,1.6515,1.6429,1.707,1.8109,1.8951,1.9733,2.0402,2.0388,2.0346,2.027,1.9945,1.9667,1.9413,1.9137,1.8781,1.8397,1.8161,1.7841,1.7523,1.7234,1.6856,1.6515,1.607,1.5585,1.5096,1.4547,1.4082,1.3663,1.361,1.4212,1.5119,1.6045,1.6794,1.7301,1.7658,1.7947,1.8151,1.8369,1.8441,1.8471,1.8532,1.8426,1.8261,1.8095,1.7814,1.7495,1.7164,1.6699,1.6182,1.5659,1.5119,1.4564,1.3957,1.3339,1.2564,1.1523,1.0702,0.9928,0.9263,0.858,0.7563,0.6534,0.5614,0.4684,0.3796,0.2906,0.2125,0.1343,0.0448,-0.0392,-0.1064,-0.1734,-0.2458,-0.3184,-0.3852,-0.452,-0.5177,-0.583,-0.6482,-0.719,-0.7937,-0.8735,-0.9312,-0.9725,-1.019,-1.0706,-1.1221,-1.1723,-1.218,-1.2421,-1.2725,-1.2958,-1.3157,-1.3344,-1.3525,-1.3758,-1.3952,-1.4004,-1.4109,-1.4244,-1.4384,-1.4441,-1.4499,-1.4684,-1.4638,-1.4488,-1.4389,-1.4384,-1.4332,-1.4332,-1.4326,-1.4378,-1.4337,-1.4291,1.6941,1.6637,1.6355,1.6931,1.8244,2.02,2.0884,2.0527,2.0467,2.0501,2.0543,2.017,2.0112,1.9812,1.9457,1.9159,1.8841,1.8514,1.8168,1.7848,1.7709,1.7216,1.6865,1.6566,1.6013,1.5543,1.5063,1.4622,1.3994,1.3889,1.4244,1.5028,1.6014,1.6675,1.715,1.7491,1.7792,1.8076,1.8345,1.8459,1.8545,1.8605,1.8549,1.8425,1.8247,1.7969,1.7659,1.7288,1.6863,1.6293,1.5774,1.5283,1.4662,1.4051,1.3387,1.2323,1.1477,1.0765,1.0142,0.9517,0.884,0.8156,0.7295,0.6374,0.5447,0.4405,0.3519,0.2739,0.2014,0.1119,0.028,-0.0392,-0.1119,-0.1901,-0.2627,-0.3297,-0.3964,-0.4682,-0.5336,-0.6213,-0.692,-0.7625,-0.8368,-0.8847,-0.9316,-0.9729,-1.0138,-1.0655,-1.1167,-1.1673,-1.2076,-1.2377,-1.2627,-1.2871,-1.3012,-1.319,-1.343,-1.3621,-1.3668,-1.3815,-1.4004,-1.4104,-1.4161,-1.426,-1.4354,-1.4302,-1.4156,-1.415,-1.4197,-1.4156,-1.4109,-1.4145,-1.4186,-1.4192,-1.4145,1.7005,1.6705,1.6554,1.7451,1.9273,2.1435,2.2075,2.1632,2.1608,2.1608,2.1613,2.135,2.1114,2.0987,2.067,2.0361,2.0067,1.9814,1.9447,1.9052,1.8493,1.8289,1.7935,1.7528,1.7276,1.6739,1.623,1.5903,1.4992,1.46,1.4893,1.5383,1.6034,1.6563,1.7066,1.7434,1.7639,1.7932,1.8168,1.8346,1.8506,1.8661,1.8695,1.856,1.8369,1.8073,1.774,1.7353,1.6902,1.6361,1.5901,1.5367,1.4691,1.4035,1.3286,1.2318,1.1723,1.1116,1.0506,0.9892,0.9215,0.858,0.7886,0.7077,0.61,0.5119,0.4182,0.3408,0.2628,0.1791,0.1008,0.028,-0.056,-0.1343,-0.207,-0.2741,-0.3407,-0.4127,-0.4952,-0.5884,-0.6647,-0.7354,-0.7946,-0.8374,-0.885,-0.9263,-0.9677,-1.0039,-1.0655,-1.1221,-1.1628,-1.1981,-1.2283,-1.2583,-1.272,-1.291,-1.3147,-1.3334,-1.3425,-1.352,-1.3763,-1.3863,-1.3915,-1.3973,-1.4073,-1.402,-1.3968,-1.402,-1.4067,-1.3978,-1.3926,-1.3962,-1.4004,-1.4057,-1.4051,1.7154,1.6846,1.7134,1.8634,2.0773,2.2546,2.338,2.3495,2.3514,2.3345,2.3064,2.2856,2.2548,2.2164,2.188,2.1598,2.1242,2.095,2.0525,2.0401,1.9821,1.9441,1.9117,1.9034,1.8397,1.8249,1.7805,1.695,1.6495,1.5941,1.5632,1.6015,1.6209,1.6631,1.7161,1.7447,1.7657,1.7841,1.8096,1.8304,1.847,1.8681,1.8803,1.8562,1.8247,1.7951,1.7631,1.7268,1.6847,1.6322,1.5818,1.5222,1.4495,1.3757,1.2969,1.2505,1.1918,1.1368,1.0816,1.0201,0.9636,0.9001,0.8359,0.761,0.664,0.5614,0.468,0.3964,0.3186,0.2406,0.1623,0.084,0.0056,-0.0728,-0.1456,-0.2183,-0.2963,-0.3793,-0.4787,-0.5664,-0.632,-0.6972,-0.7464,-0.7943,-0.8374,-0.8794,-0.9215,-0.9524,-1.0043,-1.0663,-1.1175,-1.1528,-1.1932,-1.2229,-1.248,-1.2622,-1.2822,-1.3007,-1.3094,-1.3233,-1.3435,-1.3578,-1.3673,-1.3673,-1.3721,-1.3826,-1.3873,-1.3873,-1.3873,-1.3868,-1.3821,-1.3773,-1.3821,-1.3868,-1.391,1.7912,1.7573,1.8903,2.0295,2.1632,2.3581,2.4781,2.536,2.5518,2.4675,2.346,2.3199,2.3072,2.2949,2.2727,2.2417,2.2038,2.1912,2.1285,2.0952,2.062,2.0362,1.9772,1.9721,1.9297,1.876,1.8282,1.7836,1.7096,1.6613,1.6227,1.6096,1.6427,1.705,1.7201,1.7463,1.77,1.7809,1.7941,1.8161,1.8328,1.8099,1.7988,1.7881,1.7644,1.7121,1.6777,1.6333,1.5873,1.5372,1.4934,1.4374,1.3761,1.3163,1.277,1.2439,1.1999,1.1519,1.1019,1.0458,0.984,0.9267,0.8629,0.7937,0.713,0.605,0.5177,0.4462,0.3742,0.2962,0.2183,0.14,0.0673,-0.0112,-0.0897,-0.168,-0.2519,-0.3572,-0.4622,-0.5334,-0.5991,-0.6537,-0.6974,-0.7464,-0.7895,-0.8271,-0.8695,-0.9064,-0.9476,-1.0047,-1.0565,-1.1019,-1.1523,-1.1877,-1.2081,-1.2328,-1.2475,-1.2676,-1.2813,-1.3007,-1.3157,-1.3291,-1.3377,-1.3367,-1.3415,-1.3568,-1.3621,-1.3668,-1.3663,-1.3668,-1.3668,-1.3621,-1.3621,-1.3716,-1.3663,1.8719,1.9179,2.1009,2.2313,2.3329,2.4906,2.5869,2.6272,2.6418,2.5821,2.4761,2.4512,2.4317,2.4075,2.3869,2.342,2.3054,2.2899,2.2603,2.2166,2.1643,2.1414,2.1024,2.0664,2.0461,2.0,1.932,1.8666,1.7844,1.7514,1.7266,1.674,1.7137,1.7333,1.731,1.7515,1.7729,1.7798,1.7846,1.8001,1.8147,1.7871,1.7822,1.7681,1.7284,1.6684,1.6267,1.5891,1.5491,1.498,1.449,1.3924,1.3395,1.3018,1.2726,1.2454,1.2129,1.1769,1.1217,1.0714,1.0095,0.9577,0.8956,0.8365,0.767,0.6642,0.5725,0.5011,0.4237,0.3458,0.2683,0.1958,0.1232,0.0504,-0.0448,-0.1344,-0.2349,-0.3407,-0.4182,-0.4846,-0.5445,-0.5989,-0.648,-0.698,-0.7413,-0.7845,-0.8218,-0.859,-0.9008,-0.9372,-0.9943,-1.0411,-1.0913,-1.1372,-1.1628,-1.1877,-1.2071,-1.2274,-1.2529,-1.2725,-1.2866,-1.2997,-1.3132,-1.3132,-1.3175,-1.3314,-1.3362,-1.3415,-1.3415,-1.3415,-1.342,-1.342,-1.3467,-1.3515,-1.3563,1.9683,2.1079,2.3026,2.4302,2.5095,2.6206,2.6724,2.6808,2.6816,2.6708,2.6353,2.6119,2.5966,2.5672,2.5362,2.4981,2.4528,2.3981,2.377,2.3475,2.3186,2.2562,2.2224,2.2136,2.1619,2.098,2.0295,1.9769,1.9147,1.8661,1.8135,1.7703,1.7576,1.7632,1.7479,1.7529,1.7764,1.7833,1.7916,1.8032,1.7939,1.7712,1.7662,1.7499,1.7168,1.6501,1.6103,1.5728,1.5316,1.4695,1.3974,1.342,1.3015,1.2717,1.2638,1.2363,1.2211,1.1929,1.1592,1.112,1.0561,0.9995,0.9375,0.8738,0.804,0.7238,0.6322,0.5557,0.4728,0.3956,0.3182,0.2405,0.1735,0.0952,-0.0056,-0.1064,-0.2125,-0.3131,-0.3742,-0.4298,-0.4899,-0.5441,-0.5937,-0.649,-0.6925,-0.7359,-0.7788,-0.8109,-0.8477,-0.89,-0.9316,-0.9732,-1.0142,-1.0604,-1.112,-1.1372,-1.1615,-1.1873,-1.2076,-1.2328,-1.2524,-1.2662,-1.2803,-1.2852,-1.2944,-1.3035,-1.3127,-1.3175,-1.317,-1.3175,-1.3266,-1.3319,-1.3367,-1.3415,-1.3415,2.0978,2.1811,2.4106,2.5284,2.5736,2.6844,2.733,2.7361,2.7396,2.7298,2.7045,2.6882,2.6615,2.6074,2.5738,2.5392,2.5005,2.4695,2.4328,2.3971,2.3683,2.3268,2.2859,2.2593,2.2077,2.1444,2.0809,2.022,1.9714,1.9337,1.8739,1.7969,1.7836,1.7825,1.7737,1.7801,1.7871,1.7978,1.8212,1.8398,1.8145,1.7747,1.6996,1.663,1.6189,1.557,1.5056,1.4764,1.4386,1.3822,1.3246,1.2832,1.2586,1.2383,1.2291,1.2368,1.2184,1.2013,1.1697,1.1351,1.0867,1.0205,0.958,0.9054,0.8362,0.7729,0.6864,0.6048,0.5277,0.4345,0.3572,0.2852,0.2128,0.112,0.0112,-0.0952,-0.2015,-0.2631,-0.3189,-0.3744,-0.4349,-0.4897,-0.5391,-0.5884,-0.6379,-0.6812,-0.7252,-0.7571,-0.794,-0.8309,-0.8735,-0.9103,-0.9465,-1.0142,-1.0761,-1.0863,-1.1061,-1.1368,-1.1623,-1.1873,-1.2076,-1.2332,-1.2426,-1.2466,-1.2618,-1.2759,-1.2803,-1.2842,-1.2949,-1.2997,-1.3122,-1.3213,-1.3223,-1.3276,-1.3276]}]]